GFSSW_850_spd_003.txt.gz
Wind_Speed
21 21 21 22 23 23 22 20 19 18 17 15 13 11 13 14 15 18 20 10 4 10 9 8 10 7 5 6 5 4 1 4 6 8 7 10 5 9 7 13 6 6 8 14 27
21 21 21 22 22 23 22 19 17 17 15 13 10 10 12 13 17 19 7 11 10 14 10 10 10 8 6 5 5 4 2 6 3 10 13 19 13 9 7 8 3 8 11 31 27
21 21 21 22 22 22 20 18 16 15 12 10 9 9 10 12 16 4 4 13 15 13 9 9 5 6 4 5 6 4 3 4 5 8 9 15 6 6 18 5 5 14 29 28 25
20 21 21 21 22 21 18 16 15 12 9 8 8 8 9 9 0 3 7 10 10 12 11 11 9 6 4 4 6 3 5 2 7 6 10 8 13 6 6 1 2 16 28 29 26
20 20 20 20 21 18 15 14 12 9 7 8 8 7 8 7 7 9 5 8 12 14 14 15 12 7 5 6 7 4 3 2 2 11 17 12 8 7 3 6 12 20 27 26 24
19 18 19 19 19 15 13 12 9 7 7 8 6 7 7 5 2 1 6 3 11 14 16 16 7 12 4 3 5 6 7 8 8 12 8 9 5 5 6 12 19 22 25 25 24
17 16 18 18 16 12 9 8 7 7 8 6 7 8 11 11 3 9 9 4 8 11 11 16 17 7 6 3 5 8 7 6 8 4 4 9 5 5 8 13 19 18 20 21 21
14 16 16 16 14 9 6 6 7 7 7 6 5 9 8 2 6 8 4 3 3 6 8 8 8 12 2 8 5 4 4 4 2 2 4 1 3 7 8 9 11 15 18 19 16
13 15 14 13 11 8 7 7 7 7 7 5 6 6 7 3 4 2 2 3 5 1 4 1 15 6 6 4 3 7 3 3 4 11 2 7 1 11 5 11 11 12 13 14 12
12 13 12 12 8 7 8 9 9 6 6 4 5 2 4 2 5 3 3 3 1 7 11 8 3 3 3 3 4 4 4 2 5 4 11 11 5 9 9 9 11 12 13 14 12
12 11 11 10 9 9 12 12 5 2 11 6 3 2 1 3 5 5 4 4 4 5 4 1 4 4 3 3 3 5 3 6 3 3 7 8 8 9 8 10 9 10 13 14 13
10 10 10 12 11 14 15 5 3 2 2 14 16 16 11 2 2 5 2 0 3 3 2 6 5 2 5 5 6 5 6 4 5 4 6 8 11 8 9 5 5 11 14 17 19
10 11 12 14 15 16 13 3 2 4 1 4 7 5 0 7 3 4 4 4 4 3 2 6 2 3 5 4 7 4 7 4 5 7 8 7 5 4 6 8 10 12 16 19 24
12 13 15 15 13 11 8 4 2 3 4 4 3 1 4 6 3 2 5 3 4 4 3 6 2 4 4 3 1 4 4 11 11 2 3 3 3 1 2 5 7 10 13 19 25
15 16 18 19 8 12 5 3 4 5 3 4 2 3 5 3 5 3 3 4 6 4 2 0 3 3 5 2 1 4 6 7 3 4 3 2 2 3 5 7 9 11 10 17 23
18 20 21 21 10 6 5 5 6 6 3 2 2 2 4 5 3 1 4 7 7 5 5 3 3 2 3 2 4 10 6 6 3 2 0 1 2 5 10 14 13 12 12 18 24
21 24 25 18 11 9 5 7 5 4 2 2 3 3 4 2 4 4 4 4 3 4 3 4 2 1 1 5 3 5 4 2 1 1 3 1 2 5 15 12 18 21 20 23 24
23 26 25 19 13 7 5 4 3 3 5 1 3 3 4 2 3 4 3 3 5 4 3 4 0 2 4 2 4 2 4 4 5 4 2 1 5 3 3 15 22 24 21 23 24
25 25 24 17 13 10 5 4 6 6 3 6 3 5 1 1 4 3 3 2 1 1 4 3 1 2 3 1 1 3 2 2 6 2 1 2 3 6 1 10 15 18 21 22 23
27 21 23 16 17 13 5 5 3 4 1 2 4 2 3 2 3 3 1 1 2 1 1 5 3 1 1 2 7 1 6 3 2 4 3 2 5 5 6 14 12 16 20 21 21
25 11 18 19 18 10 4 5 5 6 6 5 5 3 3 4 3 2 5 1 2 1 3 3 3 2 1 0 4 3 2 5 4 1 3 2 4 4 8 13 16 22 20 23 23
19 3 23 21 4 2 4 5 3 3 3 4 4 3 5 3 4 4 6 1 2 2 4 1 4 3 1 0 1 1 3 4 3 4 1 0 5 1 6 10 12 12 19 21 24
15 5 21 22 4 0 2 2 2 2 1 2 2 3 2 4 4 2 3 2 3 3 5 5 1 3 3 2 1 2 2 4 5 2 5 3 3 0 3 5 12 16 18 20 26
17 3 5 8 6 9 5 3 1 3 2 3 5 3 4 3 3 4 3 2 2 3 4 3 3 4 7 3 1 4 4 4 3 3 4 6 4 4 5 7 9 14 18 22 27
13 4 9 3 1 5 4 6 5 2 2 2 3 2 5 4 2 3 2 2 3 4 3 2 4 2 1 1 1 2 4 8 7 4 6 4 8 6 9 12 15 14 20 25 27
11 7 6 4 18 7 1 6 6 2 1 2 5 3 2 5 6 8 6 4 4 2 2 2 4 2 4 1 3 3 5 7 6 3 10 4 11 8 3 9 15 21 26 27 28
10 14 19 1 4 6 6 6 8 6 1 3 6 4 3 1 4 10 8 11 6 5 3 2 6 3 3 2 2 5 9 10 5 5 7 8 8 6 6 14 21 23 27 28 27

GFSSW_850_spd_006.txt.gz
Wind_Speed
19 20 20 21 22 23 23 22 20 20 20 17 14 12 12 13 15 18 21 8 6 13 8 14 13 12 8 10 7 4 6 7 9 12 12 15 9 7 6 6 10 5 4 11 23
18 20 20 20 22 22 22 21 20 19 17 15 12 11 12 14 16 19 6 10 9 15 13 15 15 13 10 11 8 9 7 5 12 14 10 12 17 14 9 13 7 7 13 24 23
18 19 20 20 20 21 21 20 19 17 15 12 10 10 11 12 14 2 4 14 17 16 13 11 11 11 10 10 10 8 7 4 4 7 8 6 12 11 9 13 8 13 26 24 22
17 19 19 20 19 20 19 18 17 14 12 11 10 9 9 8 1 3 3 13 16 18 17 15 12 11 10 10 13 8 6 2 2 7 8 11 12 8 3 11 6 19 27 26 22
17 17 18 18 18 18 17 16 14 12 11 10 8 7 7 5 8 5 6 11 13 18 14 14 14 10 12 12 9 11 2 1 4 9 11 12 9 14 13 11 17 23 23 22 19
16 16 17 16 17 17 16 13 11 10 9 9 8 7 6 7 4 3 3 7 12 14 15 15 7 10 6 7 11 4 3 6 6 11 9 14 8 9 10 7 17 20 18 18 18
15 14 16 15 16 15 14 12 10 9 7 8 7 7 10 12 2 6 7 5 10 16 14 15 11 6 2 7 7 11 13 13 10 8 7 10 10 8 5 8 17 18 17 16 14
15 14 15 14 14 14 11 11 9 7 6 6 6 6 9 4 7 7 6 3 7 12 13 8 11 10 3 8 7 6 6 9 7 6 3 7 11 9 3 12 16 17 16 15 13
15 14 14 14 12 11 9 9 6 6 5 5 7 4 8 5 6 2 1 1 2 7 10 6 9 7 4 9 9 5 8 12 7 4 5 5 11 8 4 11 13 14 15 14 13
15 13 14 13 10 8 7 6 5 6 7 4 7 2 6 3 5 3 1 1 3 12 8 6 5 7 6 9 10 9 10 14 13 4 6 8 7 6 5 11 13 14 14 14 13
15 13 12 11 10 7 7 8 2 3 12 7 2 4 2 6 5 4 3 2 5 6 4 6 6 9 13 5 3 7 8 13 9 5 6 6 7 5 6 9 11 13 14 14 13
15 14 11 10 9 10 15 10 6 2 5 16 16 12 13 7 3 3 1 4 2 3 5 6 5 4 5 5 6 6 10 9 6 4 3 8 7 6 4 5 8 12 13 14 13
16 13 12 9 10 14 20 12 3 3 4 4 10 7 3 7 4 5 1 2 1 3 1 7 7 5 7 8 9 6 6 10 7 7 4 10 7 7 5 7 8 8 10 12 14
17 15 14 9 10 17 18 5 8 5 5 6 5 4 4 4 4 2 4 2 3 3 4 6 4 6 8 6 2 7 3 9 13 12 8 7 5 8 8 8 10 12 13 15 17
18 17 14 15 8 17 8 7 5 6 6 7 6 4 5 5 6 2 5 2 4 5 5 4 7 7 6 3 1 3 11 10 8 7 6 10 8 10 9 12 13 15 16 17 18
20 19 16 21 19 14 9 3 9 4 4 7 6 7 8 3 2 2 3 5 6 3 6 6 3 2 3 5 2 13 11 7 3 3 7 3 7 7 11 16 16 19 18 19 19
22 22 22 26 16 14 9 10 4 6 2 7 10 7 7 5 4 3 6 8 6 8 8 7 4 5 6 11 8 7 11 5 6 6 8 1 6 12 7 8 20 22 22 22 22
23 23 26 29 16 8 13 5 7 3 8 2 6 8 9 4 3 3 8 8 2 3 9 10 6 6 3 2 6 9 7 4 5 6 6 3 7 3 1 11 19 24 24 24 23
25 24 29 31 25 12 3 6 7 5 6 8 8 13 6 5 3 5 3 5 2 1 4 5 4 4 2 2 3 5 7 3 2 0 4 6 6 9 6 10 18 25 24 25 25
27 25 30 26 24 19 6 8 4 3 3 6 13 10 12 9 8 7 8 3 4 1 2 4 4 2 5 3 7 3 7 3 3 3 5 4 7 7 9 14 18 23 26 26 25
22 10 19 24 19 11 9 9 4 6 6 8 8 6 9 8 6 8 7 4 3 4 1 5 2 5 3 6 6 4 4 1 0 2 3 3 1 3 1 11 19 26 27 27 26
17 7 21 25 12 10 11 6 4 4 4 6 4 5 10 9 8 8 9 1 4 5 5 3 2 4 7 3 2 2 3 6 4 4 0 2 4 3 1 4 15 23 25 24 24
19 13 19 29 9 6 4 6 5 4 5 7 7 2 2 7 5 5 6 2 4 5 6 6 4 4 5 5 4 7 6 3 5 1 5 3 2 3 3 6 13 17 20 22 23
20 8 10 15 10 15 12 11 9 3 2 3 4 3 6 4 0 6 7 3 4 3 3 4 3 5 7 0 1 6 11 10 8 3 4 8 10 7 7 8 10 16 20 23 25
14 10 18 9 11 13 15 12 14 5 4 5 3 5 6 5 4 5 5 5 4 5 3 3 5 4 1 1 3 4 8 13 15 12 7 7 11 7 6 8 10 11 17 21 23
14 8 12 23 19 12 10 11 16 7 5 6 6 7 6 5 6 9 9 6 4 6 5 1 3 3 4 2 2 6 10 11 15 14 15 16 19 13 9 6 10 14 18 22 23
14 15 23 6 11 14 9 13 13 10 1 0 5 6 4 3 5 10 8 9 6 5 6 3 6 4 3 1 2 5 15 17 11 11 12 12 11 4 6 10 12 15 19 22 23

GFSSW_850_spd_012.txt.gz
Wind_Speed
18 18 19 19 20 21 23 24 25 26 26 25 23 20 19 18 19 20 24 10 7 10 7 5 13 13 11 16 17 18 11 14 20 20 8 16 13 7 21 6 8 9 13 9 20
18 18 18 19 19 20 22 24 25 25 25 23 20 17 15 17 22 22 8 9 11 8 11 8 13 13 15 14 19 15 11 18 17 14 10 20 19 35 6 16 7 7 28 18 21
18 18 18 19 19 20 22 23 24 24 23 20 16 13 11 15 14 2 10 6 9 11 10 9 10 12 15 19 18 17 16 9 15 19 19 25 31 13 5 7 12 21 27 23 18
18 17 17 18 18 19 21 22 23 23 20 18 13 10 9 10 5 10 9 5 7 13 12 15 14 12 15 16 16 14 19 16 10 10 17 6 22 13 18 8 27 17 18 23 17
18 17 17 18 18 19 20 22 22 22 18 15 10 8 8 6 11 7 5 3 8 14 9 12 11 12 15 16 11 13 17 2 5 14 8 25 9 17 16 14 23 12 23 23 18
18 17 17 17 18 18 20 22 20 19 15 11 7 7 6 8 2 5 4 3 6 13 7 8 8 10 15 13 12 9 14 6 6 8 20 12 5 14 18 14 19 20 21 22 19
18 17 17 17 18 18 19 20 19 15 12 8 6 7 10 15 1 1 4 3 7 9 13 7 11 9 5 12 8 3 9 2 2 4 5 17 11 11 19 18 20 20 17 16 17
19 18 16 16 18 18 19 18 16 12 7 5 5 6 11 1 8 10 10 9 8 13 13 12 7 13 13 16 5 10 10 7 6 10 5 8 13 12 24 18 19 21 18 16 16
20 18 16 16 16 17 18 15 12 8 4 3 2 4 11 6 10 7 10 11 7 8 10 9 4 10 14 10 9 10 8 6 7 19 6 9 16 16 20 22 21 22 21 21 19
19 18 17 16 16 16 14 11 8 6 3 3 5 5 13 10 11 6 5 6 4 6 4 7 6 6 8 7 4 7 6 15 14 13 9 14 16 13 16 36 34 23 23 21 19
19 18 17 15 15 14 10 6 7 4 11 12 2 12 6 6 5 9 8 7 4 8 7 8 5 5 7 7 2 8 16 16 14 10 10 13 14 16 18 26 23 19 22 20 18
19 18 17 15 14 13 11 7 7 7 11 17 20 16 16 6 8 15 12 11 11 7 8 4 7 7 11 8 15 14 13 9 10 7 10 10 13 16 14 15 16 20 25 24 22
20 18 17 14 14 15 15 18 3 16 7 12 22 19 16 14 16 16 15 16 8 6 9 3 11 9 13 16 18 14 3 7 7 8 7 8 1 13 15 14 16 19 19 22 25
21 19 17 11 10 9 11 4 9 5 5 9 15 15 17 11 17 20 9 14 7 5 9 5 19 17 15 15 14 7 13 6 8 6 10 13 6 10 16 14 13 19 21 21 24
23 20 18 11 8 9 3 5 5 5 4 14 19 17 17 17 14 12 9 11 10 4 5 4 13 14 10 6 5 7 15 9 12 11 2 13 6 6 14 13 15 14 18 20 21
25 22 18 19 20 14 6 6 6 4 6 9 14 12 15 16 16 5 17 15 12 5 3 5 17 10 6 5 2 8 8 15 10 9 2 8 10 7 12 23 4 16 14 15 20
26 24 23 18 4 6 13 4 5 7 6 9 14 15 16 14 13 10 14 16 10 9 9 7 17 4 10 7 5 8 9 7 3 5 7 13 9 8 20 14 15 24 24 20 19
27 24 25 24 14 4 8 5 12 13 19 2 14 16 17 15 13 12 14 15 16 15 10 11 14 11 9 9 6 14 10 4 6 4 10 5 4 4 16 33 44 39 24 22 22
28 25 28 29 23 9 8 10 10 12 20 9 13 13 17 16 9 11 15 17 18 18 12 4 4 11 2 6 3 5 9 8 4 16 6 4 14 15 8 10 7 23 23 22 20
31 22 33 30 26 13 8 17 18 21 6 13 15 15 16 15 10 12 14 16 19 15 16 11 7 20 6 4 5 6 9 3 3 3 5 8 9 3 4 5 2 13 19 21 21
22 11 16 29 26 15 11 17 20 28 9 6 15 16 17 13 15 12 9 9 6 8 4 7 19 7 7 8 10 7 8 8 7 4 1 4 2 7 7 5 5 7 20 21 23
27 7 19 33 15 18 14 21 28 22 11 9 13 16 15 13 14 13 6 14 12 7 7 8 3 3 8 5 4 9 9 12 3 5 2 0 6 4 4 3 2 6 14 24 26
30 19 31 34 12 12 19 25 27 23 14 15 12 15 10 11 9 11 6 4 5 4 1 2 3 4 8 8 7 8 12 9 4 3 4 3 4 4 3 1 3 5 9 18 24
26 9 15 26 24 20 23 23 23 29 16 16 15 12 8 10 8 9 7 3 4 3 4 4 5 8 7 11 7 13 12 12 11 3 3 8 14 8 11 9 9 7 9 11 19
20 13 16 11 19 18 21 19 24 16 16 20 17 18 12 9 10 9 8 7 4 3 1 2 7 11 14 16 2 12 7 11 13 10 10 10 14 11 9 5 3 3 11 10 15
18 16 24 19 27 21 21 26 25 21 16 13 14 13 14 10 10 11 12 8 7 8 8 4 2 4 3 10 14 12 14 13 14 12 13 14 13 9 11 11 9 7 7 6 12
32 23 19 22 21 19 19 23 24 19 20 18 19 15 15 8 12 12 11 7 5 10 9 7 3 2 2 5 7 5 8 15 15 14 10 10 9 7 2 1 8 7 9 7 12

GFSSW_850_spd_015.txt.gz
Wind_Speed
16 17 18 18 19 20 21 23 24 25 26 27 25 20 19 18 17 18 15 9 5 5 8 4 4 11 6 17 18 18 3 5 6 5 2 8 2 7 19 17 13 12 8 22 22
16 18 17 17 18 19 21 23 23 25 26 26 22 18 16 17 18 10 9 9 8 4 6 6 4 5 6 10 9 6 2 4 3 6 4 2 10 8 5 22 11 14 11 13 15
17 17 16 16 17 18 20 23 23 25 25 24 19 15 13 15 10 2 13 11 1 5 6 8 10 10 14 18 23 11 7 5 6 7 14 8 11 4 3 3 26 25 25 15 20
18 17 15 15 17 18 20 22 24 24 24 21 15 12 11 9 2 6 9 8 4 7 9 8 10 12 7 7 24 5 17 16 8 13 9 8 7 11 11 8 26 24 26 20 21
19 18 16 15 16 17 19 21 23 23 21 17 12 10 9 6 7 6 7 7 5 9 10 9 10 16 7 7 15 8 8 14 14 15 12 15 16 11 14 23 28 19 20 19 23
19 18 16 15 16 16 19 20 22 22 18 14 9 8 7 6 2 2 6 2 5 9 6 10 11 12 17 11 6 10 13 5 7 15 9 14 10 10 8 13 16 18 21 26 26
19 18 17 16 16 16 18 19 20 18 14 10 8 8 10 15 6 6 6 2 4 3 5 8 14 16 18 9 23 7 3 1 5 15 3 10 4 5 19 15 14 17 24 29 28
19 18 17 16 16 16 17 18 18 15 10 8 7 7 9 3 10 10 11 8 4 5 11 8 13 14 9 15 14 4 4 2 5 5 9 9 6 9 27 25 21 25 23 28 27
20 19 18 16 15 16 15 16 15 11 9 7 3 6 11 5 10 5 10 15 11 11 10 15 10 5 7 4 5 3 2 5 2 18 3 4 7 16 27 27 25 25 22 26 25
21 20 19 16 15 15 14 14 12 10 9 8 8 8 10 9 12 4 9 11 7 7 3 5 2 2 2 2 2 5 8 3 7 6 4 6 6 12 22 24 13 13 14 24 23
20 20 19 16 15 15 13 10 7 3 7 12 5 10 6 7 13 10 11 8 6 7 3 7 2 5 9 2 6 4 2 7 8 10 6 8 10 11 15 22 24 11 3 15 27
21 19 18 16 15 14 13 7 12 7 12 19 24 28 19 12 6 9 14 12 10 6 4 0 4 7 1 8 7 9 7 10 9 6 5 2 7 12 14 13 28 27 36 31 30
23 20 17 15 14 14 14 15 9 12 4 14 20 22 19 10 10 15 17 19 6 6 1 3 4 6 4 13 6 4 6 3 5 3 3 5 5 3 3 13 20 36 37 36 35
25 21 18 12 10 8 4 7 4 8 3 6 12 12 15 19 12 18 19 18 6 6 5 5 6 6 8 11 8 3 4 6 3 5 2 5 1 5 5 9 6 33 38 38 36
27 22 19 12 7 9 2 3 5 3 3 6 12 8 14 15 3 13 18 1 3 2 4 6 2 6 10 13 6 6 7 2 2 4 7 4 4 5 1 12 13 8 18 36 38
30 23 20 20 21 10 3 4 8 1 6 5 12 11 10 17 16 16 16 10 5 5 2 7 7 3 4 6 6 2 2 3 3 3 3 7 6 4 10 18 9 3 13 13 36
31 26 25 21 14 7 14 5 2 4 6 6 13 10 11 7 8 5 5 4 5 4 3 4 5 5 7 3 3 1 3 3 4 5 3 13 4 10 12 15 12 15 22 13 29
31 27 27 26 19 10 11 3 7 10 11 2 9 12 10 8 10 9 6 8 9 6 4 4 5 6 3 5 6 3 6 5 5 1 5 4 4 6 15 27 27 31 24 22 22
31 28 30 29 24 12 9 9 8 7 13 4 8 9 9 11 7 8 9 9 11 9 7 4 1 7 14 10 4 3 1 5 6 4 2 4 9 6 9 7 11 20 19 18 22
29 32 37 31 27 17 6 11 6 15 10 8 8 8 8 10 4 9 9 9 9 14 11 6 3 1 13 17 9 4 3 5 3 5 4 3 4 1 4 7 11 8 16 26 24
27 17 23 31 28 16 11 9 13 28 21 7 11 8 9 7 17 7 7 10 13 6 12 6 5 5 6 9 9 1 3 3 3 5 4 1 5 3 5 3 11 17 30 33 31
23 8 19 33 13 9 12 10 15 20 22 14 2 5 7 6 8 9 9 4 17 10 10 7 5 3 11 14 7 6 4 6 5 4 2 4 5 3 6 3 6 14 31 36 36
14 15 27 39 12 11 8 14 19 19 19 7 3 3 2 4 4 7 5 5 5 6 5 2 1 2 6 5 6 4 5 4 4 3 5 5 5 2 5 4 2 5 6 31 35
15 8 16 28 24 18 17 17 20 22 21 22 6 8 5 8 16 9 2 3 6 4 5 5 2 6 6 7 3 3 5 6 5 4 3 5 5 11 6 8 9 7 5 9 32
16 11 15 11 18 10 19 15 21 14 19 18 7 8 7 4 2 5 5 3 3 5 3 5 4 1 3 5 5 1 5 7 5 6 7 7 6 10 1 3 5 14 8 5 6
10 18 23 7 25 16 19 20 25 20 16 14 6 10 7 5 7 5 8 5 6 2 4 1 2 2 2 5 7 4 8 7 6 3 2 5 6 3 11 15 13 12 13 5 2
28 22 26 14 18 17 22 22 21 20 18 21 10 5 7 5 11 13 10 16 8 7 5 5 5 3 3 4 6 6 7 5 6 5 3 5 7 5 8 11 15 13 11 12 5

GFSSW_850_spd_018.txt.gz
Wind_Speed
14 15 17 17 17 18 19 20 21 22 23 25 24 22 20 20 17 16 9 8 6 3 6 4 5 9 7 3 7 9 2 3 2 4 4 11 6 5 1 10 10 7 12 28 27
15 16 17 16 16 16 18 19 21 22 23 24 22 19 18 18 17 3 11 8 5 2 4 6 7 8 4 3 3 4 3 7 5 1 3 3 17 9 2 8 10 26 29 26 23
15 16 17 16 14 16 17 18 19 21 23 22 19 17 16 15 10 5 10 9 2 6 9 9 6 5 4 4 4 3 5 4 4 5 13 11 7 12 4 4 9 30 32 28 29
15 16 17 16 15 16 17 18 19 20 21 19 17 14 14 11 2 5 7 7 4 8 9 6 4 3 3 3 5 2 13 12 11 14 8 7 12 6 7 5 17 28 26 29 29
16 16 16 16 15 15 16 17 19 20 19 17 14 12 11 7 5 3 6 5 7 9 9 5 2 2 2 5 3 7 10 20 20 17 10 9 6 3 9 18 27 29 27 31 39
17 17 17 16 14 15 16 17 18 19 17 14 12 11 10 4 1 2 6 2 6 8 7 7 3 13 11 4 3 13 12 6 21 20 8 10 4 4 9 21 24 24 26 26 30
18 17 17 16 15 14 15 16 18 17 15 12 10 10 13 12 4 2 1 5 2 4 8 5 8 8 10 8 16 14 4 7 8 15 6 13 3 5 25 24 24 23 25 27 22
20 17 17 17 16 15 15 16 17 15 13 10 9 10 10 5 12 12 7 7 5 4 8 4 10 13 5 9 8 4 4 4 5 10 10 9 5 4 26 25 23 22 22 25 30
20 17 17 17 16 15 15 15 17 14 12 8 7 7 10 11 13 10 14 7 7 8 4 11 10 6 6 3 5 5 0 2 6 9 4 4 2 7 19 24 24 25 23 28 32
22 19 17 17 16 15 15 15 16 13 12 8 10 7 11 6 13 12 12 8 9 6 11 5 1 3 3 4 2 1 4 2 4 6 5 5 3 7 17 25 25 28 29 31 37
22 19 18 17 15 15 14 11 7 3 6 9 4 10 7 5 7 13 12 13 10 6 3 2 4 3 6 8 4 5 2 5 5 4 4 8 10 9 19 26 20 25 31 31 39
22 21 18 17 14 14 12 8 3 5 12 19 21 26 26 19 10 8 15 11 8 5 2 3 4 6 7 1 5 4 6 8 7 9 4 7 9 3 6 22 29 29 30 38 39
24 21 18 16 14 13 10 9 8 13 6 14 17 21 22 11 10 12 12 17 6 5 7 6 6 1 4 5 3 5 3 4 5 4 6 8 4 3 5 5 12 23 33 37 39
27 24 21 13 11 9 1 7 1 8 2 6 8 10 14 11 6 17 16 10 4 9 7 4 2 5 2 4 3 6 12 6 2 4 4 2 3 5 5 7 14 28 29 31 37
27 25 23 15 8 8 5 7 7 2 3 5 7 5 13 12 3 9 18 10 10 3 6 6 4 4 4 6 4 10 7 2 1 5 4 0 5 7 0 8 12 19 37 37 39
29 27 24 21 19 9 8 2 5 4 7 4 10 8 7 11 7 2 11 14 5 5 1 4 2 5 7 7 8 3 2 5 5 4 3 7 5 5 5 14 9 14 32 43 43
31 28 28 21 18 15 12 3 3 4 5 5 6 8 8 7 5 6 3 4 5 3 2 1 4 3 2 0 3 4 5 3 3 4 4 4 2 8 8 11 14 12 20 36 41
31 30 28 25 15 13 13 2 10 8 8 4 7 10 9 7 8 6 5 6 2 4 3 4 4 3 4 4 3 5 7 5 4 3 4 3 5 6 7 16 26 20 12 19 40
28 31 29 32 24 15 12 9 6 6 5 4 2 8 6 6 7 7 9 8 9 9 7 5 4 5 5 3 5 3 2 3 6 3 1 3 5 8 7 7 2 7 13 16 26
32 30 32 33 25 19 7 15 7 10 6 2 7 7 9 9 8 8 8 7 7 10 10 6 3 2 4 4 1 3 3 3 3 4 2 4 5 4 2 3 5 5 12 16 22
29 17 20 37 25 15 12 12 16 30 13 4 5 3 9 8 10 7 8 6 8 6 10 5 3 5 3 4 9 4 3 1 4 4 4 1 5 5 5 7 8 15 23 22 28
32 8 28 40 14 12 16 12 12 24 14 8 5 10 9 10 8 8 10 7 8 13 9 8 5 4 9 7 7 2 6 5 5 4 0 4 5 4 8 5 11 15 22 25 32
20 16 32 41 11 14 7 18 22 13 6 5 5 7 3 5 5 4 4 4 9 5 8 7 2 2 6 3 3 6 6 4 5 4 6 5 5 4 5 6 8 13 22 28 33
17 9 15 27 30 21 19 15 20 22 20 16 8 6 2 3 2 6 4 3 4 11 6 10 4 7 7 7 4 3 3 5 5 4 4 6 5 7 7 9 10 9 8 24 34
23 10 18 14 19 15 20 14 21 14 17 14 10 16 8 5 2 3 5 2 2 8 4 4 5 4 4 2 2 0 2 1 5 5 6 9 8 9 6 5 9 12 6 6 12
19 8 25 5 24 20 19 23 25 20 13 18 12 12 8 6 8 8 8 6 6 2 5 2 3 1 4 3 1 3 5 4 4 3 5 5 6 1 10 13 17 14 13 13 12
39 22 26 16 19 19 20 24 26 19 19 37 11 12 5 9 9 17 21 16 11 7 3 4 6 3 5 4 5 5 7 6 5 3 5 5 4 4 7 10 10 13 14 12 12

GFSSW_850_spd_021.txt.gz
Wind_Speed
13 14 15 16 17 16 16 17 17 19 21 22 24 23 21 19 17 12 7 9 7 1 6 4 4 9 8 6 6 4 4 3 4 4 5 3 2 3 8 8 6 5 13 24 20
13 13 15 16 16 15 15 16 17 18 20 22 23 21 19 17 13 4 9 8 6 3 6 6 11 11 5 4 7 4 4 6 6 2 4 2 3 10 6 11 8 18 23 26 26
14 14 15 15 16 15 15 16 17 18 20 21 21 19 17 14 8 3 8 9 3 6 9 8 9 4 1 2 7 5 4 5 8 10 5 3 5 4 14 4 7 28 30 28 23
17 15 15 15 15 15 15 16 17 18 20 20 19 17 15 9 1 4 7 4 5 9 10 7 4 2 1 3 4 2 12 10 8 9 5 5 5 3 4 4 21 28 28 24 24
20 17 16 16 16 15 15 16 17 18 20 19 17 16 12 5 4 2 5 2 5 10 10 6 3 2 3 3 2 3 6 9 20 13 7 11 6 6 7 19 32 29 28 26 28
23 20 18 17 16 16 15 16 17 18 19 18 15 14 9 5 1 2 4 1 3 8 8 6 1 6 9 6 3 9 8 6 7 12 10 7 4 5 11 28 28 26 31 29 30
23 21 20 17 17 16 15 17 17 18 18 16 14 14 12 13 6 6 3 2 2 4 6 3 4 7 9 6 8 7 2 4 1 8 4 12 4 6 24 27 29 23 32 30 30
25 22 21 17 16 16 16 16 18 18 17 15 13 13 9 4 14 11 8 6 5 5 7 6 6 11 4 9 8 3 5 4 0 6 4 4 2 3 24 29 25 24 27 29 26
23 24 21 17 16 16 16 16 18 18 16 14 11 8 10 7 14 9 12 9 6 7 10 8 4 3 4 2 4 6 3 3 2 5 6 1 2 6 25 23 23 27 28 27 25
20 22 19 17 16 16 16 16 18 16 13 12 12 7 8 3 8 12 12 12 11 7 9 3 1 2 3 3 1 3 2 2 5 4 5 6 6 8 27 21 26 27 27 27 30
22 19 18 17 17 16 15 11 9 5 6 9 2 7 10 5 6 14 12 13 8 4 2 1 4 4 6 6 3 5 1 2 4 6 3 7 7 13 20 19 21 27 31 32 33
22 20 15 17 17 15 13 8 6 3 11 16 19 26 27 26 8 9 11 11 7 4 2 3 3 8 5 1 3 1 4 5 5 3 5 7 3 1 9 14 25 31 33 37 37
24 20 16 17 15 15 11 4 9 9 7 12 16 19 21 15 10 12 10 12 4 5 6 5 5 3 2 3 4 4 1 3 4 3 5 7 4 3 3 4 16 27 36 37 39
26 23 16 17 15 16 6 2 5 7 3 6 5 8 14 9 5 18 12 13 2 10 5 5 5 3 1 1 4 5 2 4 3 1 3 3 3 6 6 10 7 21 25 37 40
29 25 21 19 9 8 8 6 10 4 3 4 5 3 18 17 5 15 21 11 6 5 6 8 3 4 4 7 4 8 5 4 1 3 5 1 4 6 6 11 15 21 31 37 41
27 27 21 23 24 10 9 2 4 5 7 5 9 7 7 10 4 2 16 15 6 5 3 6 3 6 8 3 5 2 2 7 5 3 2 3 5 4 6 19 21 24 29 39 40
25 28 27 27 25 16 13 5 2 4 4 5 6 7 6 6 4 4 4 5 6 3 3 2 2 3 4 1 1 3 5 2 2 3 4 2 2 8 8 10 13 16 32 36 38
25 29 30 28 25 14 11 3 9 7 8 6 2 4 8 6 6 6 5 4 2 3 3 5 4 3 2 3 5 3 6 5 3 3 3 3 4 6 5 12 18 20 23 28 30
23 29 28 32 27 17 12 11 6 6 4 4 3 5 4 4 6 6 8 7 9 8 7 5 5 0 2 4 5 1 2 3 6 3 3 3 6 10 7 2 3 8 12 17 22
28 31 29 34 29 22 8 16 7 7 3 5 8 5 8 7 7 7 8 5 6 10 8 7 1 1 4 2 2 4 5 2 3 2 3 4 4 5 7 6 6 5 13 15 15
27 15 22 33 31 15 13 12 15 23 4 3 4 3 7 7 9 6 7 5 6 5 6 6 4 4 2 5 8 0 2 4 4 4 4 1 5 7 7 4 7 7 12 16 18
27 7 24 39 13 11 15 8 9 20 12 4 3 6 5 8 8 9 11 10 15 15 9 7 6 4 8 3 2 4 5 5 4 4 2 3 6 5 8 5 8 12 12 9 20
22 13 30 41 12 16 9 19 16 9 7 6 5 4 1 7 6 7 7 7 15 9 9 8 1 2 7 5 1 2 4 5 4 3 6 5 6 1 5 7 10 11 14 16 12
18 8 16 33 38 17 19 12 23 17 15 4 3 3 2 3 2 7 5 2 7 2 16 13 4 8 9 8 4 3 5 5 5 3 4 6 6 6 7 8 9 13 12 11 13
16 11 16 15 24 21 19 15 19 16 17 16 6 8 3 4 1 4 3 4 3 9 1 4 6 5 3 4 4 4 5 6 7 6 6 8 8 8 4 7 10 11 5 2 5
15 10 25 5 27 25 17 23 25 23 7 10 16 6 12 9 8 9 6 4 6 2 3 2 3 4 3 2 3 4 7 7 5 3 7 4 6 5 2 8 13 8 11 14 13
36 18 22 16 18 19 28 23 27 17 21 20 19 11 5 11 21 21 9 13 12 10 5 5 7 4 4 2 2 6 8 8 6 5 6 6 8 5 4 6 13 20 18 16 13

GFSSW_850_spd_024.txt.gz
Wind_Speed
15 15 16 17 16 17 16 15 16 17 18 20 22 22 21 19 14 7 7 8 5 1 4 4 5 8 8 6 3 2 4 2 4 1 3 1 1 1 5 11 8 3 9 21 18
18 17 17 17 17 17 16 15 16 17 19 19 22 21 20 17 8 4 8 8 3 2 6 5 8 11 3 1 2 3 3 6 5 2 2 2 1 4 4 7 8 17 19 18 20
19 19 18 18 18 18 17 16 17 18 19 20 21 20 18 13 4 3 9 8 1 5 9 8 8 5 3 5 4 2 4 4 9 11 4 4 2 3 12 4 5 23 22 19 19
23 21 19 19 19 18 17 17 17 18 19 20 21 18 16 9 2 3 7 4 6 8 10 10 6 4 2 2 7 3 12 9 11 4 3 3 7 5 4 3 15 21 21 25 18
24 24 23 21 20 19 18 17 17 18 19 20 20 17 15 6 3 2 4 3 5 8 9 5 3 1 1 3 2 3 5 8 11 5 3 6 8 6 5 18 21 23 23 19 22
25 24 23 22 21 20 19 17 18 19 19 19 19 16 12 6 5 3 0 2 5 10 8 4 2 5 5 5 4 6 9 8 4 9 8 8 5 3 6 20 21 21 20 22 24
26 24 23 22 22 20 19 18 18 19 19 19 18 15 16 17 8 8 4 3 4 6 4 4 5 6 8 4 5 7 3 5 3 7 4 13 5 4 19 22 19 21 22 26 26
24 25 23 21 21 20 18 18 19 19 20 18 17 14 11 6 15 13 8 4 2 4 5 5 5 12 4 7 6 5 2 3 2 4 4 2 2 5 21 21 15 19 25 27 25
20 23 22 19 21 18 17 19 19 21 20 18 14 8 10 6 13 13 12 7 4 5 6 6 6 3 4 3 4 6 1 1 1 8 3 4 4 9 24 21 18 20 27 26 27
21 20 20 17 19 18 17 19 19 19 17 12 13 6 10 3 6 9 10 11 9 3 5 5 0 2 3 4 2 3 1 1 2 4 2 3 4 7 26 21 21 22 25 30 29
22 20 19 18 17 16 15 15 10 8 5 9 2 6 9 3 7 9 10 10 8 2 2 2 4 5 8 6 2 1 2 1 2 3 5 5 5 10 18 17 15 23 25 27 29
24 22 20 16 16 17 13 10 7 8 12 18 19 28 28 25 7 9 12 8 7 5 3 5 5 8 5 3 4 5 2 2 2 3 1 4 4 2 9 16 24 28 29 31 29
25 23 20 13 14 17 12 11 10 11 7 13 18 18 25 18 10 11 17 12 4 6 4 5 5 1 5 4 4 3 1 2 3 2 4 6 5 2 4 7 18 26 31 31 34
24 24 18 11 14 16 13 6 11 5 4 6 6 8 15 11 5 17 17 12 2 8 8 5 4 5 5 5 5 1 3 0 4 3 2 1 3 5 6 8 7 22 32 35 34
26 23 20 16 8 4 4 2 6 6 4 3 4 4 16 18 8 15 15 10 8 6 6 7 3 4 3 6 4 4 5 2 3 3 4 1 4 6 2 9 14 20 35 40 40
24 23 20 22 24 13 9 3 2 4 7 5 7 6 7 7 4 8 14 9 6 5 1 6 1 3 5 3 3 4 3 5 4 3 2 3 4 5 5 15 17 17 29 39 40
23 22 28 25 24 19 13 7 2 5 4 4 5 5 5 6 5 4 7 7 6 5 3 1 3 3 3 3 4 6 5 3 3 3 4 1 1 8 8 9 8 12 28 40 44
28 23 31 28 22 16 10 4 9 6 11 4 2 4 9 5 6 4 6 6 2 5 3 6 5 3 1 4 6 4 7 5 3 2 3 2 4 5 5 4 13 21 30 27 37
24 26 29 35 26 22 10 9 5 5 4 3 4 4 4 5 5 5 8 8 8 7 7 5 5 2 2 2 4 4 3 4 7 3 3 3 7 9 4 5 5 4 6 15 22
31 29 34 35 29 26 7 16 9 5 2 2 5 5 9 6 6 9 8 6 7 10 6 7 0 1 2 2 1 4 7 4 3 3 3 4 4 5 8 6 5 6 8 7 11
32 15 16 34 32 16 15 13 19 21 4 2 2 4 5 7 8 6 10 3 8 5 6 5 4 3 0 5 7 2 2 5 5 4 4 1 5 7 7 5 5 6 7 6 9
30 7 22 40 17 15 19 10 20 21 13 6 2 4 5 6 6 7 10 10 15 14 9 6 6 5 8 1 2 3 6 6 5 4 1 3 6 5 8 7 8 11 6 6 6
17 12 31 45 13 16 12 21 10 17 11 6 5 5 2 2 3 7 7 6 16 8 9 8 1 1 8 4 2 3 4 4 5 3 6 5 6 3 6 8 14 10 9 8 6
11 8 17 40 36 18 22 16 23 13 7 5 2 3 1 4 4 4 7 2 14 11 7 12 4 9 10 7 5 4 6 5 6 4 4 6 7 7 8 8 11 12 10 11 8
17 8 14 13 24 17 22 15 21 17 19 16 3 6 3 2 2 4 2 3 3 6 5 7 7 5 6 6 5 6 5 8 7 6 6 7 7 9 7 7 10 10 6 3 1
14 8 16 4 27 22 16 24 25 23 10 10 8 8 7 5 5 1 1 4 6 5 5 0 4 4 2 3 2 4 6 7 5 4 4 5 7 7 3 3 1 4 10 15 15
28 21 10 17 19 19 28 20 21 17 21 12 18 11 3 16 23 22 16 10 4 7 8 7 7 4 4 2 3 6 7 8 6 5 7 7 10 5 2 3 7 14 17 17 16

GFSSW_850_spd_027.txt.gz
Wind_Speed
17 17 17 17 18 19 18 18 17 17 18 19 19 21 22 19 12 5 5 6 3 1 6 9 11 10 7 4 2 1 1 3 2 2 4 1 2 2 4 6 2 2 6 16 19
19 18 18 18 19 20 19 19 19 19 19 19 19 21 19 17 8 1 5 7 2 3 6 8 11 11 5 4 3 2 1 4 4 3 2 2 3 5 3 4 4 10 14 22 19
22 20 19 19 19 20 20 20 19 20 20 20 20 20 18 14 2 0 6 5 2 6 7 9 13 7 3 4 4 4 4 4 5 12 4 3 3 4 8 2 7 18 25 22 19
22 21 22 22 20 19 20 20 20 20 21 20 20 19 17 9 2 1 5 1 7 9 11 11 9 2 2 2 4 3 10 9 4 2 3 4 7 5 2 2 4 17 20 23 22
24 23 22 20 21 20 19 19 20 19 21 20 20 19 15 7 5 3 1 4 9 12 10 6 6 2 1 3 2 5 6 4 7 2 5 6 5 5 5 9 15 17 19 18 22
27 25 23 21 21 19 18 18 20 20 20 20 20 19 13 6 6 5 3 6 9 13 10 5 2 2 2 4 4 2 6 10 2 7 7 8 3 3 2 11 14 13 14 12 16
23 25 24 21 21 19 18 17 19 20 21 19 19 19 16 16 8 9 7 8 9 10 7 2 2 2 6 3 5 6 3 2 2 5 4 12 5 4 9 12 11 11 13 15 17
21 22 24 21 20 21 17 16 18 21 21 21 19 18 10 9 14 14 11 9 8 9 6 3 2 6 3 7 4 2 2 1 0 2 1 3 2 4 11 15 13 13 17 16 15
20 20 21 18 18 18 19 16 18 21 23 20 16 9 9 7 14 16 15 7 6 7 6 5 4 2 1 3 3 4 0 2 2 7 4 1 3 10 15 12 15 14 18 18 18
21 18 19 17 16 15 16 14 18 20 19 14 14 6 13 5 8 12 17 14 6 7 5 5 2 0 1 1 1 1 1 1 3 4 3 3 1 13 18 16 13 14 16 20 20
23 20 18 16 15 13 13 11 11 6 6 9 4 6 3 4 8 12 15 16 11 6 4 2 2 6 9 6 3 2 1 1 1 1 3 7 5 14 19 16 14 15 17 21 26
25 24 19 15 14 10 11 8 8 8 11 18 20 28 28 15 5 11 16 12 9 4 5 2 5 5 2 2 5 3 1 0 2 4 4 2 4 5 15 19 20 18 18 23 26
23 25 22 16 13 12 10 10 11 9 6 12 18 18 25 19 12 14 21 12 6 6 8 4 4 5 5 2 5 4 3 3 2 2 3 3 2 5 8 14 13 19 20 22 25
23 19 20 14 12 11 10 6 9 10 3 6 6 7 14 12 6 18 25 13 3 10 9 5 1 4 4 4 4 3 8 2 4 2 2 1 3 4 7 10 13 20 23 28 29
24 21 18 18 9 6 5 2 4 4 4 3 4 4 11 16 11 18 24 9 8 7 6 5 6 4 3 6 7 5 4 2 3 3 1 1 1 3 1 10 17 25 26 29 31
29 25 21 23 23 14 12 5 4 1 7 2 7 6 7 6 4 10 11 8 6 4 1 4 2 5 5 2 5 6 2 6 3 2 1 2 3 3 4 10 10 21 25 34 35
31 25 24 26 23 22 12 2 3 6 3 2 3 4 6 5 3 5 9 6 6 5 4 1 3 1 3 2 1 3 3 2 1 1 3 2 2 7 7 6 9 13 21 33 40
29 25 26 30 17 22 16 3 9 6 10 1 2 3 7 6 5 3 8 11 3 4 3 6 3 6 4 5 6 3 5 4 3 3 2 1 4 4 4 7 13 14 16 18 28
27 29 30 30 28 21 18 11 8 9 5 2 2 1 4 4 6 4 6 12 10 7 5 5 4 2 2 2 2 4 3 1 6 2 1 2 4 9 2 3 5 6 5 7 14
34 31 36 30 30 29 9 18 8 6 5 4 6 4 8 7 7 12 7 5 6 9 5 7 2 1 0 3 5 2 7 3 1 4 3 2 3 3 5 5 3 6 8 6 5
35 19 17 29 33 21 14 13 8 11 5 4 3 3 4 5 7 5 10 3 8 7 4 4 3 1 2 4 8 3 2 3 4 2 3 3 4 6 6 4 5 7 7 6 4
28 7 17 25 20 14 19 11 7 11 5 2 3 4 3 3 6 7 11 9 18 16 9 6 5 4 6 1 1 3 4 4 3 4 1 1 5 3 9 6 8 10 5 2 2
18 14 20 36 14 16 14 15 9 8 10 7 5 5 1 1 3 6 6 6 17 9 10 7 1 2 2 1 2 3 4 4 4 3 6 4 5 1 5 7 8 13 8 7 5
15 8 17 35 43 22 18 20 19 19 11 7 4 3 2 3 3 2 5 3 15 7 13 15 4 6 10 6 5 4 6 6 5 3 4 6 6 8 8 7 12 10 10 8 6
16 7 16 14 23 22 20 14 26 12 11 19 6 12 2 5 3 4 2 1 3 6 6 5 7 6 5 5 6 6 5 10 10 7 7 8 9 9 7 6 6 8 4 2 5
11 8 13 18 36 25 14 21 26 24 16 13 9 14 14 7 7 5 4 2 3 1 6 1 5 5 3 3 6 5 7 10 10 2 8 7 8 10 5 4 1 2 9 16 18
28 25 18 17 21 18 24 19 18 20 15 15 15 3 7 17 17 14 16 10 6 3 2 4 7 4 4 2 3 5 7 10 5 5 5 8 11 5 5 5 8 12 15 19 20

GFSSW_850_spd_030.txt.gz
Wind_Speed
18 17 16 16 15 15 16 17 18 17 18 19 19 22 23 21 14 5 2 3 2 2 6 8 12 7 4 4 3 2 5 1 3 7 8 7 4 1 1 2 4 0 1 8 17
14 18 18 17 17 17 16 17 18 19 19 19 19 20 22 21 13 4 3 3 2 4 8 10 10 10 5 5 4 7 5 2 4 6 9 8 5 1 4 5 7 7 7 17 17
21 21 20 19 19 19 18 17 18 19 19 19 19 19 20 18 8 4 4 2 4 7 9 9 10 8 4 4 4 1 7 5 6 6 6 4 6 3 4 4 2 11 19 18 17
25 24 22 21 21 20 20 18 18 18 19 19 19 19 18 12 2 3 3 2 7 9 11 11 9 7 3 4 2 8 5 7 8 8 1 5 5 1 4 6 6 15 19 16 15
25 26 25 23 22 20 19 18 17 18 19 20 19 19 17 8 8 7 3 6 10 12 10 8 7 4 2 2 3 10 8 7 8 2 1 4 3 3 6 8 14 15 14 16 16
20 21 23 24 24 22 21 18 17 17 18 19 19 18 15 10 7 7 6 9 12 13 9 7 3 1 2 5 5 4 12 10 1 6 5 5 4 4 5 10 13 12 14 15 12
20 19 18 20 23 23 21 19 18 18 19 19 18 18 17 16 8 9 9 9 13 12 8 6 3 3 2 4 3 10 7 3 6 8 3 8 5 6 10 10 10 10 14 20 14
21 20 18 17 19 21 20 18 19 18 20 20 17 16 10 12 10 13 12 10 12 13 7 5 4 4 3 5 5 5 4 3 6 6 4 7 7 8 9 11 11 14 17 14 13
23 21 19 18 16 18 17 17 16 19 21 20 14 7 8 9 13 16 15 7 9 11 10 6 5 5 4 7 8 6 4 2 4 7 3 8 5 10 11 10 12 14 14 15 15
23 21 20 18 14 15 14 14 14 18 20 16 13 7 13 5 7 14 19 13 3 9 5 8 8 8 7 8 7 3 6 5 9 9 8 6 3 10 13 11 12 14 16 16 16
24 23 21 18 15 12 12 9 7 5 7 10 3 6 2 4 9 11 18 17 9 9 11 10 10 11 12 7 2 3 4 5 1 4 5 6 5 10 14 15 14 15 17 17 18
21 22 20 17 15 12 9 5 4 5 11 18 22 25 20 5 5 12 16 15 13 14 9 6 12 6 4 6 8 8 6 4 4 2 5 6 8 6 15 16 16 16 16 18 18
22 20 17 16 13 15 11 9 9 5 7 12 17 17 16 22 14 20 23 16 17 16 14 13 4 5 7 7 9 8 8 4 3 2 4 5 8 11 12 15 15 17 17 18 20
23 21 16 12 12 13 12 9 7 3 5 6 8 10 14 14 13 21 27 21 8 17 12 11 4 7 7 7 9 10 9 3 4 5 4 4 4 7 10 15 15 19 21 21 22
22 25 19 16 8 8 6 8 5 7 7 6 5 5 9 22 14 21 27 16 18 13 9 9 10 10 9 8 9 5 8 4 4 3 4 6 6 7 5 12 17 23 24 25 24
25 23 22 18 21 15 15 12 8 5 9 4 7 9 9 18 10 20 19 15 15 13 13 10 3 5 6 3 8 8 7 4 3 2 6 4 6 5 7 8 6 14 25 28 28
39 26 26 21 17 13 18 8 6 9 3 7 7 8 14 12 12 17 21 22 17 17 17 16 13 6 6 7 6 13 10 9 7 6 7 3 5 9 4 4 7 7 10 22 29
38 31 29 27 22 12 15 6 13 12 17 3 4 10 11 13 14 15 22 22 24 21 14 15 15 13 10 12 9 17 16 8 6 6 4 4 6 3 0 2 9 11 11 12 17
29 36 31 29 27 18 19 14 15 19 19 8 8 8 11 12 8 14 20 26 25 22 17 16 17 5 5 4 7 7 11 3 3 1 4 5 5 10 5 3 3 3 3 5 9
30 31 35 28 29 29 8 25 17 14 12 17 23 11 11 15 14 16 17 19 25 24 20 9 12 7 7 6 4 7 11 6 5 6 7 6 5 4 4 1 1 3 3 2 2
28 17 24 33 31 16 10 25 29 19 16 12 13 19 12 10 17 15 14 7 23 20 20 13 11 7 7 11 13 5 6 3 3 3 6 5 5 2 5 4 4 2 3 5 4
30 10 21 40 17 13 11 32 37 25 22 10 9 11 10 12 13 18 19 14 20 25 22 20 11 12 12 3 6 9 12 13 7 8 1 3 7 5 8 6 6 7 4 4 5
25 16 28 47 14 14 25 31 29 18 22 12 13 13 8 8 8 15 12 9 18 19 15 14 12 12 14 7 4 9 11 11 4 0 9 6 5 4 4 7 8 8 6 7 5
21 7 14 39 39 27 32 27 28 28 23 21 12 9 7 10 4 3 8 4 13 19 15 25 15 19 13 15 12 12 13 14 14 9 11 11 14 7 10 11 12 7 6 7 4
26 9 16 14 24 30 30 28 30 32 27 18 15 19 13 8 5 4 3 5 5 6 9 13 19 16 18 17 18 19 16 18 18 16 15 14 15 11 11 12 6 2 3 4 5
20 11 27 22 37 30 30 30 31 28 26 25 19 15 14 13 4 5 5 8 1 5 9 7 10 12 16 16 13 16 18 19 19 20 14 16 15 12 14 8 8 4 7 9 10
32 29 28 18 27 21 24 32 28 29 33 25 23 16 17 17 15 4 7 10 11 3 8 7 8 7 14 7 7 6 17 17 18 17 16 16 16 13 9 12 10 8 11 15 16

GFSSW_850_spd_033.txt.gz
Wind_Speed
19 17 18 17 18 16 15 15 17 18 17 18 18 20 21 22 19 11 3 9 8 6 3 5 8 8 7 11 8 7 10 1 5 10 12 9 10 5 3 6 2 10 8 5 14
22 21 20 21 20 21 20 17 17 18 20 19 18 19 20 22 19 10 10 8 6 4 4 6 8 8 14 9 6 12 10 3 5 6 10 11 8 7 6 10 7 9 13 15 14
25 24 24 24 24 21 23 22 21 20 20 20 20 19 19 19 11 3 8 6 5 6 4 7 7 8 15 6 9 7 9 9 8 9 9 4 8 4 11 8 28 9 14 16 14
23 25 27 26 24 24 24 21 20 21 21 21 20 19 17 11 5 3 4 4 5 6 5 7 9 10 12 8 4 10 5 6 8 7 3 3 1 4 11 7 6 8 11 14 13
20 21 23 24 24 25 24 24 21 20 21 21 20 19 16 8 14 13 7 4 8 8 8 8 9 11 12 4 5 10 8 8 8 3 3 1 8 1 7 9 12 11 9 8 9
20 20 20 20 20 23 24 25 22 21 21 20 20 18 11 17 6 12 9 7 9 10 8 8 8 6 12 9 10 6 11 13 5 5 5 2 4 8 9 11 12 9 11 9 11
22 21 21 19 17 18 22 24 22 22 22 20 19 19 14 23 6 7 11 11 11 12 8 8 7 10 9 12 5 12 13 10 10 8 6 6 18 5 14 13 12 11 12 18 19
23 22 21 20 17 18 19 18 19 21 22 20 19 15 12 10 9 12 14 12 13 13 10 6 8 11 14 14 16 14 13 4 14 8 7 18 12 13 14 13 14 17 19 15 13
22 22 23 21 18 18 17 16 18 19 19 19 15 6 11 13 14 16 18 15 12 13 10 8 7 14 13 13 15 13 11 11 17 7 9 10 19 17 14 12 13 15 15 14 16
22 21 21 21 18 18 16 14 15 17 17 12 10 8 18 9 10 17 20 14 15 14 11 12 11 13 13 14 13 10 14 10 5 8 9 8 5 15 14 11 14 16 14 14 15
22 22 21 20 18 16 14 10 9 6 15 13 4 13 3 6 7 15 23 18 14 16 15 17 13 14 18 15 16 10 8 12 10 14 8 8 14 5 15 12 12 14 16 15 15
21 20 20 20 17 14 12 6 6 6 14 20 27 26 19 5 10 18 23 21 19 17 17 13 14 16 17 8 8 11 12 13 5 4 5 9 11 15 13 13 16 16 18 18 17
19 19 18 17 17 17 15 12 8 5 9 20 25 30 26 24 18 22 28 31 21 20 18 16 8 11 7 12 13 13 16 3 7 4 10 11 12 10 10 14 15 16 17 19 21
29 19 18 15 15 14 14 12 11 5 6 16 8 11 25 23 21 24 29 31 18 21 20 16 12 9 12 16 15 15 12 5 4 8 5 10 1 12 14 14 15 18 17 19 22
22 28 19 17 7 7 2 9 8 4 7 3 15 4 11 23 9 30 29 33 23 20 15 17 16 14 15 15 12 8 10 7 12 12 7 8 8 6 9 12 16 19 22 22 23
23 29 22 20 19 16 8 6 10 7 16 9 10 11 12 26 24 14 33 34 28 19 20 19 18 17 16 14 7 6 6 9 13 12 9 10 13 7 10 12 11 21 25 25 26
24 24 28 20 18 17 12 6 7 14 10 15 9 14 17 17 24 19 27 28 23 22 22 22 15 14 12 10 12 11 12 10 8 9 10 6 5 9 9 4 3 2 11 26 28
23 24 29 29 21 15 15 6 16 21 29 4 9 13 17 15 23 21 23 25 28 25 15 18 20 22 15 19 15 18 17 12 5 9 9 4 7 11 4 6 1 7 9 11 21
23 26 28 31 24 20 10 12 22 25 22 28 7 12 16 18 14 22 27 27 30 28 24 19 22 23 18 18 17 12 16 21 19 7 6 10 8 5 10 6 6 5 3 8 13
30 27 33 32 28 23 8 18 25 30 27 15 27 14 18 17 17 24 23 25 28 31 23 16 16 14 13 10 11 12 5 13 10 12 11 14 13 4 8 8 5 6 5 1 3
33 17 22 28 28 19 12 19 25 34 34 29 24 23 15 15 21 20 17 16 28 29 24 20 11 16 13 16 18 10 12 9 8 13 10 10 10 2 4 3 4 5 4 3 1
34 10 21 40 18 13 15 33 46 28 40 19 19 21 28 21 13 21 23 21 16 26 27 26 13 14 17 17 21 17 17 18 10 13 12 10 11 5 5 8 1 7 7 3 2
23 18 23 44 12 14 25 34 39 38 26 29 26 22 18 18 18 15 21 18 13 18 25 20 18 12 18 15 10 12 16 15 12 13 6 10 9 6 4 6 9 9 9 9 6
20 9 15 40 39 25 28 32 38 50 31 23 24 24 26 18 15 11 16 8 14 17 31 24 17 21 16 17 15 18 18 18 16 10 12 15 15 12 10 11 11 11 13 10 8
24 9 15 15 22 32 33 26 34 35 41 38 23 24 24 21 19 17 11 5 6 14 7 15 21 17 24 20 20 22 24 22 20 18 18 17 18 16 13 8 9 8 4 6 9
15 12 25 20 38 31 27 31 33 35 32 30 26 25 20 23 8 2 10 2 11 11 13 16 15 20 22 22 21 19 18 20 22 23 21 21 21 16 17 9 6 9 6 9 9
24 31 31 19 26 23 26 34 38 34 39 39 31 22 20 20 2 14 9 7 12 8 10 14 12 13 17 20 19 19 17 19 19 21 17 18 20 16 17 12 12 14 11 11 11

GFSSW_850_spd_036.txt.gz
Wind_Speed
23 22 18 16 17 19 21 22 19 19 21 22 23 23 23 24 22 17 4 8 8 11 5 2 7 9 8 12 16 14 11 12 4 13 12 16 12 4 11 22 24 28 11 8 11
24 24 24 24 26 27 24 22 24 23 23 23 23 23 23 25 25 17 11 13 10 7 4 6 7 7 11 16 10 10 11 12 6 11 14 15 13 19 10 13 16 26 11 12 11
22 24 25 26 27 26 25 25 23 22 24 24 23 23 21 22 21 2 7 9 9 6 9 7 8 8 15 18 11 15 12 7 14 8 14 9 6 9 14 6 11 10 11 8 8
21 21 21 21 23 24 25 26 25 23 23 23 23 23 20 15 6 3 7 7 7 8 6 8 8 12 17 12 13 7 15 9 11 7 12 9 2 4 15 7 8 11 10 7 9
20 21 20 19 19 19 21 23 24 24 23 23 22 21 21 8 17 14 11 10 7 9 8 10 10 12 16 12 9 11 14 12 13 8 5 12 6 15 16 17 13 13 9 9 11
22 22 21 19 18 18 19 20 22 23 22 21 20 21 14 19 8 14 14 13 9 11 10 11 11 12 11 16 13 8 13 15 17 9 3 4 9 23 16 13 11 11 12 14 13
21 22 22 21 19 18 19 18 20 21 20 20 18 19 18 29 9 7 10 13 11 13 12 10 9 9 14 14 14 13 14 16 14 10 3 5 7 6 0 11 8 9 12 13 16
21 20 22 22 19 19 19 18 19 18 19 18 16 15 15 13 11 20 16 15 14 14 13 8 8 11 15 16 19 16 18 16 4 9 9 13 7 13 15 19 15 17 17 14 13
21 22 22 23 21 19 19 18 17 17 19 16 14 7 14 13 20 20 18 19 16 15 14 11 9 14 15 14 13 15 15 8 6 12 11 8 5 15 16 17 23 23 19 18 16
22 20 21 22 22 20 18 16 14 20 16 9 9 9 17 15 13 16 19 20 18 15 15 15 11 12 13 12 13 7 13 16 7 7 12 17 9 4 30 13 15 20 24 21 23
25 22 20 18 21 20 17 13 9 4 9 11 9 14 17 5 3 12 20 21 17 19 16 20 12 15 18 18 19 16 8 16 7 4 6 17 22 15 12 15 17 18 17 15 16
19 22 19 17 17 19 13 5 5 9 14 21 28 29 30 18 10 15 21 22 22 20 19 17 18 18 18 18 18 16 12 18 9 12 8 11 17 23 22 22 19 17 21 19 21
20 19 19 16 16 20 15 17 9 14 11 25 30 30 33 27 26 18 27 30 20 20 20 20 18 19 16 19 15 12 16 14 9 6 11 12 12 22 20 22 23 18 22 19 23
19 18 19 13 13 9 13 13 11 9 7 13 17 13 33 28 29 30 29 32 19 23 23 19 21 15 10 13 13 15 15 5 12 10 8 5 9 8 14 14 14 19 22 26 27
19 18 16 15 9 4 2 6 5 3 7 6 25 11 11 31 7 31 32 33 25 23 15 20 19 18 14 16 17 14 2 13 12 13 13 7 9 9 12 12 16 16 21 23 28
22 19 16 19 19 14 9 8 9 5 12 7 10 12 11 24 32 12 35 33 33 24 22 22 24 19 16 16 17 13 9 10 12 11 9 13 10 5 6 8 8 19 19 23 26
24 20 22 16 15 7 16 9 7 13 8 13 14 10 14 15 23 23 23 25 23 22 21 22 24 18 16 18 17 10 9 8 10 9 7 11 9 11 10 5 7 11 21 30 28
22 23 22 18 19 8 9 7 16 21 30 5 12 18 17 15 19 22 22 23 25 24 16 17 17 23 15 19 18 15 16 8 7 4 7 12 7 7 14 14 5 10 32 40 31
21 26 23 21 25 15 7 10 17 27 21 28 24 7 14 17 17 18 24 22 23 26 21 18 22 20 17 17 18 15 16 16 18 5 3 5 21 9 8 12 8 8 7 5 10
27 27 28 22 26 19 5 10 24 29 30 27 26 22 19 16 18 17 23 18 23 26 23 19 13 21 21 20 19 17 12 11 11 10 7 12 16 7 3 8 8 4 9 5 5
29 15 19 27 27 20 13 21 27 44 33 31 24 23 21 26 16 20 22 22 25 24 24 20 14 11 17 21 18 13 12 7 16 10 6 5 5 10 5 8 5 7 7 4 5
33 8 19 36 18 11 17 39 40 25 41 30 26 25 23 19 23 17 22 18 20 24 27 25 11 13 17 14 17 17 16 17 10 9 6 3 8 10 14 7 6 4 4 9 8
25 14 25 49 14 17 22 31 33 29 31 31 28 27 23 16 12 16 21 19 23 18 25 20 18 10 17 16 19 19 18 13 15 10 12 4 7 9 9 8 8 7 11 17 12
20 7 15 40 38 27 27 32 32 43 29 35 29 29 21 20 10 13 19 15 7 10 13 11 13 21 15 14 9 14 20 17 18 9 11 8 9 14 12 4 8 14 16 18 21
22 7 16 14 22 30 26 19 34 27 36 38 28 30 25 21 10 16 21 28 12 14 8 6 16 18 21 20 20 17 20 20 20 21 17 13 20 20 19 15 6 11 6 10 7
15 8 26 16 32 27 26 30 31 28 26 32 29 30 26 22 14 18 11 15 11 10 11 5 12 15 23 21 19 22 22 20 21 22 20 17 17 15 18 12 10 10 12 8 10
28 32 27 22 23 20 25 31 35 27 25 34 33 24 25 21 15 3 6 5 12 10 8 11 10 17 19 19 13 21 21 19 16 18 17 17 16 14 13 12 12 21 15 16 11

GFSSW_850_spd_039.txt.gz
Wind_Speed
23 23 22 22 22 24 25 25 23 24 24 24 24 23 22 25 25 25 21 9 7 9 10 4 1 2 5 14 16 16 2 6 16 4 5 8 4 7 10 14 6 6 6 15 11
21 21 21 21 23 25 24 24 25 23 24 25 25 23 22 25 26 24 7 11 11 12 8 5 6 4 11 17 15 5 4 9 6 2 5 8 10 11 5 7 4 8 12 14 14
19 19 19 19 19 21 22 22 24 24 23 23 24 25 20 21 22 3 2 4 9 9 9 9 12 14 18 21 26 17 6 9 9 5 7 6 11 11 7 4 2 12 15 14 13
21 21 19 18 18 18 19 20 20 22 22 22 22 23 21 15 5 2 10 8 9 8 11 8 7 14 5 7 21 5 13 10 6 2 1 3 11 8 13 2 4 9 12 11 9
22 22 21 19 20 19 19 19 19 20 21 20 20 20 19 8 22 16 11 11 10 11 13 10 13 18 7 9 16 4 5 13 12 16 4 21 15 12 13 8 11 10 9 11 7
22 22 22 22 21 20 20 18 19 19 19 18 17 18 15 12 6 8 15 17 14 13 11 11 14 16 9 13 7 12 12 9 18 21 6 8 6 6 5 5 12 6 8 9 9
21 21 22 23 24 22 21 19 18 19 18 16 16 17 22 32 10 7 8 13 11 13 11 6 13 11 12 8 14 23 7 7 14 16 4 16 6 4 11 12 12 9 10 8 6
25 22 21 23 24 24 23 22 19 18 18 15 15 14 15 16 12 25 18 16 15 13 15 15 11 7 9 14 13 7 7 5 10 9 2 10 3 6 14 15 12 14 14 13 9
19 24 22 22 25 25 24 22 19 19 20 16 15 9 16 7 14 21 20 20 17 14 14 16 11 8 14 4 6 5 8 8 8 5 5 4 2 5 19 18 16 21 22 21 21
18 19 21 20 21 25 25 22 16 21 20 11 6 8 13 9 10 7 20 19 20 16 13 15 7 4 4 2 6 8 4 4 1 5 3 4 4 8 13 29 27 29 26 24 27
20 20 19 21 19 21 22 17 6 5 9 12 8 13 22 13 10 7 9 20 21 19 9 12 4 8 10 13 17 13 12 6 4 6 7 12 8 12 17 10 26 25 27 30 31
19 19 18 17 17 20 16 10 5 9 14 18 26 35 35 31 17 15 13 17 19 12 7 7 15 14 15 18 17 16 10 7 6 1 4 11 11 10 8 8 23 27 31 32 28
19 16 15 16 15 19 14 15 12 12 8 22 31 29 36 28 33 32 20 30 9 9 12 13 12 18 19 18 16 15 7 5 3 5 10 4 3 5 9 15 14 26 31 32 40
20 17 14 12 12 8 7 8 6 7 5 7 10 12 23 26 12 34 25 27 7 16 15 12 20 20 17 18 12 9 6 9 5 1 4 5 3 10 14 14 14 20 32 32 39
22 17 13 9 7 10 1 7 8 8 5 7 6 11 15 26 15 20 34 23 19 16 9 14 7 12 17 12 6 11 7 1 2 3 2 6 0 4 15 12 15 16 33 35 39
20 19 14 15 18 15 10 5 8 3 10 7 8 7 8 26 14 4 24 33 20 15 17 15 22 15 13 9 8 9 4 3 3 1 4 6 2 6 12 19 17 24 31 38 40
18 18 19 15 20 6 12 3 2 7 5 6 4 9 7 8 18 14 7 12 12 15 17 16 22 14 14 7 7 6 2 1 3 2 6 4 3 7 8 9 8 22 33 42 44
18 18 21 19 16 9 7 2 9 10 17 1 1 1 10 9 10 14 16 12 16 13 5 13 14 19 12 14 8 10 7 5 4 2 4 3 3 6 8 12 18 28 40 35 38
17 21 23 22 17 16 7 9 10 6 13 15 17 14 12 8 6 13 16 16 12 19 15 11 18 6 16 9 12 10 6 8 4 3 2 3 6 8 10 12 10 20 27 33 29
22 24 28 21 16 19 5 18 19 24 14 11 9 6 13 9 7 9 8 8 17 20 19 6 7 18 15 12 10 9 3 2 0 4 4 4 4 4 9 10 6 7 21 34 32
26 13 17 26 22 12 12 16 22 21 17 15 15 13 14 10 9 8 11 11 9 14 20 19 15 12 11 13 15 4 7 3 4 5 4 3 5 7 10 5 6 9 10 14 15
27 6 17 36 13 10 20 12 13 12 26 17 8 12 14 17 15 11 5 6 20 11 17 18 4 13 22 11 11 9 13 10 5 5 4 3 10 5 7 5 4 8 15 17 16
19 13 27 47 12 17 18 29 25 21 13 5 14 9 8 17 9 4 2 7 15 13 10 11 15 14 12 12 9 19 13 10 5 5 7 5 5 7 5 8 11 7 9 17 18
16 6 12 41 35 25 23 26 25 12 23 26 17 17 19 17 14 10 3 3 17 17 33 19 14 15 20 5 5 6 7 9 9 5 5 7 5 6 7 2 5 8 2 9 23
22 9 16 13 24 20 18 7 26 18 19 23 15 23 21 9 15 10 3 6 7 18 15 6 10 22 18 14 12 14 21 19 17 14 10 7 7 9 10 6 20 13 7 5 16
15 9 17 11 28 22 19 28 28 20 17 20 19 17 14 19 21 13 4 3 1 9 11 11 12 6 7 19 20 15 16 21 16 6 14 11 12 14 23 21 16 17 20 18 27
32 32 21 17 15 17 28 34 30 17 20 31 18 18 19 23 14 9 12 15 11 4 6 11 10 7 15 3 6 12 18 14 9 15 12 11 13 15 13 12 22 24 31 31 24

GFSSW_850_spd_042.txt.gz
Wind_Speed
19 20 20 20 20 22 22 23 22 22 22 22 22 22 22 25 27 25 24 13 5 6 6 6 3 6 6 5 7 4 1 5 5 4 5 4 5 1 4 8 4 4 2 10 2
20 19 19 19 18 19 19 19 20 20 22 22 22 22 20 23 28 26 6 2 6 5 6 7 7 4 4 4 3 4 3 7 7 4 2 7 7 8 4 3 4 2 5 3 4
22 22 22 20 20 18 18 17 17 18 19 19 20 21 18 21 24 5 2 2 2 6 7 10 8 7 11 9 4 4 6 11 18 15 4 10 7 4 9 2 4 7 4 2 5
21 23 24 22 22 21 19 17 18 18 17 18 19 20 18 14 6 4 5 8 5 7 8 13 8 3 2 3 4 2 20 18 17 10 3 7 9 6 4 4 4 6 8 9 5
23 23 24 24 24 24 21 18 17 18 18 17 18 18 18 6 24 17 18 9 10 9 10 14 10 6 3 5 8 4 7 13 6 6 12 16 6 9 7 8 13 12 11 10 9
23 23 24 26 25 27 23 21 19 19 18 17 16 18 14 8 13 8 12 12 11 12 12 15 9 5 11 5 3 10 15 11 10 8 13 11 5 3 9 15 15 12 12 11 10
20 23 24 25 28 28 26 24 20 19 19 17 16 17 17 30 17 9 15 15 9 10 14 13 12 10 6 6 7 13 6 9 9 7 6 24 4 3 19 16 16 14 13 10 7
21 22 20 25 26 27 29 25 23 19 19 17 16 16 16 14 17 20 25 21 12 10 15 13 7 15 5 4 9 5 5 2 6 3 6 3 4 5 21 22 17 14 15 13 10
22 20 20 21 23 26 28 27 22 19 20 18 14 12 17 9 11 9 22 31 15 11 15 12 12 7 3 3 4 2 5 5 11 9 6 3 3 9 25 19 19 17 16 16 12
20 21 21 21 22 23 28 24 19 19 17 14 8 8 16 12 8 13 8 21 17 10 14 13 7 3 2 3 6 5 4 4 7 5 3 5 6 6 23 19 21 22 20 20 17
21 19 21 21 20 18 25 17 6 3 3 10 8 16 23 14 17 8 12 20 15 15 7 5 4 8 11 10 8 5 7 10 14 10 6 8 5 11 17 16 16 23 24 23 23
21 19 19 18 18 15 17 14 3 7 14 22 22 35 39 29 16 15 6 16 11 9 6 3 14 10 9 8 8 9 10 17 10 4 5 6 8 3 8 11 22 24 29 28 25
19 19 16 18 19 11 12 10 11 16 7 15 29 28 32 25 25 28 12 20 5 6 9 12 8 14 10 11 10 13 10 13 9 3 3 7 5 5 6 12 12 25 32 31 35
18 17 14 14 14 8 6 4 13 11 4 8 8 14 24 20 11 34 29 16 6 14 8 8 13 12 8 11 11 11 13 10 7 3 4 5 5 5 7 6 9 17 29 35 39
18 16 15 12 11 12 3 11 11 5 5 6 6 6 14 24 14 19 34 23 14 10 8 9 7 12 16 19 11 14 15 9 5 4 2 5 2 7 4 8 9 12 29 39 45
18 16 14 17 20 16 17 15 3 2 9 6 5 7 9 14 4 6 20 18 7 6 9 9 14 6 8 10 10 10 3 3 3 2 1 5 5 4 5 12 9 12 30 40 45
17 16 17 19 22 9 10 6 2 7 4 4 2 6 6 8 4 2 7 11 8 7 13 12 20 15 9 7 13 5 5 2 3 2 6 5 3 7 4 8 16 18 31 37 47
17 16 19 22 15 9 8 3 11 3 11 4 6 9 1 4 5 4 6 5 10 4 4 12 6 17 12 17 6 8 9 6 6 4 5 3 5 6 7 4 16 24 33 42 37
16 19 22 22 15 11 4 8 6 5 6 7 13 6 4 1 5 9 8 8 7 14 7 6 8 8 15 11 8 6 5 8 5 2 2 4 6 7 8 8 10 20 31 39 38
20 22 27 20 18 14 5 18 7 7 4 9 3 2 3 5 4 6 2 4 7 10 14 5 6 6 16 6 12 13 5 2 1 6 4 3 4 5 8 9 2 2 19 31 40
22 12 16 26 21 14 11 12 10 17 11 3 6 4 3 5 6 3 4 6 2 3 17 9 10 8 5 5 15 2 4 1 5 5 6 2 5 8 11 7 4 5 23 36 34
23 5 18 31 13 11 19 12 6 10 12 12 5 5 9 4 3 3 3 5 6 2 4 5 7 12 23 17 10 7 11 11 6 4 3 5 9 6 7 9 6 10 21 26 33
12 9 29 42 12 19 15 16 21 3 6 3 7 10 2 4 3 5 6 2 7 4 4 6 4 4 7 9 5 8 5 10 5 4 9 7 5 5 5 6 14 5 10 20 26
7 5 11 35 18 18 20 21 20 16 22 23 12 9 5 3 6 7 2 3 3 6 11 8 5 5 11 7 5 5 11 10 11 6 5 7 7 5 5 7 5 7 12 17 25
19 7 11 9 20 14 15 10 24 19 16 14 6 19 9 5 5 7 4 2 2 2 5 4 6 12 17 14 18 19 9 9 14 7 9 7 9 10 10 11 15 17 12 9 22
13 10 9 1 21 22 20 23 24 17 12 13 15 4 17 20 9 8 7 5 5 2 3 2 2 10 10 13 16 20 20 16 15 10 7 8 8 8 19 22 14 20 26 23 19
35 21 15 14 11 17 31 34 16 16 13 32 15 15 13 7 14 14 11 10 6 7 3 5 3 5 6 16 13 11 27 19 6 7 6 8 8 8 9 10 17 28 33 34 31

GFSSW_850_spd_045.txt.gz
Wind_Speed
19 20 20 19 21 21 21 22 21 21 21 22 22 22 22 24 24 24 22 17 7 11 6 2 5 9 9 4 6 5 3 3 5 4 5 4 3 4 2 2 2 2 3 1 3
23 21 22 21 22 22 20 20 20 21 18 19 20 21 21 23 25 24 11 5 8 9 5 4 8 8 4 4 5 4 3 6 5 4 2 4 5 9 4 4 3 4 2 5 3
27 27 23 24 24 25 22 20 20 22 20 18 19 20 19 19 21 3 4 3 6 7 5 6 10 4 3 4 5 4 5 5 17 23 15 5 4 5 5 4 7 6 5 4 4
30 28 26 25 26 27 26 22 21 22 20 20 20 21 19 14 5 5 5 3 4 7 7 9 9 4 4 4 6 1 12 10 14 10 10 6 7 4 7 3 3 4 4 7 6
23 26 26 26 26 28 28 24 24 23 22 19 20 22 20 8 20 13 12 12 9 9 10 13 12 7 4 4 2 5 4 14 20 10 8 12 5 3 4 4 5 8 8 7 4
20 23 22 23 26 29 29 27 27 23 23 19 19 21 16 8 10 10 16 22 15 12 13 14 7 5 5 4 4 3 10 18 14 11 8 7 3 4 7 10 10 9 8 5 7
21 21 21 22 22 26 27 29 27 25 22 19 18 19 21 30 15 12 13 14 15 14 15 12 16 4 1 3 1 3 6 9 5 7 7 8 1 7 12 14 10 9 11 10 10
23 23 22 22 24 24 25 28 25 24 20 18 18 15 16 17 21 17 20 18 19 14 13 11 10 7 6 3 4 4 0 4 2 4 3 1 9 4 18 16 13 11 11 12 11
22 21 23 22 25 27 28 28 25 21 21 16 14 11 18 14 12 4 8 25 21 15 13 9 6 7 5 5 3 3 4 4 8 3 4 6 7 4 21 18 17 15 13 12 12
23 21 22 23 25 25 27 26 18 12 11 9 7 8 20 15 9 11 12 10 22 12 13 9 8 4 2 4 6 6 4 3 4 5 3 4 11 4 21 19 18 18 17 16 15
20 20 20 21 22 24 24 26 6 2 3 11 9 15 11 10 14 6 8 6 14 13 6 7 4 9 12 8 3 3 2 4 7 9 4 10 8 7 13 14 15 21 22 20 17
19 19 19 21 20 21 18 9 9 10 14 22 28 37 40 31 19 22 2 10 9 6 6 1 16 6 8 5 5 4 5 8 11 12 8 6 8 7 8 16 22 24 26 25 22
17 16 17 18 20 18 10 3 9 17 8 13 27 31 38 23 26 36 18 7 5 7 10 7 5 14 11 6 6 7 6 8 8 6 1 3 5 4 6 9 18 26 28 29 28
17 15 16 17 17 9 7 3 10 13 4 7 7 11 16 17 9 37 24 13 6 14 7 6 16 5 5 10 8 6 9 12 8 1 5 6 4 4 6 9 9 21 29 34 33
17 16 13 15 13 15 8 12 14 1 5 3 5 4 8 18 3 15 35 21 9 7 8 9 6 9 10 16 7 9 4 9 11 6 3 3 3 7 5 7 12 15 27 35 37
17 16 14 18 21 16 18 13 5 2 8 6 4 5 7 12 4 5 17 15 16 3 2 10 3 6 9 7 10 8 4 5 1 3 3 6 6 5 5 7 6 14 28 35 35
17 16 16 20 19 12 11 8 3 6 6 5 4 1 3 6 4 2 9 12 8 6 9 4 10 3 1 2 2 4 3 3 3 1 6 5 2 7 7 8 9 11 28 36 37
17 17 19 24 16 12 8 2 11 3 7 5 5 10 2 4 5 2 6 8 5 3 4 10 6 11 6 14 6 7 9 5 6 3 5 2 5 5 10 13 13 19 29 32 36
18 20 23 25 17 12 3 9 4 4 4 6 9 3 4 5 1 3 4 7 9 8 6 5 6 4 6 9 11 5 5 7 3 3 2 4 6 7 8 9 8 17 18 26 35
19 22 27 24 18 15 4 14 9 3 7 4 5 5 7 8 5 3 1 2 3 7 9 4 3 5 5 6 6 8 4 2 2 4 5 3 4 5 4 9 5 8 14 25 32
20 11 13 25 20 15 9 9 10 26 16 6 1 4 3 5 6 7 2 2 5 5 4 6 5 4 5 4 6 2 3 3 3 4 8 8 6 8 10 8 7 8 20 24 25
18 4 16 28 10 6 13 12 15 6 7 10 3 5 5 2 5 2 4 3 5 3 3 1 1 5 17 14 5 1 5 6 7 7 4 4 11 5 8 8 7 12 19 16 20
8 7 23 36 11 14 8 11 10 3 2 1 4 1 3 3 4 5 4 2 4 4 3 3 3 4 7 6 2 6 7 8 2 2 16 7 9 4 7 5 10 10 15 14 15
6 4 10 29 11 16 11 14 13 18 15 5 2 4 2 3 3 4 4 5 10 4 9 7 2 3 2 5 8 7 15 8 12 7 3 13 7 5 7 8 8 9 18 20 17
12 6 8 8 15 7 17 10 20 15 13 9 9 13 6 4 3 4 7 6 5 3 3 2 3 2 5 6 10 15 16 18 16 12 13 7 11 10 10 10 14 22 13 14 13
12 6 8 2 14 19 16 21 17 18 11 16 7 2 9 13 14 6 3 1 5 2 3 3 5 1 4 6 2 13 20 18 19 14 8 6 7 8 15 19 9 18 24 21 20
30 22 10 8 10 17 22 18 16 14 21 21 14 14 10 18 18 25 24 22 11 5 4 5 4 2 5 2 6 8 5 13 17 17 9 12 9 7 7 9 16 27 30 30 31

GFSSW_850_spd_048.txt.gz
Wind_Speed
23 25 26 26 25 23 22 23 22 23 23 21 24 24 24 24 23 23 20 14 14 11 13 7 9 13 13 8 6 5 4 2 4 4 5 4 4 4 4 5 3 3 4 5 2
21 23 27 29 28 25 24 22 21 24 23 22 22 24 25 25 23 23 16 12 8 13 12 6 11 13 7 7 7 4 4 8 6 5 6 5 8 5 1 5 4 4 3 3 2
22 24 24 26 29 30 27 23 22 25 23 23 23 23 24 24 20 2 3 9 12 12 9 6 9 8 5 6 7 6 5 5 9 19 21 9 4 6 3 5 7 4 9 6 3
21 22 23 25 26 31 32 29 23 23 26 22 23 24 23 20 5 3 8 9 9 11 9 9 11 4 4 5 7 3 10 6 10 7 4 4 6 4 11 4 5 1 6 9 7
19 21 24 23 25 26 31 27 28 26 26 23 21 23 25 11 17 12 10 10 7 10 11 10 14 7 4 5 6 4 4 5 14 20 9 8 7 6 10 7 2 7 7 7 7
22 21 23 25 25 23 26 25 25 28 26 22 19 23 18 8 10 12 17 24 19 14 12 13 7 13 6 4 6 5 7 12 8 10 5 6 2 2 9 10 8 9 8 6 4
20 21 24 23 23 24 26 25 21 27 24 23 17 19 21 31 20 18 13 14 15 16 14 13 13 6 2 2 7 4 5 6 4 2 3 5 5 9 9 14 11 11 10 9 6
21 23 24 24 25 26 27 24 22 22 27 25 19 14 16 20 26 25 18 19 16 16 14 11 11 7 4 3 3 1 3 3 3 4 2 9 11 2 14 19 15 14 11 10 9
22 25 24 24 25 25 28 31 28 21 24 20 16 12 16 13 16 3 4 17 19 17 11 4 9 5 3 4 4 5 4 5 5 3 3 3 9 2 14 18 16 17 15 12 12
20 21 22 23 24 26 29 27 15 10 6 6 6 7 17 13 8 8 7 8 10 19 9 10 7 4 3 4 7 5 4 5 5 2 3 6 12 4 18 19 18 17 17 18 16
19 20 21 21 22 25 29 23 5 2 9 11 8 9 5 8 9 7 5 2 10 12 7 8 5 12 10 7 4 5 2 3 5 3 3 8 10 15 13 16 16 21 21 22 20
18 19 20 22 22 22 21 6 8 11 15 27 30 37 36 14 12 23 8 7 7 6 6 3 16 7 8 7 6 3 3 6 9 3 4 7 11 7 7 9 19 22 25 24 20
17 17 19 21 22 21 11 1 3 20 7 15 21 23 28 27 22 33 15 8 4 6 9 8 3 12 8 6 7 5 6 5 8 5 4 2 7 5 3 8 12 24 26 24 25
17 16 18 19 17 8 10 2 13 19 5 7 5 6 12 14 9 37 21 15 5 11 6 7 5 4 4 10 8 8 9 8 5 2 3 3 5 7 5 7 7 17 25 30 28
17 15 15 16 16 17 16 17 14 3 5 1 2 1 10 15 6 7 33 19 10 7 7 8 6 11 5 5 8 7 7 9 5 5 1 2 1 7 5 6 9 10 29 32 32
17 16 14 18 20 18 17 13 9 1 7 7 2 3 3 8 5 5 11 8 16 5 2 8 4 8 11 7 11 4 4 4 1 3 3 7 7 5 5 8 6 6 23 32 32
17 16 16 19 14 14 11 11 2 5 6 5 4 2 8 4 5 3 6 6 7 8 7 1 5 2 3 5 2 3 4 1 2 1 5 4 5 8 7 11 10 10 18 23 31
18 18 18 21 19 14 8 1 10 2 6 6 6 12 3 3 4 4 8 6 5 4 4 9 5 11 5 7 5 5 7 5 6 4 4 3 5 6 9 13 15 16 21 17 21
19 21 23 23 17 11 3 5 3 5 5 7 8 5 6 6 5 3 5 7 6 6 5 5 5 1 4 7 11 5 4 6 3 1 2 4 6 8 6 8 7 16 22 25 21
19 20 27 21 18 13 3 8 5 2 5 6 3 5 6 8 7 7 2 4 1 7 2 3 1 2 0 5 3 7 5 3 2 4 5 4 3 5 3 9 9 9 15 22 19
17 10 13 16 18 11 6 6 5 22 12 4 4 5 4 5 6 6 7 3 6 5 3 4 3 4 2 3 5 3 3 0 4 5 4 2 5 8 11 8 7 9 17 15 20
15 5 10 17 11 4 9 5 6 4 4 8 4 6 3 5 4 3 4 5 18 6 4 3 3 4 10 7 5 1 2 6 4 5 4 2 6 4 9 7 8 12 16 19 18
7 9 9 30 8 9 3 9 6 3 3 3 3 2 1 1 3 3 4 6 20 8 3 1 2 2 1 1 6 5 3 6 4 3 7 4 4 3 5 8 13 12 15 14 14
7 3 13 28 14 14 8 9 8 11 7 2 3 3 3 4 2 4 6 3 14 5 6 2 3 4 2 2 3 3 6 5 1 3 4 9 5 8 8 9 10 15 18 19 18
13 6 7 6 11 8 14 9 14 8 11 2 3 5 1 2 5 3 4 6 3 5 4 1 4 3 3 5 4 8 9 6 5 6 7 8 12 9 9 12 17 28 23 19 21
11 7 9 4 12 14 15 13 17 17 10 7 6 2 6 8 8 7 6 1 4 6 3 4 1 3 4 9 10 11 7 8 6 5 8 11 14 9 20 18 17 24 22 23 22
28 23 14 12 5 13 14 15 17 12 14 25 10 8 8 13 13 21 19 19 9 4 7 3 3 2 2 2 3 7 7 12 7 5 5 5 10 15 12 11 12 26 25 26 26

GFSSW_850_spd_051.txt.gz
Wind_Speed
22 23 24 24 25 25 25 25 26 26 24 22 22 22 21 24 22 22 22 19 15 14 17 15 14 16 16 10 7 5 2 4 4 6 2 3 4 4 4 4 4 6 7 7 7
18 20 23 25 25 24 26 27 25 25 27 24 23 23 23 24 25 22 13 17 15 14 22 18 19 19 10 8 6 4 4 8 6 5 4 8 9 6 5 5 5 9 10 5 3
18 20 21 23 26 26 26 25 26 25 26 25 24 24 24 23 21 4 8 6 13 17 16 13 15 17 8 7 8 6 5 5 5 12 10 6 6 8 6 6 8 7 8 5 3
19 19 21 23 24 25 25 23 24 25 23 25 25 24 23 21 5 3 2 10 11 19 14 14 19 13 6 7 8 4 10 7 3 5 2 4 3 5 11 4 3 5 6 8 8
19 19 20 21 24 26 24 25 23 23 23 21 22 25 24 13 20 18 11 7 9 15 15 16 19 8 7 7 8 6 4 8 13 12 11 6 8 6 7 8 6 6 8 7 8
19 20 22 24 23 24 25 26 24 22 22 21 18 24 19 7 10 9 6 18 16 13 16 16 12 13 7 6 9 6 9 9 9 10 5 5 3 2 3 11 10 10 8 8 7
19 20 22 26 26 27 27 26 27 24 22 22 22 19 21 31 19 29 23 18 16 18 18 17 11 10 9 3 10 3 5 7 7 5 4 7 5 8 6 13 12 12 9 8 8
19 21 22 25 27 26 28 30 29 23 24 22 21 16 15 23 25 25 23 21 18 15 17 12 15 11 5 3 3 3 2 6 1 3 1 6 13 4 10 16 13 11 10 10 10
19 20 21 23 25 28 31 31 24 21 15 18 13 12 11 14 18 11 8 15 16 16 16 5 11 7 6 5 2 1 7 5 5 4 3 5 6 2 9 15 16 15 12 11 11
19 19 20 21 25 27 30 28 12 9 9 2 4 5 12 5 5 6 2 8 7 19 12 8 6 4 3 9 11 8 4 4 7 1 2 3 14 8 11 17 18 16 16 14 14
17 17 17 21 25 26 29 20 9 4 14 9 10 10 2 13 11 9 9 4 8 13 11 6 7 14 17 14 5 6 5 5 3 5 3 4 12 13 10 16 15 17 18 18 18
15 14 16 19 23 24 15 8 9 12 16 25 31 34 32 12 8 13 11 7 7 10 8 4 15 11 8 8 9 6 6 7 5 3 7 6 13 11 7 9 19 20 20 20 19
14 13 14 18 20 11 13 3 6 21 8 15 13 14 20 26 21 28 10 11 6 9 14 16 4 14 11 8 10 10 12 6 8 5 3 3 5 7 3 7 9 16 21 20 24
12 12 14 17 12 11 8 11 17 19 5 6 4 5 8 11 9 35 25 13 6 15 10 11 6 10 9 15 12 12 10 7 6 3 4 2 5 7 6 8 7 12 20 22 25
12 12 13 12 16 14 13 12 12 5 5 3 1 1 7 9 9 2 30 24 8 7 7 9 8 12 9 11 13 10 8 12 9 7 3 3 5 4 4 7 11 9 18 22 28
12 13 13 13 12 14 11 12 7 2 7 6 3 2 5 13 5 4 7 12 14 4 1 8 3 8 11 5 16 5 5 3 3 2 7 9 7 5 8 11 5 6 10 13 21
13 12 13 12 10 14 13 8 0 4 5 7 6 6 10 4 4 5 6 12 7 11 11 5 7 2 4 8 5 7 6 2 4 5 8 2 8 12 8 12 12 13 16 7 10
12 14 15 16 12 11 6 1 6 0 5 5 7 14 3 5 3 5 5 9 9 1 7 10 5 12 5 5 6 13 10 5 7 5 3 4 6 5 9 16 15 14 14 10 11
12 16 19 15 11 9 5 3 2 1 4 10 12 4 6 7 5 4 4 3 6 6 4 6 7 4 6 5 9 6 8 5 0 1 2 3 4 9 6 9 7 12 9 14 14
13 15 19 13 8 11 3 5 4 2 4 6 4 6 6 10 8 9 5 4 5 2 1 4 3 2 4 4 1 8 8 3 1 5 8 3 3 6 3 11 12 8 11 17 15
11 5 4 2 13 10 4 7 5 16 6 1 3 5 5 6 5 6 10 3 12 6 1 3 2 2 3 4 9 4 7 2 2 3 4 3 4 8 12 7 7 8 11 11 12
7 3 5 13 9 3 3 6 7 4 4 5 3 6 4 4 7 6 6 5 19 6 3 3 3 4 6 1 2 2 1 3 7 6 1 0 5 4 8 8 9 13 18 18 14
6 9 11 14 6 8 3 3 7 4 3 1 2 1 2 5 5 3 3 6 13 11 5 5 2 3 2 2 4 6 3 2 2 1 5 4 4 4 8 10 14 16 25 27 16
6 3 9 19 20 11 8 9 8 10 9 1 2 3 2 2 2 3 4 4 18 7 11 2 2 2 3 3 3 1 3 3 1 2 1 5 8 8 14 13 17 24 27 31 26
13 6 6 3 10 13 9 7 14 10 11 13 4 8 2 2 3 3 2 6 8 12 6 2 2 2 2 4 5 5 7 7 5 8 6 6 11 11 14 15 17 24 28 28 32
9 6 10 5 9 13 11 9 18 14 11 8 11 6 9 12 10 10 2 4 4 6 5 8 2 2 3 9 8 7 8 10 13 14 13 14 12 15 20 18 17 23 25 22 26
24 19 6 7 9 8 14 18 14 13 13 18 12 9 13 15 16 19 21 15 8 5 3 4 2 3 2 2 1 6 8 14 8 9 6 10 12 3 8 13 18 19 27 25 29

GFSSW_850_spd_054.txt.gz
Wind_Speed
16 17 17 18 19 20 21 22 23 22 22 23 25 24 24 25 25 23 22 16 14 13 17 20 17 13 16 15 10 8 7 10 12 11 7 3 6 3 4 8 7 8 9 7 7
15 15 16 18 20 22 22 22 22 23 22 21 21 24 23 25 29 24 12 15 18 15 21 22 19 18 19 16 11 12 10 13 5 7 7 7 7 10 6 8 12 12 10 7 6
14 15 16 18 19 20 21 22 21 22 23 22 20 21 23 23 21 2 11 8 14 16 14 17 14 19 19 14 16 13 14 9 8 10 10 10 11 6 8 10 12 11 7 8 6
15 16 17 18 20 21 21 21 23 23 22 23 20 21 19 17 7 3 10 6 7 17 14 14 16 21 18 14 19 11 16 13 12 8 9 9 9 10 11 12 3 5 5 7 6
17 17 18 19 21 22 22 22 22 22 22 23 22 20 20 8 16 22 17 8 3 18 12 14 17 21 17 16 13 18 11 11 16 14 13 12 14 12 12 8 6 5 6 7 6
16 17 20 21 22 24 24 23 23 23 21 21 24 19 15 14 11 19 12 3 10 13 13 12 10 19 12 12 17 9 21 15 14 15 12 12 14 5 4 7 8 9 8 7 7
15 18 20 20 21 24 25 26 25 23 23 23 21 19 14 26 13 26 29 26 20 15 15 14 14 11 10 10 18 14 12 14 16 17 15 11 17 14 9 9 11 12 10 10 8
17 18 20 19 21 24 26 26 24 22 21 20 16 12 13 15 13 29 25 26 19 15 17 13 11 14 13 8 6 13 14 15 15 10 9 13 18 4 5 11 13 14 13 11 11
17 18 19 19 21 24 26 25 21 16 13 14 7 9 11 12 20 19 18 15 16 22 14 8 10 16 14 13 12 12 14 16 12 9 6 12 15 4 5 12 13 14 14 13 12
17 18 17 18 21 24 26 20 10 9 9 5 1 6 13 4 4 6 4 5 6 14 11 14 13 12 15 16 17 16 15 15 13 9 10 12 15 11 9 13 15 14 15 16 14
16 16 16 17 19 22 21 11 7 2 11 12 12 14 12 9 10 8 11 8 7 18 16 22 14 20 25 22 20 11 12 14 7 4 7 13 15 12 6 13 15 15 17 18 17
14 14 15 16 16 13 13 7 7 9 15 25 30 32 30 18 11 12 12 13 14 15 19 10 20 21 17 18 20 18 15 13 6 6 10 14 14 14 4 9 13 15 18 19 18
14 13 13 15 14 6 9 5 8 14 8 14 8 11 9 20 16 11 13 10 11 17 20 21 9 18 14 16 19 21 19 14 12 3 11 10 15 17 12 9 9 15 16 18 22
13 12 12 13 5 9 3 10 10 13 5 4 2 2 3 5 8 21 19 14 11 16 14 16 22 5 19 22 19 19 17 16 12 9 11 7 14 15 11 15 12 14 17 18 22
12 12 11 9 9 6 9 8 8 2 6 6 3 3 4 6 9 3 15 29 18 12 9 12 12 20 17 18 18 16 7 13 14 13 13 14 9 13 9 14 15 14 16 18 20
13 11 11 8 7 8 7 9 3 4 5 3 1 7 4 9 5 2 2 14 22 15 15 15 5 13 19 13 12 4 8 7 6 7 12 15 11 11 12 13 10 9 10 12 16
13 12 11 9 4 7 8 5 4 5 5 6 6 12 11 6 4 7 6 13 11 16 17 13 14 5 10 16 13 15 12 7 9 9 10 5 10 16 6 10 11 9 9 7 12
13 13 13 12 8 6 3 4 6 2 4 7 7 13 5 8 1 5 5 9 17 12 9 14 9 15 13 14 9 21 17 6 6 9 9 8 8 11 7 8 12 11 12 6 12
13 12 15 11 8 9 4 5 3 3 4 8 12 6 3 9 6 4 5 3 8 14 8 12 13 10 14 9 13 13 19 16 10 2 4 7 5 10 9 8 6 10 7 9 11
10 10 16 10 11 13 4 7 6 6 2 4 4 4 5 10 9 7 3 9 3 10 9 6 6 9 16 18 17 11 11 8 10 10 13 10 9 6 3 7 8 7 8 6 8
8 5 5 7 16 10 6 9 11 14 5 3 3 5 4 8 10 9 5 5 12 7 7 8 5 6 10 14 17 14 12 8 6 10 8 8 5 4 6 11 11 11 4 7 11
8 4 7 13 9 4 6 9 7 8 8 11 7 7 8 8 8 6 4 7 14 16 2 6 3 7 10 4 5 12 17 18 10 11 6 5 6 5 6 8 11 10 14 16 15
8 10 8 14 5 8 4 8 10 11 10 6 7 3 5 8 6 7 5 4 10 11 9 5 7 9 10 6 5 4 3 4 3 2 10 8 3 2 12 12 14 17 16 17 17
6 4 10 13 14 9 16 13 13 12 14 10 8 6 5 10 11 6 4 4 9 8 13 10 3 6 10 3 2 7 5 3 5 6 8 10 9 7 12 15 16 19 20 21 20
12 5 8 5 13 15 12 4 17 12 15 16 10 15 10 7 12 11 6 6 6 8 4 2 3 2 1 1 1 4 7 7 6 6 6 8 9 8 9 12 16 18 22 25 26
8 7 7 15 11 15 18 14 17 12 11 13 14 9 13 17 15 8 6 10 7 5 6 6 4 4 5 5 6 8 9 9 10 11 11 15 17 12 13 14 16 20 22 23 26
22 18 8 10 16 13 13 15 15 12 15 21 14 11 11 15 17 16 16 14 13 8 5 4 3 5 9 3 5 8 15 16 13 12 9 11 8 11 12 13 19 24 24 26 30

GFSSW_850_spd_057.txt.gz
Wind_Speed
15 17 17 18 19 20 21 21 21 22 21 21 21 21 22 23 24 23 21 19 16 16 16 12 17 18 18 22 23 14 14 16 19 13 11 11 8 15 5 12 8 7 9 8 5
14 15 16 16 18 19 20 21 21 23 21 21 21 21 22 22 24 25 20 21 24 23 18 21 22 19 23 22 23 17 13 22 12 9 8 4 12 13 9 13 12 11 10 9 6
14 15 16 18 19 20 21 22 23 23 23 22 22 20 19 18 18 3 3 14 16 17 20 21 20 20 24 24 25 23 20 20 8 11 8 9 10 13 12 12 8 10 9 5 8
17 18 18 19 20 22 23 24 24 23 23 22 22 22 20 12 6 3 17 19 14 10 16 20 24 24 21 23 24 21 24 22 18 11 13 14 14 13 13 13 5 7 5 6 7
18 18 19 20 21 22 23 24 24 23 23 23 23 21 21 10 22 19 17 14 8 6 15 20 23 24 22 21 22 21 21 22 19 16 13 15 16 16 18 17 5 7 6 7 6
17 18 21 21 21 22 24 24 24 23 23 23 22 20 11 18 16 12 16 9 4 8 13 17 19 19 21 23 18 23 20 25 17 18 19 17 17 21 16 9 7 9 8 8 8
17 19 20 22 22 23 24 25 24 23 23 22 20 15 14 31 11 11 14 17 13 15 19 18 17 15 15 17 19 20 21 17 20 21 16 18 20 19 24 14 10 12 11 10 9
17 19 22 23 23 24 25 24 23 22 21 18 14 8 13 13 13 23 22 20 27 21 17 18 16 19 20 16 18 15 20 18 19 19 20 16 17 15 6 9 11 13 13 12 12
21 20 21 22 23 23 25 21 20 17 14 11 2 10 11 10 9 18 19 19 15 22 19 15 16 19 19 16 14 17 15 21 18 15 10 12 15 15 8 9 11 14 14 14 13
21 21 22 22 21 22 23 17 16 12 8 4 6 7 8 6 7 5 8 13 10 15 15 18 13 15 18 16 16 17 18 18 17 13 12 16 17 16 13 12 13 16 15 15 15
22 20 21 20 19 18 22 21 7 7 9 16 18 19 15 5 10 7 8 8 10 14 17 20 15 21 25 24 22 20 18 15 13 5 8 14 16 14 17 15 14 15 16 16 16
19 17 19 20 18 13 15 9 6 8 16 19 21 22 25 22 14 12 10 16 17 14 15 15 22 21 22 24 23 24 24 15 14 2 7 14 16 18 14 14 15 15 18 16 15
20 15 16 17 17 5 10 8 10 12 8 11 6 5 5 10 18 16 16 16 13 15 19 23 19 20 22 21 22 21 22 18 17 7 9 15 18 19 14 18 13 14 15 14 16
18 15 13 14 10 10 8 11 10 10 5 5 3 2 1 1 6 23 12 15 7 17 18 19 23 10 20 24 18 21 18 19 16 15 13 12 15 17 19 19 15 18 18 16 16
16 15 13 10 13 11 11 12 11 5 6 4 5 1 1 5 9 4 15 23 16 14 13 19 10 18 23 19 20 21 15 15 16 17 15 17 9 12 13 13 15 15 20 19 17
16 15 14 7 10 11 12 13 8 5 5 3 1 5 7 8 8 2 5 15 15 20 16 18 17 14 14 19 18 16 11 11 13 14 15 18 15 11 12 14 10 11 13 16 16
15 15 14 11 11 7 11 8 7 6 5 2 2 7 10 7 4 9 6 10 10 12 21 20 21 14 13 19 18 18 14 9 11 12 14 14 13 14 4 4 6 5 8 14 12
18 17 15 14 12 10 8 9 10 3 4 3 5 11 5 5 3 6 7 8 15 16 12 18 15 22 12 15 18 20 18 9 14 11 14 19 8 11 7 2 4 10 12 2 8
19 15 15 14 13 11 11 10 5 6 3 6 11 10 3 3 6 4 8 1 5 18 14 12 21 10 14 12 15 17 21 21 18 10 7 7 10 12 3 7 6 6 7 9 10
13 14 19 14 14 16 7 14 12 6 4 5 7 1 5 5 6 7 2 7 2 10 17 13 10 15 14 14 19 22 12 18 11 12 12 10 11 8 9 10 5 3 8 5 3
10 6 6 13 17 13 10 15 12 10 7 8 8 7 7 6 5 7 2 5 10 9 10 14 11 9 11 18 19 15 18 13 15 14 9 12 9 5 10 11 6 6 7 11 9
11 4 8 16 12 8 11 17 18 10 16 14 9 12 11 9 9 5 5 4 7 12 8 15 6 11 18 20 20 18 21 20 10 9 12 8 2 8 8 7 6 6 2 5 6
12 15 13 15 8 12 13 16 19 15 16 13 13 14 13 11 6 7 10 3 6 7 9 13 8 9 15 11 9 14 19 20 20 14 12 9 6 6 5 2 2 8 11 10 10
7 4 16 16 17 13 15 14 17 18 19 17 12 12 10 12 11 9 8 3 5 3 6 13 11 14 12 12 13 15 7 10 10 10 13 14 13 8 3 10 10 11 14 16 15
12 7 8 8 15 17 15 7 19 17 17 18 13 16 15 15 14 15 15 12 7 4 4 5 6 11 9 5 5 6 14 11 12 12 10 12 10 8 6 8 12 13 15 18 18
7 7 19 18 15 18 19 17 16 14 15 16 16 16 16 17 14 9 8 6 10 5 5 7 3 9 8 6 6 7 9 11 13 12 12 14 14 13 14 5 9 12 16 19 22
28 19 9 10 16 13 12 18 21 17 13 19 13 13 13 12 11 13 14 10 13 12 10 8 7 4 4 7 8 8 14 14 13 14 13 13 9 9 6 6 10 16 18 18 18

GFSSW_850_spd_060.txt.gz
Wind_Speed
16 17 17 18 18 19 21 22 23 23 23 23 24 24 24 26 26 22 23 20 21 20 16 14 10 18 19 24 26 25 14 15 22 21 21 10 5 7 13 5 9 9 8 3 4
15 16 17 18 19 20 22 23 24 24 24 24 24 24 23 24 26 27 20 20 18 20 26 16 18 19 23 25 27 20 15 22 22 22 12 4 10 9 13 15 13 16 13 10 4
15 17 18 19 20 21 22 23 23 24 24 25 25 25 23 22 25 9 11 6 17 13 16 19 20 20 24 25 27 26 21 20 25 25 11 19 6 6 9 10 12 7 6 7 5
15 17 19 20 22 23 23 23 23 24 24 25 25 25 22 17 7 0 10 23 16 9 7 15 21 25 20 21 28 24 29 27 28 27 14 16 10 13 14 9 12 4 2 5 7
18 18 18 21 23 24 25 25 25 25 24 25 24 25 22 10 27 23 24 16 11 8 9 15 19 23 22 22 25 25 23 29 30 27 23 15 15 14 15 17 8 4 4 7 8
17 18 19 21 23 24 25 26 26 25 26 25 24 23 14 16 14 13 14 17 6 5 7 12 15 21 27 23 22 27 25 26 29 27 21 18 16 18 20 20 15 6 7 9 9
20 20 21 22 23 24 24 25 26 26 26 25 20 15 15 33 16 14 15 11 10 9 6 11 14 18 21 19 25 26 22 21 19 22 24 19 20 20 22 21 24 11 11 11 10
22 24 22 23 24 23 26 25 22 23 22 16 15 7 13 12 14 20 20 24 19 17 12 8 14 19 22 18 23 22 19 18 21 22 21 21 19 19 21 23 17 11 14 14 11
21 23 22 23 23 24 25 25 17 20 19 12 4 5 12 10 10 11 14 14 11 15 14 9 17 17 16 13 13 14 16 21 22 22 21 20 21 18 19 10 8 14 16 18 15
22 24 22 22 21 22 24 22 14 17 8 7 10 7 12 6 8 10 6 10 9 9 13 9 12 12 12 13 14 17 19 20 19 19 21 20 16 13 22 16 18 16 17 19 19
22 24 22 21 19 19 19 25 23 1 7 16 21 20 27 23 16 11 6 5 5 3 13 16 13 17 21 18 20 21 22 21 16 17 15 17 15 16 16 17 15 19 17 15 19
25 25 20 19 17 13 12 15 13 12 17 22 25 23 25 20 20 15 10 10 7 4 13 13 20 19 18 18 21 24 23 22 22 15 3 9 13 15 15 15 18 15 19 16 17
26 23 20 17 13 5 12 8 13 17 9 16 8 10 6 8 17 23 16 13 12 10 12 18 14 16 18 18 20 23 23 18 22 18 14 7 16 19 18 19 19 17 13 18 20
24 21 17 15 10 10 7 10 12 17 6 6 10 6 7 3 5 15 14 15 10 9 6 12 20 14 19 23 20 22 22 22 20 17 14 14 12 14 16 16 14 16 15 14 13
22 23 17 8 13 9 9 15 13 11 5 7 8 3 5 7 6 8 13 14 12 10 6 4 9 15 23 19 23 23 18 16 15 16 16 19 12 12 13 12 19 16 22 22 21
21 23 17 7 8 9 12 13 11 3 7 7 5 3 8 14 9 4 5 16 8 14 14 18 14 21 20 17 22 20 16 17 14 13 14 17 16 12 13 13 11 8 11 24 24
19 21 16 14 14 11 9 12 4 6 3 7 1 2 8 12 7 11 9 9 9 7 14 17 20 21 18 18 17 16 14 9 7 10 10 16 14 11 16 9 4 3 3 7 22
18 21 22 16 13 9 9 4 10 10 8 6 4 7 11 6 6 9 7 8 13 13 9 5 11 21 15 18 15 18 15 7 8 7 13 19 10 14 18 14 5 3 5 8 15
20 19 17 15 7 8 11 9 5 14 7 4 8 11 13 6 4 7 11 6 5 16 8 3 8 10 16 16 15 14 14 17 15 7 5 9 18 15 6 7 5 6 9 5 10
15 15 22 17 14 14 9 15 15 15 9 6 10 6 9 1 5 4 3 8 2 5 15 6 6 15 15 18 17 17 15 10 5 5 6 7 5 8 9 8 9 6 7 7 7
12 8 15 12 17 14 9 14 16 26 19 7 10 13 7 9 6 9 3 3 8 7 11 14 11 6 14 12 16 13 15 11 13 10 5 2 4 12 12 11 7 11 16 17 14
12 4 7 15 13 9 10 17 27 19 14 13 8 12 12 9 9 13 11 4 6 6 7 12 6 10 18 18 14 16 14 18 7 9 12 5 1 15 6 8 8 10 13 12 8
9 19 17 11 7 12 16 20 24 22 18 17 13 12 15 13 13 12 14 10 6 4 8 10 6 9 9 8 13 17 19 12 14 8 6 5 5 9 11 10 8 8 15 18 19
7 4 18 17 20 16 16 19 18 23 19 25 18 14 14 13 12 11 11 3 3 3 7 6 8 10 9 4 6 7 16 20 16 6 5 8 4 10 13 8 5 11 15 17 20
9 7 10 5 14 16 19 9 18 18 21 19 18 18 15 13 15 15 15 17 12 7 5 3 5 12 15 17 16 12 15 13 9 13 9 12 13 7 6 16 5 7 13 13 13
9 7 15 19 21 14 19 19 21 17 19 16 18 17 15 17 16 15 12 12 7 5 2 5 3 12 11 9 9 9 10 7 17 15 5 9 7 11 21 13 11 13 12 13 13
23 22 10 8 12 15 13 18 22 19 15 18 13 15 15 9 7 13 6 5 8 10 10 2 3 4 3 8 9 8 11 14 16 8 5 9 5 11 5 6 9 11 12 16 16

GFSSW_850_spd_063.txt.gz
Wind_Speed
13 14 16 19 19 19 19 19 19 20 22 23 24 24 25 27 30 27 30 24 18 19 18 20 14 12 19 19 24 20 7 11 15 17 22 23 2 8 9 12 11 9 14 15 16
13 15 16 17 17 18 19 19 20 21 22 23 23 24 25 26 30 35 17 13 14 17 23 22 21 15 21 13 15 11 5 15 16 21 16 18 4 7 4 9 10 12 14 18 12
14 15 16 18 18 19 20 21 21 22 23 25 24 23 23 24 27 5 8 7 15 17 13 18 18 20 24 24 23 13 15 14 24 32 24 25 7 7 4 2 6 18 24 17 12
16 17 17 18 19 20 21 21 20 22 23 24 25 24 22 19 5 7 4 15 17 16 14 6 17 22 9 14 27 12 23 25 29 34 30 16 23 4 6 3 4 12 17 16 13
17 17 18 20 21 21 22 22 21 21 24 25 24 25 25 4 25 14 12 15 15 12 10 8 13 17 12 12 18 17 16 26 31 32 32 30 12 8 8 10 3 15 13 14 11
18 20 22 22 23 23 22 22 21 22 23 24 23 21 14 10 1 2 12 6 16 10 16 9 12 15 23 15 15 19 20 23 29 26 28 19 9 8 15 16 19 16 15 15 14
20 21 23 23 23 22 23 23 22 22 21 19 19 13 15 30 12 14 12 6 11 8 12 10 12 12 16 5 17 20 13 15 15 21 19 20 11 9 20 22 26 20 19 17 17
20 23 25 25 23 23 22 22 22 19 18 18 17 10 13 8 8 15 7 13 11 14 16 14 15 13 7 11 7 5 5 7 11 14 14 13 16 11 24 30 29 28 25 23 20
20 23 25 25 22 23 23 21 18 15 18 15 11 7 12 7 8 6 8 8 9 12 16 13 12 6 8 3 4 3 5 10 13 15 14 9 17 12 23 27 18 27 28 28 24
23 25 27 24 19 19 19 19 19 11 6 8 6 9 14 4 6 11 5 4 9 8 6 14 6 3 2 3 5 5 6 8 15 18 15 19 18 15 26 16 16 18 16 31 31
23 26 27 23 16 14 18 22 24 6 13 14 14 16 25 25 25 15 6 3 6 1 3 11 4 6 6 9 12 14 14 16 20 19 12 12 22 15 12 12 16 24 23 25 35
24 27 27 19 11 6 12 16 13 12 17 25 34 36 40 29 14 10 8 8 5 2 4 4 10 9 9 13 16 17 17 19 19 16 9 11 9 6 6 7 23 27 31 27 35
23 23 24 18 7 1 8 15 16 20 6 20 13 14 13 9 15 12 14 17 5 6 6 10 11 10 11 20 17 17 17 15 17 19 18 15 8 5 8 12 16 27 38 34 40
19 21 24 18 5 3 5 11 14 20 5 7 7 8 8 5 5 9 17 12 8 10 4 7 16 14 15 17 13 17 13 17 18 17 12 3 5 7 8 16 16 17 26 36 39
17 20 22 14 9 7 11 14 11 11 5 10 8 13 11 7 1 4 16 15 8 6 4 4 1 8 16 16 12 14 10 13 18 23 9 11 4 6 8 7 19 12 29 33 43
17 18 21 9 6 4 13 13 9 2 7 4 7 8 9 13 6 9 6 11 3 6 10 11 11 6 14 13 16 13 13 17 19 9 10 9 4 5 8 11 5 13 26 34 33
16 17 19 19 15 6 7 10 2 4 9 6 5 4 5 9 12 8 8 6 6 3 7 13 16 11 10 12 20 14 12 4 5 6 5 7 8 12 11 13 9 6 19 36 33
18 19 21 18 11 4 5 3 9 9 10 3 4 4 7 10 2 12 10 6 10 8 4 6 4 13 14 14 9 7 15 5 3 2 4 13 6 7 16 19 19 4 8 23 33
19 21 22 6 2 10 4 5 5 7 8 9 8 2 8 12 4 2 10 8 8 14 7 2 4 5 8 7 8 8 16 11 8 8 4 3 5 13 10 7 8 5 21 29 29
18 20 25 12 9 13 5 10 10 13 17 16 5 7 8 6 2 3 0 3 4 7 5 4 4 6 11 15 14 13 9 5 1 3 3 4 5 4 8 5 7 6 11 14 24
14 9 14 8 22 15 8 8 13 28 24 7 9 11 12 10 3 4 4 4 4 4 4 3 5 6 6 5 15 7 8 3 3 6 2 0 3 4 8 7 10 11 19 21 19
8 3 7 13 10 6 9 7 10 23 29 17 10 5 8 12 6 5 3 5 5 3 4 4 4 5 14 16 12 10 13 10 2 2 3 2 4 7 6 7 10 15 23 29 36
6 11 20 16 5 6 7 11 19 19 20 10 10 11 7 10 5 4 6 6 7 2 3 4 4 3 7 5 5 2 5 12 14 6 4 3 3 12 17 17 13 16 27 26 33
4 3 8 18 20 6 8 11 16 23 20 23 17 15 14 8 7 5 6 1 11 4 7 4 1 5 4 9 1 4 9 11 13 5 5 7 4 2 12 11 13 20 26 28 29
7 4 9 2 7 7 9 10 16 7 18 19 12 13 17 10 6 4 5 7 8 10 4 3 3 4 11 14 6 9 13 13 9 11 8 4 12 9 8 15 14 19 24 27 27
6 5 8 12 15 8 9 10 18 18 8 11 9 13 12 10 3 3 5 3 2 5 4 2 3 5 4 9 12 7 17 14 10 6 15 5 8 10 7 12 22 16 25 22 26
16 19 13 8 6 3 3 8 10 14 20 18 13 10 10 7 7 7 6 4 3 1 2 1 2 3 3 11 12 6 3 7 4 5 6 8 10 20 16 12 9 22 25 24 25

GFSSW_850_spd_066.txt.gz
Wind_Speed
12 13 15 16 17 16 17 17 17 19 19 20 21 22 22 27 28 24 27 21 14 8 11 12 13 10 8 13 20 10 1 5 6 7 14 18 10 28 10 13 10 14 17 12 24
13 14 16 18 18 17 18 17 18 19 20 21 22 22 23 27 28 24 8 6 8 4 8 15 19 14 9 11 8 6 7 9 8 9 13 18 12 24 16 7 5 9 8 18 26
15 15 16 17 19 19 19 19 20 21 22 22 24 24 22 25 25 3 7 7 11 8 10 13 18 13 14 17 11 7 13 9 11 25 20 20 23 28 14 5 11 15 24 30 26
15 16 17 18 20 19 21 21 21 21 22 23 24 25 22 20 5 5 5 10 5 7 10 10 11 8 6 9 25 7 14 16 21 28 23 17 31 15 20 17 8 16 23 26 23
16 18 18 20 20 21 22 22 22 21 21 21 21 24 22 9 19 12 17 10 8 7 13 10 9 7 5 6 12 12 15 23 28 29 30 32 23 23 24 26 3 21 28 27 24
14 19 21 22 21 22 22 22 22 20 20 18 18 21 15 6 6 2 10 8 7 11 14 8 4 4 11 8 9 11 17 23 27 29 24 13 18 8 26 21 17 23 29 28 24
17 19 21 22 21 21 22 22 21 19 20 15 17 18 18 25 8 11 11 11 10 10 13 6 4 5 7 5 5 7 9 13 15 12 11 17 16 10 29 23 19 26 28 28 26
18 21 23 24 22 20 22 21 19 16 19 17 14 14 12 9 5 4 3 12 13 12 14 12 8 11 6 6 8 4 3 6 7 6 13 9 17 19 28 21 25 21 26 29 32
20 22 25 25 21 20 20 20 19 18 17 11 10 7 13 5 5 4 5 6 7 13 13 12 7 5 6 1 3 3 5 6 8 8 7 6 13 10 25 21 25 28 27 33 34
21 24 27 25 18 17 17 18 12 3 5 1 3 5 13 4 2 8 6 7 6 6 6 6 2 1 3 4 8 5 4 5 9 1 7 12 17 16 27 22 25 30 25 37 37
21 25 27 22 14 11 17 14 13 4 23 13 8 13 8 10 17 19 11 8 6 2 3 1 3 11 10 7 6 7 9 9 13 8 9 15 18 10 16 16 15 19 23 37 44
22 23 27 20 11 4 12 14 16 15 18 27 35 36 40 35 18 27 9 10 6 4 2 1 9 9 9 9 10 9 9 14 16 10 6 16 10 14 14 13 22 26 27 35 33
21 22 26 21 7 3 7 13 13 16 6 20 12 12 11 19 15 21 13 15 4 5 5 5 3 6 12 12 11 8 10 12 14 15 13 11 9 15 11 7 14 27 35 33 42
20 20 22 22 5 6 2 11 8 14 4 8 6 6 10 8 6 22 16 15 5 9 6 5 3 7 8 10 7 9 12 16 19 11 5 3 6 19 12 9 5 10 22 27 39
17 17 20 16 14 7 10 12 8 6 5 3 4 5 11 10 6 5 15 15 6 5 5 4 2 5 9 14 10 12 7 5 5 5 3 6 6 13 6 8 11 8 18 32 42
16 15 16 16 13 10 12 9 4 1 7 4 7 7 5 7 2 8 9 7 5 5 4 7 5 4 8 11 8 10 7 5 5 4 4 9 6 8 5 11 5 7 9 23 38
15 15 15 19 17 9 9 6 2 4 7 2 5 6 10 7 5 7 7 7 6 3 5 3 14 6 4 4 9 8 2 1 3 3 5 5 7 13 13 11 11 11 23 21 43
16 16 18 21 17 7 2 1 6 5 8 12 10 9 7 4 6 10 8 5 5 3 2 4 6 11 9 8 9 11 6 4 5 1 2 12 6 5 10 13 20 25 26 22 36
17 19 23 17 6 5 3 3 6 5 5 12 15 4 3 4 6 6 10 6 7 10 7 2 4 2 11 7 9 5 6 3 3 2 1 4 5 7 11 12 8 10 6 28 33
17 19 23 2 13 8 5 7 5 5 8 7 4 8 9 8 8 6 8 1 4 2 4 3 4 5 6 7 5 7 4 3 3 3 4 4 2 2 16 13 10 8 7 11 30
13 8 10 0 15 9 8 6 7 14 12 5 4 7 7 5 8 7 2 2 3 4 6 3 3 6 4 8 11 4 4 3 1 2 1 1 2 11 13 15 15 17 26 25 16
5 2 4 2 8 4 9 4 9 15 14 7 7 8 8 5 3 5 3 3 5 5 3 1 1 4 6 9 4 8 8 7 2 5 4 2 3 9 9 13 13 18 24 29 37
4 9 20 16 2 6 6 11 15 14 14 5 5 2 9 6 4 3 4 1 2 3 4 2 2 3 6 3 3 4 9 13 5 2 5 2 2 1 12 14 22 14 19 27 32
4 2 5 6 15 5 4 8 11 12 13 14 12 14 11 5 4 5 6 1 2 3 7 4 1 2 3 3 3 6 6 8 9 3 2 5 3 7 5 14 12 12 17 24 30
7 5 3 2 3 4 8 5 12 12 4 13 5 12 11 5 6 6 2 5 6 4 4 3 1 2 7 12 12 12 8 12 16 12 6 4 11 5 6 5 11 18 19 22 24
6 3 2 6 11 7 7 3 8 9 9 13 6 15 7 4 4 8 4 1 2 5 3 4 1 3 3 5 8 7 13 12 13 16 14 13 10 3 10 3 7 9 20 21 25
9 10 4 5 3 5 5 5 12 12 10 10 14 12 8 6 3 7 4 6 4 3 2 2 1 2 3 7 9 5 3 10 8 7 11 5 4 9 5 6 6 6 18 25 26

GFSSW_850_spd_069.txt.gz
Wind_Speed
14 15 16 17 17 16 18 19 20 21 22 23 24 24 23 26 26 21 22 12 12 11 13 12 11 8 6 11 13 7 2 5 8 8 7 5 5 10 14 13 21 10 10 14 27
15 16 17 18 18 18 19 20 21 22 23 24 25 25 24 27 26 24 4 10 8 5 5 6 11 8 6 6 8 6 5 9 6 8 7 5 11 19 10 19 22 14 15 11 27
17 17 18 20 21 20 20 19 19 20 22 22 24 26 23 24 21 8 8 6 6 4 1 5 9 8 10 11 10 7 13 6 6 15 14 6 16 11 6 11 14 13 17 18 30
17 17 19 20 21 20 21 22 21 20 21 21 23 24 23 17 4 12 11 1 2 4 2 3 4 6 5 7 17 7 7 19 12 20 16 11 20 11 8 26 32 32 29 26 32
16 16 20 22 23 21 20 20 21 21 21 20 22 22 21 9 15 12 17 13 7 8 6 6 6 6 4 4 14 8 4 17 21 19 24 27 15 18 24 40 35 30 24 31 31
17 18 21 24 24 22 22 22 20 19 20 19 21 19 15 7 3 5 10 18 9 7 7 8 6 6 10 7 7 6 13 21 22 25 22 14 17 8 30 33 25 21 32 33 32
19 21 23 25 22 21 22 22 22 19 19 19 19 16 16 28 9 10 11 12 12 9 9 6 3 5 4 5 11 9 7 8 9 5 9 12 13 7 30 29 24 23 34 35 32
20 21 24 26 24 21 21 21 21 20 21 19 16 12 13 15 10 2 3 13 14 12 12 10 11 11 8 10 6 4 3 6 4 8 9 11 22 11 27 27 22 30 36 36 35
20 23 26 26 21 20 19 19 18 18 16 10 9 9 13 9 8 2 2 2 4 11 13 10 10 8 5 3 4 3 5 4 5 8 6 8 12 9 18 16 20 23 36 37 38
19 22 26 24 19 19 18 19 11 8 9 5 3 6 12 2 6 4 2 4 4 2 6 8 6 2 0 3 10 5 4 5 5 1 4 4 10 9 18 21 20 24 25 38 40
20 24 25 23 18 15 19 18 10 4 18 12 15 19 22 7 11 9 3 1 5 2 4 1 2 8 8 6 4 7 5 7 4 5 4 8 11 12 12 12 12 27 21 32 41
19 22 24 21 15 8 10 10 12 14 18 27 36 37 40 25 14 24 16 4 5 4 1 2 6 8 5 6 7 8 11 12 11 11 4 9 13 14 14 13 16 20 24 31 37
21 21 21 21 10 4 6 12 11 15 7 21 13 14 12 21 17 18 17 9 4 5 5 5 4 2 6 8 9 11 10 9 10 5 8 11 13 8 13 6 15 16 24 29 35
19 19 19 19 4 12 2 8 10 13 5 7 5 5 7 5 7 13 13 11 3 8 4 5 4 4 6 5 7 12 7 10 8 6 4 1 5 6 11 8 4 13 15 25 32
16 16 16 16 17 13 14 12 8 4 5 1 1 3 11 7 3 2 16 14 7 5 5 6 4 4 5 6 7 7 5 6 3 3 3 4 3 7 2 7 8 7 15 21 32
16 14 14 14 15 10 14 10 3 2 6 6 4 4 4 4 1 5 6 7 6 3 4 6 4 4 7 5 6 5 9 10 5 3 6 8 6 5 6 6 5 6 15 15 18
15 14 14 16 17 15 11 7 3 3 6 7 4 6 7 3 5 5 6 7 5 3 5 4 11 5 4 3 6 9 4 3 5 4 6 7 8 11 9 9 8 11 20 20 15
12 14 15 17 19 11 2 2 3 2 6 7 7 12 7 6 6 6 6 4 6 2 1 3 5 9 7 12 5 13 6 3 4 3 2 5 5 3 6 7 17 24 30 33 20
13 15 17 15 4 4 4 3 5 4 4 9 11 4 6 6 3 4 8 5 6 11 7 3 4 2 6 5 7 4 11 2 1 4 2 3 5 2 17 17 19 14 19 24 18
13 15 13 10 7 7 3 5 4 4 8 5 3 4 4 11 7 7 7 2 4 7 3 2 4 2 3 6 6 4 3 4 2 3 3 4 2 3 13 16 16 15 9 4 12
9 6 3 6 8 6 4 4 4 12 14 4 4 5 5 9 9 3 4 3 1 3 8 3 2 6 4 5 7 3 3 2 2 2 2 1 2 1 10 12 11 12 19 20 13
2 2 4 5 1 4 5 3 2 7 7 5 5 7 9 4 7 2 4 4 4 4 4 1 2 3 7 7 11 10 7 4 2 4 2 1 3 4 9 13 10 15 23 30 27
2 6 7 6 2 2 5 6 11 13 16 5 5 6 5 2 5 9 6 5 4 1 4 3 1 3 7 4 5 3 10 9 6 1 4 3 2 5 7 12 21 18 23 28 30
2 2 2 4 3 3 4 7 6 10 11 8 9 11 12 6 3 9 5 4 14 2 6 3 2 2 2 3 2 6 11 7 8 2 2 4 0 3 5 10 14 21 18 26 29
6 3 3 2 1 2 4 5 7 4 7 8 5 3 4 4 3 10 4 2 3 3 3 3 2 1 6 7 8 11 12 11 8 6 4 3 8 9 10 6 8 15 12 22 26
5 3 2 3 6 3 5 2 8 6 6 6 5 13 5 5 4 10 2 2 2 3 2 2 1 2 4 4 8 10 11 11 13 11 11 16 12 5 13 13 6 8 12 20 18
8 6 2 2 1 2 2 5 9 13 8 11 10 10 8 11 13 14 10 6 4 2 1 2 3 2 4 6 10 7 0 6 5 11 6 11 8 8 14 14 15 16 13 15 15

GFSSW_850_spd_075.txt.gz
Wind_Speed
14 16 16 17 17 16 17 18 19 20 20 20 21 22 23 24 26 22 23 18 13 13 18 17 11 9 14 12 10 9 5 10 9 9 7 4 4 6 5 6 5 8 17 10 14
15 16 17 17 18 18 18 18 19 20 20 20 21 22 22 25 28 26 12 9 13 15 17 19 14 13 9 8 7 6 6 10 7 9 7 7 6 8 5 7 15 14 13 13 12
14 15 15 17 19 17 18 19 20 19 19 20 20 22 21 23 23 3 5 4 6 9 10 11 10 15 7 6 9 6 12 5 5 10 7 6 15 11 13 12 22 17 19 21 16
14 15 16 18 19 19 19 19 19 19 19 19 20 20 22 18 6 4 9 7 6 8 9 10 11 8 5 8 7 6 9 12 8 16 12 11 14 17 18 18 28 27 27 29 25
15 17 17 18 18 20 20 19 19 18 18 18 18 20 20 11 15 12 15 11 5 6 10 10 11 6 5 5 4 8 8 11 15 14 19 21 21 25 24 21 31 30 27 28 26
15 16 18 18 18 19 20 19 19 20 19 20 20 18 11 6 6 8 12 18 18 13 9 13 7 10 5 6 6 5 7 8 11 19 18 20 21 12 20 28 28 27 26 25 26
16 19 19 19 20 20 20 19 18 19 20 17 16 15 13 23 16 11 12 12 13 18 14 13 11 9 5 4 6 7 8 10 11 12 10 11 10 13 27 27 22 26 26 26 27
19 18 19 21 22 20 19 19 18 19 17 12 12 11 10 10 12 12 9 10 14 15 14 11 11 8 6 7 4 4 4 5 2 3 9 11 18 13 17 19 22 24 26 26 22
14 16 19 21 21 19 19 19 18 12 9 12 8 5 10 4 4 5 3 3 4 13 14 8 12 7 4 2 4 2 6 6 9 7 8 9 11 10 6 7 17 16 16 20 22
14 17 20 21 17 17 18 18 8 8 7 6 2 4 7 1 1 4 2 4 4 8 7 9 5 2 1 6 7 4 5 5 5 4 6 12 15 16 14 13 15 17 18 23 24
15 18 19 17 15 14 17 8 4 2 11 11 11 13 20 15 15 5 6 4 7 5 5 5 7 12 11 9 12 12 13 17 15 12 17 22 21 18 18 16 14 18 20 23 27
14 17 18 14 8 11 11 9 8 8 14 20 21 23 22 23 11 13 13 6 7 6 4 2 10 11 6 6 9 11 14 17 12 13 13 19 23 18 16 18 20 22 24 24 26
14 16 17 13 3 9 8 14 10 10 5 11 6 6 3 3 7 8 15 7 3 6 8 6 2 5 7 6 6 9 11 13 12 15 18 20 24 23 20 20 19 23 23 24 24
14 13 13 12 4 10 4 10 10 6 3 5 1 2 1 0 3 3 6 9 4 10 6 6 4 6 6 5 4 3 5 10 12 9 5 1 8 11 12 15 14 20 18 24 24
11 9 11 13 6 9 10 7 5 1 5 5 2 3 3 2 5 1 7 6 6 5 5 3 3 4 8 7 7 4 4 7 10 11 11 11 8 3 7 7 10 11 19 21 21
10 9 10 10 9 12 9 3 1 2 5 5 3 6 7 3 1 4 3 4 2 4 3 5 2 3 5 4 6 2 5 11 8 6 6 14 13 3 5 3 5 5 10 11 12
8 8 11 12 12 11 5 1 2 2 6 7 5 8 8 4 3 3 4 4 4 3 3 3 5 4 5 5 4 5 4 3 2 4 5 3 9 14 13 8 6 10 15 16 12
6 7 9 10 12 7 2 2 3 3 3 6 7 10 4 9 4 5 2 4 5 2 1 2 1 5 4 10 3 7 6 3 3 3 3 0 6 2 8 9 10 11 13 14 14
6 5 8 9 10 5 2 3 1 3 5 10 11 3 3 6 5 9 2 3 4 10 6 4 3 2 3 3 7 4 5 1 3 5 5 5 6 9 12 13 14 17 18 19 14
7 8 11 9 10 7 4 2 1 4 6 5 3 7 4 9 7 10 3 2 6 5 3 2 3 0 2 4 4 1 5 2 3 3 5 6 6 4 12 14 14 16 18 19 13
5 5 9 7 7 8 3 1 3 6 4 4 3 5 5 7 7 6 5 3 12 8 3 1 3 1 5 5 8 4 2 2 2 4 3 4 1 4 8 9 10 11 16 18 20
4 3 3 6 5 3 1 1 4 6 6 5 4 6 7 8 6 6 4 4 15 12 2 2 1 5 8 3 7 4 2 4 3 2 4 3 3 2 11 12 11 13 15 16 18
4 3 3 3 3 2 3 3 4 3 5 2 4 3 6 5 4 6 5 7 9 13 7 3 1 2 7 4 4 3 3 3 3 2 5 3 1 4 10 13 17 16 16 17 17
3 2 4 6 4 3 1 2 4 2 2 4 6 7 12 12 10 8 4 3 7 13 20 6 4 5 2 4 3 2 4 3 5 3 5 6 6 3 8 6 10 15 14 19 20
3 1 2 1 2 1 3 2 3 4 3 2 1 6 10 5 7 12 12 9 5 3 5 2 3 7 6 4 4 2 6 8 8 9 5 5 6 9 6 8 5 7 12 18 18
4 3 2 0 2 0 2 1 4 3 3 5 3 11 15 6 9 9 9 5 5 4 2 3 3 5 3 6 1 4 9 5 6 9 13 15 16 9 14 12 17 9 12 14 16
5 4 2 0 1 0 1 1 3 9 6 6 11 16 12 10 10 17 22 19 12 5 2 3 1 2 1 3 7 4 5 6 5 6 9 9 7 2 6 13 19 22 18 13 15

GFSSW_850_spd_078.txt.gz
Wind_Speed
13 14 14 15 15 14 15 16 17 18 18 20 21 21 22 23 23 24 21 16 14 15 17 11 9 10 16 17 15 14 11 17 20 14 15 11 15 17 14 16 16 12 9 7 10
13 14 14 14 14 15 16 16 16 16 17 18 19 21 21 23 25 25 12 12 11 11 15 17 15 13 15 16 12 15 15 23 19 13 14 14 17 17 10 13 14 16 13 8 9
12 12 13 14 14 15 16 16 15 16 17 17 18 21 20 21 20 1 1 0 5 10 10 13 13 15 17 12 18 13 22 17 12 16 20 18 19 21 17 19 17 21 19 14 13
11 13 13 13 14 15 16 16 16 15 16 16 17 20 20 16 6 2 4 4 4 8 9 10 12 16 14 15 18 15 16 20 20 19 20 18 22 24 24 22 22 25 24 21 19
12 12 13 13 14 16 16 15 15 16 15 16 16 19 17 7 12 14 12 8 4 8 10 12 14 13 13 9 16 17 19 21 21 24 27 27 26 28 28 24 27 26 24 23 23
11 13 15 14 15 16 16 14 14 16 15 17 16 16 9 9 9 6 8 15 11 9 9 11 8 12 9 11 13 4 9 15 16 19 23 21 24 26 21 24 25 25 23 24 24
13 15 16 15 16 16 15 15 15 16 17 15 12 13 12 17 14 12 11 13 13 14 15 13 11 10 5 8 13 12 14 15 18 21 19 19 22 24 28 27 26 26 23 25 24
12 13 14 15 16 15 14 14 15 15 15 11 9 9 10 9 10 12 10 11 16 15 13 12 11 13 13 11 11 10 12 15 6 5 9 11 16 13 15 17 19 19 20 22 23
11 12 13 14 13 13 12 13 13 11 8 9 4 5 8 3 3 2 4 5 7 14 13 4 8 14 8 11 11 10 10 11 11 11 13 12 12 8 6 11 14 17 18 19 19
10 11 12 11 11 11 11 12 9 8 6 3 1 3 4 1 4 3 4 6 5 8 11 11 10 9 10 10 9 7 10 11 10 4 14 19 19 15 18 17 18 18 17 17 19
10 11 12 11 8 11 11 6 4 3 4 9 8 13 17 13 13 4 3 5 8 12 11 15 11 15 16 16 17 14 13 17 16 16 19 21 22 20 19 22 19 21 22 21 22
10 11 11 9 7 9 10 7 4 5 9 6 6 9 11 9 7 10 10 9 12 13 8 7 15 14 12 13 16 16 15 16 16 12 12 19 22 18 17 19 27 25 23 24 21
11 10 7 5 5 6 10 7 6 6 5 4 3 3 3 3 4 4 11 14 10 13 12 14 5 3 12 13 13 14 14 12 13 14 19 21 23 17 17 28 30 27 28 26 25
7 6 5 3 4 5 2 7 8 4 3 3 1 2 1 4 4 3 6 9 8 10 9 10 10 11 9 12 10 10 3 6 9 9 9 6 7 12 10 12 18 24 25 25 26
5 4 6 9 4 3 4 3 4 1 4 3 4 1 6 6 7 2 5 9 8 8 6 2 5 6 13 17 10 9 3 7 10 12 14 13 8 3 7 7 13 16 23 25 24
3 4 6 7 6 3 1 2 2 4 2 3 2 6 11 1 2 4 5 5 4 7 11 13 5 6 9 5 9 3 8 12 12 9 8 12 11 4 3 7 5 7 4 7 11
3 4 6 7 2 2 4 3 4 4 2 4 3 8 11 6 4 4 7 8 7 5 7 4 13 11 10 10 8 10 8 5 7 5 6 1 6 12 11 11 12 9 12 10 9
1 3 5 7 7 4 3 4 6 4 3 5 5 13 6 6 3 6 5 10 10 9 7 6 5 8 9 13 3 10 11 6 6 4 6 3 7 2 5 4 6 8 12 13 10
3 5 7 8 7 5 2 3 5 3 4 9 12 9 6 2 6 6 8 8 3 10 7 4 5 4 8 4 9 6 7 4 6 13 7 8 9 6 3 6 9 12 14 17 18
7 6 6 8 8 4 1 3 1 3 6 4 5 3 7 7 8 7 6 4 4 3 7 3 8 5 3 6 6 7 2 3 5 4 5 4 7 1 11 12 12 12 15 17 18
6 2 3 7 8 4 3 3 1 2 5 4 4 7 9 11 9 10 7 5 8 7 7 7 8 5 6 10 8 7 7 3 2 5 4 5 2 6 7 9 11 12 15 16 17
3 1 2 5 3 3 4 2 3 3 2 4 6 8 11 12 16 15 16 9 10 10 7 3 5 11 16 8 8 10 8 8 4 4 2 3 2 7 8 10 10 12 14 14 13
3 3 3 5 3 4 4 3 1 2 4 3 4 5 9 12 8 11 16 17 6 4 6 7 5 7 8 7 10 11 7 5 3 2 3 4 2 8 5 10 10 11 12 14 14
3 3 3 7 7 6 3 3 3 2 2 3 6 7 9 10 13 11 14 7 6 13 4 9 7 11 9 2 2 9 11 10 5 3 4 6 12 5 7 5 4 9 11 13 15
3 2 2 4 5 4 2 1 1 2 2 1 3 1 5 6 14 12 18 18 18 5 2 3 7 12 5 2 13 4 7 8 11 10 6 9 11 13 12 4 6 10 9 14 16
3 3 2 8 4 3 2 1 2 1 3 2 3 10 12 9 13 14 11 12 10 4 3 1 4 10 7 8 16 9 10 8 8 5 9 11 12 4 9 6 13 15 13 10 14
6 7 3 5 4 2 3 2 2 7 4 8 9 14 11 7 13 22 23 22 19 14 4 3 5 10 5 8 8 10 11 5 4 4 4 8 12 9 9 4 15 15 15 15 12

GFSSW_850_spd_081.txt.gz
Wind_Speed
14 14 14 14 13 13 15 15 16 17 18 18 19 19 19 21 21 21 21 16 15 16 14 7 10 16 19 24 26 21 17 21 26 24 23 10 16 24 20 22 22 15 18 10 3
15 15 14 14 14 14 15 15 15 16 17 17 18 19 19 19 23 21 16 16 18 14 14 15 15 15 22 22 27 20 16 28 22 21 17 12 19 17 17 15 21 21 21 15 10
15 15 14 14 14 15 15 15 15 16 17 17 18 18 17 18 15 1 1 2 1 5 9 14 16 16 22 22 26 24 25 22 23 19 15 20 20 25 21 20 18 18 19 20 15
14 15 14 14 14 15 15 15 15 16 16 16 17 18 16 12 7 4 6 4 3 5 8 12 17 19 19 20 24 23 26 25 22 27 23 18 26 26 26 25 25 24 22 25 18
14 14 14 13 14 15 16 14 15 16 16 16 17 18 14 9 14 13 13 7 4 6 11 13 17 19 19 19 23 23 22 26 27 26 23 26 25 28 34 30 29 27 29 29 27
12 13 14 15 15 17 16 14 15 16 16 16 17 16 9 15 6 6 5 8 9 9 11 14 13 14 18 16 18 19 16 20 23 26 23 23 25 30 35 33 33 33 33 30 27
11 13 14 14 16 17 15 15 15 16 17 16 14 11 12 21 8 8 8 8 10 14 16 13 14 12 7 13 18 21 21 21 22 23 23 27 26 27 33 34 31 31 29 29 28
13 12 13 15 17 15 14 14 15 16 15 12 10 6 9 7 8 11 11 11 14 14 14 15 13 16 18 17 21 17 19 19 17 18 13 17 21 19 19 24 27 28 27 29 27
11 11 12 15 14 11 11 11 13 13 10 8 1 9 7 5 2 3 7 9 10 12 11 9 12 17 16 13 14 15 16 17 15 9 12 17 19 16 12 16 20 20 22 24 26
10 10 11 11 9 7 6 7 7 7 1 3 5 7 5 0 4 5 6 8 7 7 11 12 10 12 15 14 15 12 17 18 13 6 10 16 20 20 26 26 22 20 21 24 25
8 9 9 7 5 3 2 6 3 6 8 11 12 15 13 12 15 12 9 8 9 10 11 15 12 16 18 17 20 19 19 21 18 17 19 21 23 22 24 29 24 25 24 24 21
10 11 7 3 1 5 6 1 4 3 8 6 7 8 9 6 6 8 13 10 14 13 13 10 15 17 13 15 16 17 19 20 20 17 15 22 23 20 22 23 29 29 28 28 24
12 9 4 1 1 6 7 3 2 4 6 5 5 4 2 4 3 2 11 15 13 13 14 15 15 2 9 15 16 18 18 18 19 17 19 22 24 24 23 29 33 31 31 30 25
7 3 1 6 3 1 0 4 5 1 5 9 7 4 2 4 4 2 3 9 8 13 13 15 15 17 16 18 16 17 17 12 13 14 13 18 15 19 17 14 15 21 29 25 26
3 1 3 5 2 2 3 4 3 1 4 4 7 2 3 5 8 5 2 6 10 12 8 14 10 10 14 16 14 14 8 11 16 16 18 21 13 15 7 12 9 9 14 25 26
2 2 3 3 2 3 5 1 1 5 3 6 3 1 6 4 2 3 4 5 8 10 14 16 16 9 14 9 10 14 8 17 20 15 14 21 17 12 5 9 10 8 7 11 19
3 2 1 2 4 7 2 1 6 6 4 5 1 2 8 12 8 5 9 11 10 9 14 18 17 17 7 13 9 9 10 7 9 10 11 7 4 12 3 9 4 6 8 11 10
4 4 3 2 2 1 0 6 6 5 4 3 5 12 14 11 11 10 13 14 15 15 13 14 10 12 10 16 11 12 13 8 7 6 12 7 6 4 11 5 3 5 10 12 16
5 2 1 2 0 0 6 6 6 6 4 7 11 15 12 4 3 15 14 16 15 5 12 13 13 9 9 7 12 6 10 16 15 18 12 10 15 14 13 11 11 12 13 14 14
4 3 1 1 0 1 5 3 1 4 5 4 6 3 9 9 7 12 8 5 5 6 12 17 17 14 14 8 12 14 4 5 6 5 9 12 14 7 11 13 14 14 15 17 19
5 4 2 4 6 4 3 3 1 3 5 4 5 9 11 13 13 15 13 10 6 9 15 17 15 18 11 12 16 10 12 8 5 6 4 6 4 6 11 12 12 12 15 16 19
3 1 2 5 1 2 3 2 0 2 1 2 4 5 6 9 12 14 18 20 8 11 13 10 8 14 21 17 16 9 13 13 6 7 5 5 1 7 8 6 8 12 13 14 15
1 3 2 3 2 3 4 4 0 2 1 1 3 3 8 10 8 9 13 16 22 12 2 6 6 10 17 14 14 12 17 10 6 2 11 6 1 8 6 6 1 7 11 12 14
2 2 3 2 3 6 5 3 6 2 3 2 3 4 6 8 10 9 15 12 11 12 3 1 5 14 15 6 3 9 20 11 13 5 7 9 11 10 9 6 2 8 11 10 13
1 1 2 3 4 5 7 5 4 3 5 4 1 4 3 5 14 12 13 12 18 19 14 5 9 14 20 25 7 1 15 16 16 11 7 11 13 12 8 8 7 10 10 12 13
2 2 3 7 7 4 2 4 2 3 2 3 3 7 10 12 12 16 14 15 10 12 5 4 9 11 19 22 12 8 14 12 8 9 10 10 10 10 15 10 9 10 10 13 12
1 1 4 7 7 5 4 3 3 3 4 7 6 10 13 13 14 23 25 26 20 17 16 6 5 6 11 18 8 4 17 17 8 5 6 7 13 17 15 11 13 13 12 12 11

GFSSW_850_spd_084.txt.gz
Wind_Speed
16 17 17 17 16 16 16 16 16 17 18 18 19 20 19 20 23 23 24 17 15 20 18 12 11 13 17 22 24 25 15 19 25 25 23 29 21 23 15 23 21 20 14 12 11
18 18 17 16 16 16 16 16 17 17 17 17 18 20 19 20 24 25 20 21 20 23 23 15 15 15 19 17 26 19 17 26 24 23 22 26 25 18 19 19 20 20 16 20 11
20 19 18 17 16 16 16 16 17 17 17 17 18 19 17 18 19 2 4 3 5 5 11 12 15 17 22 23 24 27 24 22 27 31 32 26 21 20 21 17 20 17 23 25 19
20 19 19 17 16 16 16 16 17 17 17 17 18 18 16 13 6 4 10 14 8 6 9 10 15 19 17 19 26 25 30 31 29 32 31 24 30 19 27 27 27 25 23 19 21
20 19 18 17 16 17 18 17 18 19 17 17 17 17 14 9 15 12 15 14 6 6 10 12 14 17 17 19 24 24 24 31 29 31 33 29 25 24 32 30 30 29 28 25 24
19 18 17 17 17 18 18 18 19 19 18 17 17 16 10 13 7 5 9 7 8 8 10 13 14 15 18 19 18 23 24 24 24 26 29 24 26 28 32 33 35 34 34 32 30
17 16 17 17 18 18 18 18 18 19 18 17 15 12 11 26 9 8 10 10 11 13 15 13 13 15 12 13 19 23 21 20 22 26 26 29 27 26 34 33 36 34 33 34 35
15 16 16 17 18 18 17 17 18 18 17 13 10 6 10 6 9 11 12 14 15 14 14 15 13 14 17 18 22 19 19 18 18 23 26 27 26 24 31 29 30 34 31 31 31
15 14 15 17 17 15 14 15 16 14 11 6 2 8 9 6 8 4 7 12 12 14 13 11 10 15 16 14 15 15 18 21 23 24 20 13 21 20 24 22 18 18 19 26 30
13 14 15 16 13 11 10 9 9 9 3 1 7 7 11 6 3 5 5 7 7 6 9 11 8 11 14 14 15 15 17 18 19 14 14 17 20 20 24 25 25 26 25 19 21
15 14 13 13 8 6 6 3 3 4 14 12 5 16 15 8 13 14 13 9 9 12 12 17 11 15 18 19 19 17 19 20 22 20 19 20 22 22 22 25 22 27 29 23 26
13 12 12 10 5 2 1 4 3 4 9 21 18 13 10 5 5 5 11 8 15 14 16 14 15 16 16 16 15 16 19 20 19 21 20 22 24 21 20 23 27 26 27 28 23
13 11 9 5 4 3 2 1 4 3 7 10 11 6 1 3 3 2 8 16 15 16 16 17 17 12 8 13 15 17 18 18 22 20 21 20 26 24 23 30 36 31 27 29 24
11 9 4 7 1 0 2 4 6 1 4 11 8 6 5 3 5 4 4 11 13 16 17 14 17 17 16 18 14 17 17 19 17 16 14 16 16 21 20 18 13 20 30 28 28
8 6 5 10 6 1 4 7 5 2 4 13 10 7 5 6 7 8 3 6 13 11 7 11 11 12 14 16 16 18 17 15 13 16 19 20 14 16 21 20 18 10 16 20 28
6 4 7 3 3 4 7 3 2 3 5 5 8 6 7 17 9 7 6 7 9 12 14 18 19 15 13 13 15 9 13 16 15 14 13 22 17 17 15 7 12 13 18 18 6
5 5 8 7 2 9 1 2 4 5 8 8 3 2 3 7 13 10 10 13 8 10 13 17 19 19 17 11 12 10 11 8 11 10 13 14 10 17 11 3 4 9 20 21 26
4 6 3 2 6 3 4 5 6 3 9 5 2 7 12 14 15 10 16 13 16 17 16 16 16 16 18 14 10 14 13 8 9 7 11 6 7 1 13 16 27 29 25 22 25
5 3 2 6 3 5 3 5 6 9 5 6 9 12 13 12 3 4 12 15 16 19 16 11 17 8 3 9 10 10 12 14 18 17 14 11 15 7 22 18 17 19 20 22 25
5 1 3 4 2 5 4 4 2 5 6 4 4 4 6 11 10 7 11 11 16 18 19 11 14 19 15 13 14 15 7 5 3 4 8 8 6 6 12 13 11 12 14 15 19
3 2 4 3 2 5 4 2 3 6 5 4 4 7 8 9 10 11 8 17 12 12 14 13 8 13 22 10 15 13 13 12 5 8 3 4 3 1 4 3 8 8 11 9 12
2 2 2 4 4 4 2 3 2 3 1 1 3 3 4 6 9 10 13 12 20 23 15 8 4 13 20 20 21 20 15 16 8 7 6 9 3 7 7 5 3 8 11 9 10
4 4 1 2 2 4 3 4 2 1 2 1 2 1 7 6 5 6 10 11 15 15 11 1 5 8 15 16 16 8 11 20 18 3 9 5 4 7 8 5 8 9 12 10 11
2 1 3 4 1 3 4 4 5 2 2 2 4 3 4 5 9 8 15 6 9 16 3 7 9 11 14 10 14 14 17 17 12 6 5 7 9 11 10 6 9 12 12 11 12
2 3 1 2 3 5 4 2 3 1 4 7 2 4 6 7 11 14 12 13 14 16 13 11 16 17 21 24 16 16 22 10 17 15 8 9 9 14 11 7 15 12 11 12 14
1 4 3 6 6 5 2 5 3 5 2 4 2 9 11 10 13 15 14 14 16 13 11 10 12 17 20 20 19 25 20 6 9 10 7 19 3 14 18 16 15 12 11 12 15
1 4 5 8 5 5 6 4 2 1 5 9 8 9 11 14 20 22 23 26 22 19 16 11 4 8 14 14 14 12 18 10 11 19 10 3 8 12 12 14 16 13 12 12 13

GFSSW_850_spd_087.txt.gz
Wind_Speed
20 19 19 18 17 17 17 17 17 18 19 20 20 21 21 22 24 24 27 20 15 11 13 12 13 8 7 15 25 25 7 12 14 17 17 25 19 34 29 18 15 12 10 4 12
23 21 21 20 18 17 17 16 17 18 18 18 19 20 19 21 25 28 20 11 12 15 18 19 16 11 11 10 11 7 10 15 9 13 16 25 19 23 25 17 15 8 10 9 14
24 23 22 21 20 19 18 16 16 17 17 18 19 19 18 19 22 6 4 4 3 7 12 15 13 16 21 18 15 7 15 13 17 25 28 22 25 25 14 13 18 15 20 17 14
26 25 23 22 20 19 19 18 17 17 18 18 18 19 15 13 5 2 5 11 12 9 9 9 12 21 5 9 28 14 20 26 27 33 32 22 28 20 21 18 31 28 25 24 21
27 25 24 23 21 20 20 19 19 18 19 18 18 18 15 8 20 18 13 13 12 6 9 8 13 15 10 6 17 15 15 24 26 28 25 28 19 21 23 31 32 35 36 32 28
27 23 25 24 22 20 20 19 19 19 19 18 17 17 12 8 4 7 10 13 7 6 3 8 14 18 17 14 12 18 18 18 19 20 19 12 10 17 26 26 34 35 38 40 39
25 25 25 23 22 20 21 20 19 19 18 17 16 13 13 28 8 9 10 12 10 13 18 18 17 18 17 8 12 15 9 11 8 14 14 22 18 19 32 33 36 37 40 39 39
23 23 22 22 21 21 20 19 18 17 16 13 10 8 12 10 5 13 16 16 15 11 15 17 16 15 11 13 15 7 7 7 5 10 20 14 20 22 36 33 33 38 43 41 44
21 20 19 19 19 18 18 16 15 13 10 8 7 6 11 4 10 4 3 11 12 15 12 11 11 11 14 5 4 5 8 11 18 14 16 11 16 12 29 20 16 21 21 20 32
20 18 17 18 17 16 16 12 11 9 4 5 6 6 11 5 4 5 6 7 8 6 16 14 5 4 3 2 6 6 7 8 7 7 14 12 10 12 20 24 21 24 33 31 32
18 18 17 17 16 13 9 7 6 3 13 13 12 9 10 12 13 13 12 9 8 12 7 13 4 8 9 11 16 16 16 15 12 12 10 15 15 15 18 26 24 29 36 33 37
14 14 17 21 13 8 4 4 2 2 8 21 24 23 22 13 7 13 11 14 11 8 8 5 9 13 13 16 16 17 13 8 8 9 12 15 14 11 13 18 21 28 35 34 35
15 18 16 10 8 9 2 4 10 6 3 11 19 23 14 13 7 8 10 14 5 7 10 9 10 16 17 16 10 9 6 8 13 13 14 12 21 10 14 18 28 31 39 35 33
16 13 9 6 7 5 7 11 6 2 0 5 9 9 9 9 6 11 5 5 5 8 10 10 12 13 12 11 7 11 8 14 14 12 9 3 16 15 17 20 21 20 31 32 33
10 6 7 13 6 4 5 7 0 3 2 13 10 12 9 8 1 8 8 4 5 9 4 7 9 8 7 8 5 13 9 8 7 13 9 13 10 13 16 20 17 13 37 11 27
9 8 9 10 7 6 6 4 5 1 4 10 9 8 8 13 10 12 9 8 6 5 9 12 17 7 8 8 4 6 5 7 8 7 9 19 5 8 8 8 5 11 21 25 26
9 9 12 10 4 10 5 7 2 2 10 4 7 5 3 3 7 3 7 7 4 3 7 14 16 19 16 10 3 4 2 3 3 3 8 5 6 2 22 16 16 15 21 23 29
6 8 9 6 9 6 7 2 3 7 7 5 6 6 3 5 6 11 4 4 5 7 6 8 14 9 14 17 9 7 8 4 4 3 10 17 4 2 6 21 22 16 15 23 30
5 6 5 6 2 10 3 2 2 5 5 4 5 5 5 5 3 5 4 5 6 13 6 6 6 12 11 4 9 4 6 14 11 10 8 6 7 10 9 10 13 21 24 27 31
6 4 5 5 4 8 1 2 4 9 6 6 2 5 4 9 7 9 6 6 11 7 7 6 8 7 10 10 6 8 4 3 2 4 5 5 2 2 11 7 9 11 16 22 27
6 3 3 3 7 2 2 1 9 8 9 7 6 5 6 5 5 5 3 10 11 12 8 7 1 9 11 3 6 5 6 4 4 5 3 4 2 3 7 8 5 8 16 21 22
2 1 2 4 2 4 1 4 2 7 4 4 1 1 1 5 3 3 4 5 16 12 5 3 3 6 16 21 18 17 10 5 7 6 5 0 1 5 10 7 6 11 12 18 20
2 4 4 2 2 1 3 7 6 2 5 2 2 5 6 3 2 3 7 12 11 5 2 5 3 5 10 7 7 8 8 11 15 0 8 6 3 10 11 5 15 13 13 15 20
2 2 2 2 3 4 5 6 5 5 6 2 3 3 3 3 4 3 5 4 12 9 3 2 3 6 8 13 11 11 20 17 6 4 4 5 6 1 1 13 12 13 11 13 18
2 1 1 1 2 6 5 2 9 4 3 6 1 3 1 2 5 6 9 11 12 9 8 2 5 8 13 18 19 17 21 17 14 16 5 9 11 9 13 14 12 13 10 16 18
2 3 1 7 7 6 3 2 1 7 1 4 3 4 5 4 5 7 9 8 4 5 4 3 3 5 11 17 18 21 19 16 14 15 8 2 7 12 18 18 17 13 12 15 16
4 5 3 6 2 2 4 3 4 7 4 2 4 4 6 6 13 17 20 18 13 12 11 7 3 2 8 13 12 10 13 16 10 7 1 0 5 4 9 13 15 12 12 14 14

GFSSW_850_spd_090.txt.gz
Wind_Speed
23 23 22 21 19 20 20 19 19 20 19 20 22 23 23 25 26 26 30 23 17 8 8 8 10 6 6 12 17 6 3 4 5 6 9 25 16 28 17 13 28 23 23 6 18
26 25 24 23 21 20 20 19 19 19 20 20 21 22 21 23 26 29 15 12 8 8 9 11 13 10 5 5 7 6 5 7 8 8 8 18 22 32 15 14 17 27 22 3 16
29 28 27 26 23 22 21 19 19 19 20 20 21 22 20 21 24 5 2 5 4 4 7 11 10 9 8 12 7 5 10 5 9 20 25 19 24 32 21 12 14 20 25 17 11
32 30 29 27 24 23 23 21 19 20 20 21 21 21 18 15 6 3 2 10 8 7 8 7 10 6 4 7 15 6 13 16 17 29 25 18 34 26 23 22 26 26 27 26 21
34 32 29 26 23 23 23 22 21 20 21 20 19 19 16 11 26 19 21 12 9 6 7 9 9 5 3 4 7 8 14 22 28 30 31 30 22 24 29 25 20 22 27 33 33
33 31 27 25 24 24 23 23 21 21 20 19 17 17 13 10 4 4 5 7 7 7 5 11 5 5 10 6 6 14 14 12 15 16 15 7 11 14 18 30 37 34 34 34 33
32 29 26 25 25 23 22 22 22 21 19 18 16 15 16 31 9 6 11 9 7 9 10 9 12 9 10 5 9 7 5 7 5 7 5 12 19 10 25 32 37 41 43 42 44
32 29 25 23 23 22 20 21 21 20 18 15 13 10 15 14 11 18 21 18 12 14 13 13 10 11 5 7 10 6 3 3 1 5 11 4 18 15 31 29 32 40 36 36 37
25 22 25 24 20 18 19 20 19 16 13 11 8 10 14 8 11 6 13 14 17 13 13 9 9 4 4 3 5 4 5 10 9 5 8 6 12 10 26 26 21 22 24 26 29
24 28 27 25 20 17 14 13 12 14 8 6 8 6 17 4 3 6 10 7 10 12 18 12 4 2 2 4 7 5 4 7 7 5 5 13 13 13 22 25 23 25 27 30 34
26 25 25 22 18 14 12 13 9 8 18 16 14 10 5 4 12 11 13 11 7 4 5 5 3 8 10 9 6 8 9 14 15 11 5 8 13 17 16 20 19 24 31 35 39
23 21 17 15 15 15 18 9 9 4 9 26 29 24 24 12 10 12 14 11 6 5 3 1 10 14 11 10 10 10 13 17 16 13 6 15 21 20 12 11 24 28 29 34 41
19 16 14 13 15 18 14 8 10 10 5 9 25 29 23 12 12 10 14 15 4 8 6 9 11 11 13 13 11 10 9 6 11 8 7 5 17 16 7 12 24 28 20 21 26
17 15 14 14 13 13 12 11 8 7 2 5 9 9 14 11 6 14 11 11 5 7 7 8 14 14 13 9 14 12 8 7 7 5 10 4 11 7 8 16 17 17 19 25 30
16 13 14 16 8 10 7 10 5 4 2 6 9 9 18 11 3 9 15 11 7 8 4 7 4 4 5 4 4 7 6 5 5 5 6 16 5 4 9 10 19 20 23 25 32
14 14 13 13 10 11 7 7 5 2 7 7 7 11 8 10 3 12 8 6 5 5 5 8 5 4 6 6 5 1 2 4 3 0 9 18 7 2 2 6 16 18 28 23 32
14 11 12 13 9 10 6 8 4 4 10 7 7 10 11 6 8 6 6 3 2 2 3 5 6 4 6 8 3 4 5 3 4 0 6 4 4 5 4 12 11 13 21 26 28
10 12 17 16 6 8 8 2 4 1 4 4 4 6 4 2 1 2 4 4 6 3 0 3 5 5 9 4 10 8 8 5 6 4 10 8 6 2 5 10 12 10 13 30 35
7 11 12 12 8 9 6 3 1 3 3 4 2 3 3 3 4 3 6 4 4 10 3 4 4 11 6 8 2 4 5 9 5 7 6 4 2 2 5 5 5 11 14 16 18
11 9 6 8 5 11 2 5 3 5 4 4 3 5 4 4 4 4 5 4 3 8 3 4 5 3 8 8 6 5 1 1 2 3 5 4 4 2 6 8 9 7 11 12 16
13 3 4 6 9 6 3 1 5 6 3 3 4 4 5 3 5 3 4 6 3 3 6 4 1 3 6 5 7 9 6 5 4 4 4 4 4 4 7 6 6 5 11 18 21
6 2 7 10 3 4 2 3 9 5 11 6 4 6 5 4 4 3 4 5 6 1 2 3 3 4 4 11 13 9 5 3 3 5 4 4 9 6 8 5 10 11 12 15 21
7 4 8 8 2 1 2 5 8 4 7 4 4 5 5 3 3 3 4 5 10 4 2 1 3 4 10 4 6 5 7 9 9 8 4 3 5 4 4 10 12 12 16 19 22
3 2 4 7 3 4 4 3 4 9 5 5 5 7 5 4 5 3 5 6 15 7 2 1 3 4 4 9 9 14 15 10 5 4 8 9 12 11 10 9 7 12 14 17 21
1 1 1 2 3 5 3 4 7 3 3 4 4 4 4 3 5 4 5 5 7 3 4 3 2 1 6 11 14 16 15 15 13 13 8 10 16 8 7 10 10 11 11 16 21
2 2 2 4 6 6 4 2 6 8 3 2 4 2 5 3 2 2 0 1 4 1 2 4 3 3 14 12 14 16 16 17 15 15 15 17 11 4 15 15 14 12 13 16 18
3 3 2 3 3 4 2 4 6 4 6 11 5 3 4 1 4 11 14 12 10 7 5 5 3 2 8 6 12 11 9 15 13 7 9 10 3 8 7 12 16 13 14 15 16

GFSSW_850_spd_093.txt.gz
Wind_Speed
25 24 23 23 23 22 22 22 22 22 22 22 24 25 26 28 28 29 30 24 21 13 11 13 9 6 7 9 11 7 1 3 5 6 4 10 5 19 18 19 16 15 23 24 27
29 28 26 25 25 24 22 22 22 22 23 23 23 25 25 28 30 32 19 13 10 12 11 12 12 10 6 4 7 6 4 9 6 4 4 10 14 28 5 15 23 30 23 24 22
32 31 30 28 27 26 24 22 23 22 23 22 23 24 23 24 28 5 3 6 5 2 7 8 8 9 8 6 7 6 7 4 4 9 13 7 16 28 13 14 15 26 29 28 19
34 34 33 30 29 27 25 24 22 23 22 22 22 24 21 18 6 3 5 4 10 5 6 8 11 6 5 6 12 5 8 9 6 19 19 10 21 13 24 23 27 29 29 23 19
38 37 37 32 28 29 27 25 25 23 23 21 21 22 19 10 28 22 23 22 12 8 8 10 10 7 5 4 7 6 10 18 23 24 24 29 16 17 23 27 23 23 25 28 28
43 41 39 35 29 29 26 26 24 23 21 20 20 20 15 8 10 5 10 15 9 9 9 14 7 5 8 5 6 7 7 14 11 14 12 11 8 7 9 26 27 29 32 33 33
43 46 40 36 30 27 25 24 22 22 19 18 19 17 15 34 11 9 12 13 10 7 10 9 9 7 3 5 8 7 6 5 5 5 6 13 11 6 15 22 22 24 28 32 34
47 43 36 32 30 29 23 22 18 18 20 15 16 12 14 21 15 23 26 20 14 15 14 12 10 11 9 7 7 4 1 3 3 5 7 3 15 7 15 16 26 30 34 34 31
51 41 34 29 28 26 24 21 17 17 16 13 10 7 15 12 16 12 23 27 21 17 14 15 10 10 4 3 4 3 4 4 7 4 3 5 13 4 25 21 22 29 33 33 35
48 40 29 27 27 23 22 16 11 10 10 7 7 5 17 6 5 8 12 14 13 13 16 12 7 3 1 4 6 5 3 3 4 6 2 7 23 15 18 17 20 25 33 37 40
47 38 33 29 23 21 21 12 9 9 19 16 17 10 6 12 6 6 13 14 11 7 6 6 3 10 11 7 3 4 4 6 7 10 4 13 21 19 14 12 17 24 27 31 31
45 39 28 24 19 19 15 12 10 4 10 26 34 22 21 9 5 10 15 13 9 7 4 2 9 11 6 5 6 6 7 11 7 13 6 10 18 14 7 9 18 22 19 23 32
41 29 24 17 17 19 17 20 10 9 6 12 28 33 29 16 11 12 19 21 4 7 7 6 9 4 7 5 5 7 6 10 12 5 6 5 14 12 7 3 14 16 18 22 25
31 25 19 17 13 15 16 12 5 7 3 6 9 12 17 19 7 24 21 11 4 12 6 6 11 12 7 8 8 7 9 13 7 4 5 4 8 20 4 4 3 7 15 22 28
21 18 17 16 6 14 9 13 8 4 4 4 7 8 19 24 7 15 19 13 8 7 7 7 2 4 8 8 8 8 9 7 3 4 7 5 1 9 6 4 7 10 15 18 25
18 18 15 11 12 12 13 12 8 3 8 4 8 8 10 11 3 9 12 7 3 5 2 7 4 3 6 6 6 3 2 3 3 2 5 12 7 5 3 3 9 9 12 18 27
13 7 10 14 14 13 10 12 3 5 4 5 6 11 10 7 4 5 7 3 2 3 4 2 4 3 1 3 2 4 4 2 3 1 6 4 2 6 5 9 9 9 13 19 29
14 10 14 17 15 15 13 1 7 9 4 3 4 14 5 3 3 4 6 5 6 2 2 3 2 3 4 2 3 5 7 5 6 4 6 2 5 5 6 8 4 9 12 28 33
11 12 13 17 13 16 11 4 4 4 4 5 4 5 2 4 4 5 4 3 3 5 2 2 4 3 5 2 1 2 1 4 5 2 3 4 5 6 5 5 1 9 17 24 27
13 14 13 16 18 14 2 5 2 4 6 4 3 5 3 3 4 3 4 3 4 4 1 1 2 3 4 1 7 6 4 3 3 3 4 4 4 4 3 6 4 9 14 18 25
14 7 12 15 16 7 3 4 1 3 3 5 3 3 4 3 3 3 4 2 4 3 6 1 3 3 4 4 2 4 2 3 3 4 3 3 4 4 4 5 6 6 13 14 22
8 3 14 19 4 3 3 4 3 4 5 3 4 6 3 3 3 3 4 4 2 2 3 3 2 1 1 8 5 3 2 4 1 3 3 3 5 7 7 7 7 10 14 12 17
10 7 11 11 3 3 2 3 5 2 3 3 3 4 4 3 5 4 5 6 15 4 3 1 1 2 1 4 5 4 4 3 3 6 7 5 4 10 5 5 11 11 15 14 17
5 3 5 11 6 3 4 3 4 6 5 6 3 5 4 4 6 3 3 4 9 5 9 4 1 3 4 5 1 6 9 8 6 3 5 7 12 11 13 8 10 13 13 16 20
3 2 5 4 3 3 3 3 5 3 2 5 4 5 3 3 2 3 4 3 3 4 4 3 2 2 5 5 5 9 13 14 14 13 11 13 16 11 3 5 9 12 14 16 19
4 2 2 2 6 6 3 2 7 6 3 3 5 7 7 4 3 2 2 1 3 2 3 3 1 1 6 5 8 13 16 16 17 17 15 17 20 6 5 5 10 11 14 17 17
2 4 2 3 2 4 2 3 5 6 9 7 5 4 5 4 6 9 12 10 7 6 4 3 3 2 5 2 8 11 8 11 16 16 10 13 7 10 5 10 11 10 12 15 16

GFSSW_850_spd_099.txt.gz
Wind_Speed
26 26 26 25 24 23 23 24 25 26 25 26 25 24 23 25 27 27 29 19 15 13 12 10 10 11 12 11 8 7 4 7 8 7 4 3 2 3 3 9 6 6 17 20 20
28 27 28 27 27 26 25 25 26 26 26 26 25 25 22 25 27 32 6 4 4 5 11 12 12 12 7 8 8 6 5 10 7 7 4 5 4 9 7 11 15 21 18 18 13
32 31 29 29 29 29 29 27 27 29 28 28 26 25 22 20 23 5 4 1 4 5 7 9 9 9 5 6 7 6 8 6 5 11 8 6 9 8 12 14 14 17 22 15 16
38 36 33 31 30 30 30 31 30 31 28 28 26 25 21 14 6 3 6 6 3 4 7 9 9 7 5 7 8 5 8 11 5 13 12 12 15 16 14 23 23 21 20 19 19
42 40 39 36 33 35 34 32 33 31 29 27 26 24 19 9 20 19 14 13 15 12 9 11 14 8 6 5 6 9 6 9 13 13 14 14 16 16 15 25 20 16 16 18 14
44 43 40 34 37 37 37 33 33 30 30 27 22 21 16 9 21 21 18 21 23 25 23 19 11 15 5 6 6 5 9 11 8 14 9 9 9 7 15 18 17 14 12 12 14
42 42 40 33 34 35 38 34 33 30 31 27 21 17 20 29 21 17 18 20 17 16 17 18 13 12 8 3 6 5 7 6 9 9 8 6 7 8 17 12 8 19 12 16 15
40 40 40 33 33 34 35 33 31 28 25 23 18 13 15 16 21 28 32 27 20 17 17 11 12 12 6 4 2 3 1 4 1 6 2 9 7 9 8 6 16 16 17 17 18
38 36 35 32 33 31 35 33 31 25 19 14 12 7 17 14 21 20 30 35 27 22 20 11 11 8 5 5 3 3 7 5 4 6 4 6 2 8 14 15 16 16 17 17 14
35 34 35 28 33 29 32 29 25 16 10 6 8 4 16 12 11 11 9 23 23 23 14 9 8 6 6 9 10 7 6 5 4 3 3 8 13 15 18 13 16 15 9 7 11
30 31 32 33 40 29 34 21 9 6 16 18 14 10 8 5 5 10 10 16 16 17 12 8 8 16 17 14 9 3 3 7 7 9 4 10 10 13 17 9 14 5 1 5 9
23 28 31 30 34 36 31 15 11 7 9 24 28 26 29 7 4 6 7 9 11 14 15 6 19 14 11 11 10 10 10 11 10 10 7 10 13 14 12 6 4 4 1 5 11
21 24 26 34 36 37 30 21 14 5 4 12 26 35 32 30 15 25 14 10 11 10 16 16 3 17 16 11 10 8 10 7 9 4 6 6 6 2 2 5 7 5 1 4 11
19 25 27 39 36 29 21 19 14 4 3 7 8 11 16 13 13 37 23 18 2 14 8 10 11 10 14 15 11 13 13 14 9 3 3 3 5 3 4 2 5 1 4 10 15
24 34 40 38 24 24 16 20 16 5 3 2 5 2 7 20 2 14 41 15 19 11 7 10 6 13 13 12 13 8 9 11 7 5 2 3 5 1 3 4 4 3 7 11 16
37 39 36 24 17 20 22 29 19 5 7 4 6 6 8 19 5 6 28 21 15 7 6 11 3 6 7 9 17 5 6 4 2 3 6 12 10 4 4 4 2 2 7 12 19
28 24 19 13 17 28 34 19 5 5 2 2 4 7 9 10 12 9 17 12 7 10 10 3 11 2 2 4 6 11 6 4 4 4 5 4 8 9 7 4 2 4 10 15 19
7 10 13 13 29 30 29 3 4 4 6 3 4 5 6 8 6 11 16 8 4 2 5 8 4 1 3 1 4 9 7 4 5 5 2 3 6 2 7 12 13 11 10 14 20
10 12 14 26 25 28 14 3 5 5 6 7 4 4 3 6 3 6 4 3 3 2 2 4 3 3 7 4 1 4 4 1 2 1 3 5 3 5 11 9 8 11 13 16 19
15 13 18 29 22 21 3 3 3 1 3 3 3 5 3 1 3 4 3 3 3 6 1 2 4 2 3 1 5 2 3 3 1 4 7 4 4 2 9 8 8 11 14 15 16
12 6 19 14 22 7 2 4 3 5 3 5 4 1 3 4 3 5 3 5 6 3 3 2 2 1 1 5 2 3 2 4 2 1 3 4 2 2 2 4 4 6 9 12 16
7 3 20 18 3 3 2 4 3 2 3 7 5 4 1 5 4 6 4 3 2 1 3 1 2 3 3 4 3 1 2 2 2 4 1 3 4 3 5 3 3 4 7 10 14
5 6 15 13 2 3 3 5 2 2 4 1 2 3 2 2 4 5 5 2 5 2 3 2 1 3 2 1 2 5 4 5 3 2 4 4 1 6 6 3 4 4 6 10 14
6 3 5 10 3 1 4 5 4 3 3 3 4 5 1 2 6 4 4 4 5 6 10 4 2 1 4 2 3 4 4 3 3 3 3 10 15 15 15 8 3 6 6 9 14
6 4 8 5 6 7 2 8 7 5 3 2 1 3 4 2 3 4 3 3 7 5 4 2 2 1 1 3 2 3 8 7 7 8 7 8 16 19 16 13 5 2 6 11 14
4 4 8 5 9 11 6 6 10 4 2 2 3 1 3 3 1 4 5 2 2 4 2 3 3 2 3 6 6 9 12 10 9 10 13 16 21 19 14 9 8 6 6 9 12
5 5 3 2 4 5 4 4 5 7 4 5 9 7 9 4 6 7 7 7 4 4 2 2 4 3 2 1 3 8 8 9 2 5 9 12 16 12 5 8 6 6 5 7 11

GFSSW_850_spd_105.txt.gz
Wind_Speed
26 27 27 26 22 21 21 23 23 23 23 23 25 25 25 28 29 26 22 15 13 17 12 8 10 12 14 18 18 10 10 15 21 21 19 10 6 16 8 11 11 12 15 12 15
30 28 28 25 25 23 25 23 22 23 24 24 26 28 27 27 29 28 19 19 7 8 5 9 9 11 17 16 14 19 14 22 20 14 16 13 14 15 16 14 15 18 17 16 13
29 30 30 29 28 29 27 26 26 26 24 23 27 28 28 25 20 2 6 2 2 2 5 9 10 12 20 20 23 19 22 20 20 15 16 21 21 19 18 18 19 20 18 15 15
30 31 30 29 30 30 30 30 29 26 26 26 25 24 24 17 8 4 12 9 8 4 7 11 11 16 16 19 23 24 27 25 24 22 18 19 23 22 23 21 21 20 18 17 16
29 28 28 27 28 29 29 30 27 28 27 27 26 23 21 12 19 23 23 20 15 11 12 13 15 17 21 17 20 24 22 26 24 22 26 23 23 23 25 23 22 18 17 15 15
28 28 28 28 29 29 28 28 26 26 26 25 25 22 16 21 14 13 17 13 13 15 18 18 19 20 26 28 24 27 20 22 28 24 23 23 24 25 21 18 19 18 16 15 12
28 29 30 30 28 31 27 24 27 25 24 23 23 19 18 29 20 18 20 22 20 23 24 21 20 21 17 20 26 28 29 25 25 25 23 17 23 24 27 21 20 18 17 15 11
29 29 30 31 29 29 26 22 27 23 23 21 19 14 16 19 20 27 24 23 21 22 23 22 20 23 26 27 35 24 23 23 20 25 28 21 24 19 14 20 20 16 15 12 12
31 31 31 31 30 26 24 20 26 18 21 20 15 8 22 10 13 16 22 26 22 21 19 20 19 23 20 19 20 20 22 25 22 19 13 23 18 24 14 11 15 17 13 14 9
32 32 31 31 26 18 20 23 23 18 20 14 11 7 19 16 10 6 5 15 17 15 20 17 14 16 20 16 20 21 26 26 24 20 17 20 21 19 13 18 16 16 16 14 9
31 31 29 26 17 23 31 29 9 7 16 18 9 16 3 3 7 10 11 10 16 17 18 20 16 23 25 27 29 27 25 30 25 17 14 16 20 17 17 21 20 17 17 12 10
26 23 24 17 20 29 29 32 18 2 10 24 29 38 35 28 30 23 12 13 18 20 20 17 20 29 23 22 19 27 28 28 24 22 12 18 22 20 20 19 19 18 14 11 8
23 21 18 20 20 26 31 22 16 11 5 19 30 33 28 24 37 39 25 26 22 21 24 25 25 12 21 17 18 23 27 24 22 25 22 19 24 21 19 19 19 10 13 11 7
21 20 20 19 24 37 35 25 20 15 2 12 9 9 18 20 16 27 32 34 23 27 21 19 22 23 11 17 21 20 24 21 25 21 17 22 17 19 23 10 11 15 15 13 6
19 19 22 28 25 37 29 26 17 9 5 8 7 4 7 21 6 6 11 30 27 21 6 15 15 21 28 28 12 19 18 23 27 22 21 19 10 13 18 18 17 16 15 10 4
19 20 22 35 25 25 27 21 16 4 10 9 6 8 13 21 17 5 3 20 6 2 6 16 4 9 25 17 15 12 13 18 20 18 16 21 18 13 13 17 19 17 14 6 3
22 24 32 35 30 26 24 25 3 7 1 10 9 13 16 14 15 15 10 17 11 6 13 13 17 6 9 15 20 18 8 4 5 8 11 15 12 19 5 8 18 17 14 4 5
34 38 37 33 29 29 35 3 9 10 21 0 5 12 17 15 16 14 17 17 20 15 3 10 7 19 20 19 12 26 19 6 5 5 8 12 6 7 9 18 16 14 9 4 7
28 17 14 15 22 33 18 6 9 7 5 6 8 13 17 16 14 16 22 19 18 18 9 5 9 14 12 17 20 10 21 24 15 16 10 7 10 10 9 9 10 10 5 7 9
13 10 19 26 31 30 3 6 8 6 4 7 10 5 13 15 16 18 17 12 21 20 14 5 3 7 11 9 15 16 14 16 7 5 10 11 16 8 14 11 10 9 8 9 11
12 6 17 29 31 8 5 9 9 9 7 7 9 9 12 8 15 13 7 4 8 10 9 3 4 4 3 9 5 12 9 6 6 8 6 11 2 6 12 11 9 7 8 10 11
9 3 28 27 5 4 9 5 3 9 10 8 6 7 9 10 9 6 10 3 2 7 15 9 4 6 12 4 4 9 10 4 3 6 7 9 1 7 11 10 3 5 5 7 10
8 6 27 27 5 7 10 12 9 9 11 8 8 8 6 12 6 3 7 4 2 5 9 8 7 8 8 8 6 7 7 7 5 5 11 9 2 8 6 5 6 5 6 8 10
8 4 6 15 11 10 18 12 13 15 8 8 3 5 9 10 9 8 7 4 4 4 1 2 5 8 6 2 2 6 9 8 5 5 10 11 9 6 6 11 13 15 9 9 11
6 6 14 7 9 12 13 10 17 9 14 13 6 11 10 6 9 9 10 11 6 4 4 5 6 6 2 1 1 2 6 7 8 9 6 10 11 9 12 12 11 10 9 9 10
4 5 12 6 25 20 13 11 18 16 14 11 8 8 12 6 4 10 9 10 6 6 5 2 3 5 8 4 6 8 9 11 11 11 13 13 11 14 15 15 10 7 8 7 10
11 7 11 9 16 16 14 16 16 11 4 5 7 7 11 6 3 4 4 3 3 9 7 4 4 4 7 2 4 9 6 8 10 10 7 9 9 14 13 11 15 11 8 8 9

GFSSW_850_spd_108.txt.gz
Wind_Speed
26 26 26 27 26 25 23 21 22 21 20 21 22 23 23 25 26 24 20 17 18 23 22 7 10 11 13 18 20 19 12 15 23 22 21 24 12 5 10 10 8 8 15 17 15
28 27 27 27 27 26 23 24 23 23 25 24 24 24 24 26 26 24 20 13 15 7 5 4 9 10 14 16 15 18 13 22 22 22 21 21 21 15 12 16 15 14 16 14 14
27 27 26 27 27 27 25 25 25 26 26 25 24 24 24 23 20 3 2 3 5 10 9 9 14 14 18 19 22 22 20 21 27 33 34 26 20 24 22 18 19 16 16 15 12
28 28 28 28 28 27 26 24 24 26 27 26 23 24 21 16 7 1 13 19 23 21 14 12 13 16 17 18 22 23 28 29 31 34 32 24 27 24 27 24 22 19 16 14 14
25 24 25 24 24 24 25 24 24 22 26 22 22 22 20 11 23 25 27 25 18 15 14 12 14 16 18 16 21 23 23 31 31 32 31 29 25 28 29 29 25 22 21 18 16
24 24 24 24 25 26 25 25 25 21 23 21 18 21 17 21 19 13 18 16 16 13 16 16 18 20 26 26 22 27 32 33 34 30 29 25 27 29 30 30 28 26 26 20 16
24 25 25 26 25 26 26 24 23 20 19 21 17 19 18 32 21 22 21 21 19 18 21 19 20 23 21 21 22 27 25 22 23 31 30 31 31 27 31 31 31 25 20 19 15
24 25 25 26 27 26 25 22 19 19 19 18 16 17 16 19 14 23 20 22 24 20 22 21 21 26 26 25 30 25 26 24 22 26 27 26 34 20 28 31 31 30 21 18 17
26 26 27 27 27 25 23 18 15 17 19 14 13 8 17 5 11 9 14 19 17 20 17 14 15 23 22 18 19 18 22 27 32 26 26 25 32 25 30 34 18 24 22 18 17
26 27 27 27 25 22 16 14 19 15 18 12 15 7 18 19 9 4 3 8 13 14 16 18 14 16 15 14 18 23 22 25 27 24 25 26 27 19 27 17 13 16 18 19 17
24 25 27 24 20 18 19 14 7 7 20 20 14 13 8 3 7 6 5 7 10 15 15 20 15 18 20 21 25 27 27 30 28 27 29 24 23 21 19 25 16 21 22 18 16
24 24 23 16 14 18 14 23 16 6 14 28 36 38 32 26 26 27 18 19 14 17 18 18 24 22 23 23 23 24 26 25 25 26 24 20 19 28 19 21 23 24 24 20 16
23 24 20 14 15 18 21 26 13 8 8 19 30 30 31 26 35 32 21 26 22 20 20 22 23 22 23 21 22 25 22 22 24 23 26 19 17 24 29 24 27 27 26 26 21
23 22 18 16 17 22 25 25 17 10 5 10 13 11 22 30 21 26 26 32 26 28 21 20 23 21 25 22 15 18 20 23 21 14 11 10 8 21 26 21 23 23 17 24 20
22 19 21 23 17 28 26 22 13 8 5 6 10 6 7 23 1 9 8 16 26 25 16 24 16 13 20 22 17 18 12 13 16 18 14 22 10 15 25 25 19 12 21 23 19
20 19 19 25 27 24 27 26 18 4 10 7 9 9 11 18 19 6 5 10 9 19 19 16 15 9 14 14 19 7 5 10 12 11 9 23 15 12 13 12 16 17 27 21 16
13 17 22 26 31 24 27 26 4 7 6 13 13 11 14 16 16 16 15 11 9 5 13 16 21 20 13 15 4 11 1 4 6 7 11 8 12 17 9 19 15 22 22 19 17
19 27 28 29 29 28 37 3 8 13 25 6 7 17 18 15 16 19 19 17 17 12 11 9 9 20 16 19 11 18 11 5 5 4 6 4 4 4 5 16 31 26 10 18 19
22 35 33 32 28 39 15 9 10 15 11 16 15 13 18 17 17 16 21 19 19 19 9 6 9 3 13 18 14 5 10 20 14 12 5 6 5 4 6 20 17 16 12 15 19
11 11 14 21 32 34 4 15 13 13 10 9 12 5 13 16 13 11 20 13 20 22 20 4 6 2 15 15 19 15 7 5 6 4 4 5 11 1 12 15 15 16 14 14 13
10 4 12 26 36 11 4 7 13 14 14 11 15 14 12 15 12 5 8 7 8 19 12 7 6 3 5 12 16 15 15 4 4 7 4 4 2 12 12 15 9 11 14 17 17
9 3 15 35 4 3 7 7 6 15 14 8 5 10 13 11 12 11 8 6 5 14 16 20 4 6 12 11 4 6 8 5 4 2 2 2 2 9 6 7 5 9 13 14 16
5 5 20 31 5 5 9 16 12 12 12 11 11 11 10 10 7 9 3 6 3 4 2 9 6 7 3 8 9 10 11 10 8 7 6 3 2 9 11 8 17 20 17 17 15
6 4 6 12 8 9 13 15 17 11 12 14 8 8 11 11 12 4 6 7 6 7 5 4 8 9 6 5 6 12 12 8 6 1 6 6 7 7 2 11 15 16 14 15 14
8 6 13 7 8 13 14 11 18 13 17 13 9 13 12 10 13 14 6 8 8 3 5 3 5 9 8 2 3 3 5 6 8 9 8 9 8 13 13 13 13 12 12 13 14
5 5 11 8 27 22 15 13 16 17 11 15 14 14 13 12 10 7 10 11 7 6 5 4 2 7 10 9 6 8 7 8 9 10 11 10 5 14 15 16 15 17 15 13 12
15 10 10 7 9 17 18 14 18 14 17 14 13 8 10 8 7 5 7 8 4 11 8 7 4 3 9 7 3 7 6 8 7 6 8 6 11 8 12 11 13 10 10 10 9

GFSSW_850_spd_111.txt.gz
Wind_Speed
24 24 24 23 24 24 23 22 22 20 20 22 24 22 23 26 26 24 27 16 14 17 19 8 6 7 8 12 12 15 2 11 9 7 13 21 17 28 6 2 1 3 3 10 8
25 25 24 24 23 23 23 23 24 23 23 23 23 23 22 25 28 27 18 6 3 3 7 10 9 10 11 13 9 6 3 8 7 15 13 27 19 26 15 11 11 12 15 16 17
24 24 24 24 24 23 24 23 24 24 23 24 23 22 21 22 24 5 4 4 1 8 18 13 12 11 16 17 19 8 13 13 20 27 31 22 29 33 18 10 18 12 16 16 14
25 25 25 25 23 22 21 20 20 20 21 21 23 18 16 12 7 6 7 12 18 22 19 13 6 10 4 6 13 11 21 21 26 28 27 20 33 25 22 20 27 28 28 16 10
21 20 20 20 20 21 19 20 21 20 19 19 17 17 14 8 28 21 30 25 17 14 10 8 12 14 9 8 16 12 11 22 26 27 24 27 20 25 31 28 29 29 34 28 19
18 18 19 19 20 21 19 20 20 21 20 15 15 16 14 13 16 3 6 13 15 16 13 9 10 14 17 17 14 20 27 29 28 30 28 22 26 27 23 29 32 28 33 32 24
17 18 20 20 20 21 20 21 21 19 16 16 13 18 19 35 23 21 14 16 14 16 14 12 16 18 17 13 19 20 17 20 16 15 9 22 29 22 33 36 39 33 36 32 27
17 19 20 20 21 22 19 20 20 16 13 12 12 18 17 23 14 15 13 28 28 18 20 18 18 20 16 18 17 12 11 15 5 13 21 19 36 12 26 25 33 38 37 33 25
17 20 20 20 21 21 20 19 16 7 13 10 12 12 16 4 12 6 11 16 15 15 18 17 12 13 12 5 7 6 13 15 26 15 19 14 27 20 24 28 35 35 32 36 24
19 20 19 20 21 19 18 12 7 7 13 12 17 7 15 11 13 6 5 6 11 10 11 16 8 4 1 4 8 6 8 14 21 13 13 20 22 22 27 29 27 28 26 31 25
19 20 19 19 19 16 14 7 5 5 20 18 15 11 5 5 9 12 11 9 8 7 6 13 6 8 14 13 16 18 18 19 21 16 12 18 19 10 25 32 26 24 9 9 23
19 19 19 17 16 14 10 9 8 6 14 24 32 36 34 24 9 17 11 9 12 8 9 7 15 13 15 16 17 18 17 19 22 18 11 16 21 18 21 22 31 23 19 15 36
19 19 17 16 13 12 16 14 7 5 7 12 30 32 30 29 28 33 29 26 13 11 12 14 7 10 15 15 13 18 9 17 19 16 14 12 20 18 26 24 30 29 30 31 45
19 18 16 10 17 17 21 13 11 3 4 7 9 12 17 17 9 28 37 27 10 19 12 13 16 16 16 16 6 17 7 3 12 9 9 10 12 24 18 20 14 24 24 36 40
20 19 17 21 15 20 18 14 10 7 2 4 7 9 14 19 4 6 24 26 19 16 7 13 9 7 2 2 5 3 7 5 3 7 11 13 7 21 2 14 10 11 19 33 34
20 19 18 20 26 20 12 16 18 3 11 5 7 7 9 25 7 10 9 11 8 4 8 16 4 4 2 3 2 4 4 3 3 1 9 15 14 18 12 7 6 8 15 37 36
17 18 18 25 29 19 16 27 4 6 5 6 5 9 12 9 10 9 8 6 6 3 4 2 8 3 5 4 5 5 5 3 3 4 6 6 7 13 10 11 6 15 21 33 35
12 14 24 28 23 24 32 7 7 13 18 3 5 6 14 11 11 15 13 13 7 6 1 5 5 11 10 13 5 6 8 4 5 2 4 5 5 5 9 22 24 29 38 33 32
10 20 26 27 27 30 26 12 11 8 11 9 17 11 16 9 11 13 18 16 12 13 9 5 6 5 8 6 10 3 6 2 6 5 4 5 4 7 13 8 22 25 30 30 30
13 15 23 24 33 33 10 17 12 15 14 7 4 3 11 10 8 5 2 5 16 13 11 2 2 4 5 8 9 7 6 2 2 3 4 4 1 5 15 12 16 16 21 27 25
9 4 10 23 36 15 9 8 11 22 15 9 5 4 5 3 4 3 3 5 4 6 18 7 4 1 2 5 11 7 9 1 3 3 2 3 3 1 8 9 12 14 21 24 26
14 4 7 23 7 4 7 6 5 12 22 7 6 8 9 8 8 8 8 5 6 5 15 4 1 5 8 3 7 9 17 14 3 2 2 4 2 4 7 1 10 19 24 24 22
11 5 13 27 6 7 4 13 14 9 12 6 7 7 3 3 2 2 4 4 1 4 4 7 3 3 1 3 3 5 4 5 6 3 4 2 2 4 9 6 19 20 20 18 17
11 4 4 14 4 4 7 8 8 14 12 15 5 10 2 5 5 2 3 4 4 4 1 4 2 4 5 3 1 3 10 10 6 3 1 3 5 3 10 11 15 18 20 21 22
11 4 9 5 10 7 8 5 16 9 9 17 9 8 6 5 6 7 4 2 3 5 1 2 3 3 3 6 6 8 3 5 8 5 5 4 8 9 12 11 15 18 16 18 23
7 5 10 5 20 18 13 7 16 17 9 16 8 8 10 7 4 2 7 5 4 4 5 1 3 0 3 8 4 5 6 5 4 5 1 14 10 10 14 15 17 14 15 15 13
21 10 6 2 8 12 17 17 8 13 13 14 10 9 8 8 7 7 10 10 3 6 5 6 3 3 3 7 3 3 2 3 9 13 4 4 8 11 10 11 12 11 12 11 11

GFSSW_850_spd_117.txt.gz
Wind_Speed
21 22 21 21 20 21 21 21 21 21 22 23 24 24 27 26 24 23 23 11 10 7 3 2 3 5 4 2 5 4 4 2 4 3 5 11 7 8 19 16 21 12 15 13 5
22 21 21 21 20 20 21 22 22 22 22 22 23 22 22 24 23 19 8 4 6 5 3 2 6 8 3 1 3 4 4 9 6 3 5 19 12 18 7 16 16 18 24 20 19
23 22 22 21 21 21 22 22 21 20 19 18 18 18 18 20 17 3 10 13 9 1 6 8 6 4 3 2 4 3 4 5 6 15 14 9 17 18 4 4 13 19 28 27 24
24 22 23 21 21 21 20 19 18 17 17 18 18 16 17 15 3 5 10 9 8 6 12 9 2 3 2 3 0 3 6 6 7 13 17 10 18 13 15 19 26 28 24 23 28
22 21 21 20 19 18 17 16 16 17 16 18 18 16 16 7 13 9 14 16 15 16 11 5 3 3 1 3 8 5 2 11 19 20 25 23 12 16 24 31 21 27 27 30 31
19 18 18 17 16 16 17 16 16 16 15 17 17 14 12 7 6 7 17 21 25 20 7 6 3 1 3 2 1 5 9 14 11 26 25 19 15 10 19 35 29 24 24 23 21
16 15 15 15 15 16 17 16 16 16 14 15 10 11 16 28 13 15 16 16 13 11 11 7 4 3 4 7 2 8 6 6 10 11 7 19 6 7 17 13 24 35 34 34 36
15 14 14 14 15 15 17 15 15 15 14 9 6 10 14 14 20 19 23 25 23 17 14 11 9 7 3 6 8 5 3 1 4 3 5 4 5 9 8 28 29 28 31 39 41
14 14 13 13 13 13 16 14 14 13 8 7 8 7 15 9 7 4 9 10 17 20 15 10 12 7 6 2 4 2 3 4 6 6 4 4 15 3 28 27 26 32 37 32 33
15 14 13 12 12 13 12 10 8 7 5 8 12 6 15 7 2 1 5 6 4 13 9 13 7 2 1 4 5 6 4 3 2 6 8 11 25 16 18 20 24 31 30 27 23
14 14 13 12 11 11 7 4 3 4 13 13 11 8 3 3 4 9 9 11 9 9 6 7 4 9 17 8 5 2 4 5 5 9 8 15 23 20 10 17 25 31 24 21 8
14 14 13 12 10 6 7 7 6 4 11 21 31 29 27 8 6 15 14 12 10 5 6 1 8 10 4 5 7 9 12 13 6 10 7 10 23 19 6 11 24 27 20 9 16
13 13 12 11 7 10 14 10 5 6 6 10 22 23 28 18 17 25 18 18 4 7 7 7 6 9 8 6 8 11 9 10 14 2 5 5 13 7 14 10 17 21 24 15 21
13 11 10 8 7 13 18 5 7 4 3 5 6 7 11 9 7 28 25 17 3 12 5 6 12 10 6 5 10 9 7 6 4 5 2 3 8 15 9 11 14 19 27 23 21
14 11 10 13 6 18 4 14 8 3 3 2 5 3 8 11 4 2 23 17 10 7 7 8 3 7 7 12 6 9 5 3 1 1 2 5 2 6 10 10 10 12 22 25 23
16 13 12 16 16 10 10 17 11 5 8 2 8 7 6 6 3 7 17 5 8 3 6 7 1 6 8 4 4 6 3 3 4 3 2 6 7 3 7 8 12 10 19 21 23
18 16 18 19 26 17 16 19 3 4 3 5 5 6 4 5 3 5 6 10 7 5 7 3 15 6 6 4 3 3 4 2 3 1 5 1 2 3 6 10 19 17 21 22 21
18 17 19 23 21 25 25 3 5 6 7 4 4 5 7 6 5 6 8 6 7 2 3 5 4 8 6 12 7 7 7 4 5 3 3 4 4 2 4 11 19 19 18 18 19
17 17 16 16 22 30 24 10 8 6 4 4 3 2 5 6 5 6 7 9 9 10 7 4 4 3 5 4 10 4 4 2 3 2 1 4 4 5 5 5 8 10 12 16 14
16 13 17 20 24 31 11 17 8 7 1 4 8 6 6 6 8 9 9 6 8 11 4 5 5 5 4 5 4 6 8 3 1 3 5 4 4 5 7 4 4 4 6 8 10
15 6 8 22 28 21 11 13 18 8 5 5 5 2 4 1 3 4 7 3 5 5 11 6 6 3 5 6 9 3 3 1 4 4 4 2 4 5 9 9 9 7 7 6 7
17 4 9 25 10 3 11 15 15 6 21 6 2 5 6 5 4 4 5 4 6 6 9 4 2 4 12 1 5 11 10 7 5 5 3 3 5 7 10 11 12 10 10 8 6
10 8 13 28 9 10 6 15 11 7 9 4 11 7 4 6 4 6 5 2 10 7 8 7 3 2 3 4 3 7 9 12 5 2 6 5 3 7 9 14 11 12 11 9 7
10 4 7 18 11 5 7 6 11 12 11 3 4 4 6 10 7 5 4 4 6 4 4 8 4 6 8 3 1 4 13 14 10 4 5 7 8 13 11 14 13 12 10 8 7
13 4 7 4 9 6 5 2 15 9 10 9 7 10 8 8 10 10 4 3 2 10 5 4 6 5 5 5 2 4 13 14 15 12 8 6 10 15 15 14 16 15 10 7 6
10 5 7 2 9 14 11 11 11 13 8 5 12 5 8 11 12 11 7 5 5 3 3 2 1 2 4 10 9 10 14 8 13 15 13 6 7 11 18 19 14 11 9 6 5
17 9 5 6 5 10 15 21 16 10 14 19 14 9 13 15 12 19 18 16 8 10 6 6 6 4 7 4 7 7 10 11 3 1 6 7 7 16 14 14 14 12 9 9 8

GFSSW_850_spd_120.txt.gz
Wind_Speed
21 21 22 21 21 21 20 19 20 21 22 22 23 23 24 24 22 21 18 7 7 7 5 4 1 5 5 2 4 5 4 3 5 4 4 2 7 6 11 10 15 5 9 12 20
23 23 24 22 22 22 21 21 21 21 22 22 21 20 22 22 22 12 7 6 7 7 8 5 1 6 3 0 2 4 4 8 5 4 2 8 5 13 6 17 12 17 23 25 23
24 24 23 23 23 23 22 22 22 22 20 19 18 18 20 19 18 1 7 12 12 9 6 1 4 4 1 1 3 3 6 5 4 6 7 5 11 3 3 5 11 18 30 26 24
26 26 25 23 23 22 22 21 19 19 18 17 17 17 18 15 4 4 9 8 8 7 4 4 3 2 2 1 1 3 4 2 3 6 10 8 14 5 12 18 20 17 20 21 19
25 24 23 23 22 21 20 18 18 17 16 17 17 17 17 8 10 11 14 13 11 10 8 5 1 2 3 1 5 3 3 9 15 16 18 17 9 13 16 21 9 10 16 21 24
23 23 21 21 20 19 18 16 16 17 16 16 16 17 14 5 8 13 17 18 17 15 11 5 2 2 1 1 2 1 7 12 11 24 19 6 8 2 4 8 16 24 29 30 31
21 21 19 19 18 16 17 17 15 16 15 16 16 14 17 24 12 14 13 13 15 11 9 8 2 4 1 2 1 5 5 7 7 5 5 10 5 2 4 18 27 32 33 32 33
19 19 18 17 17 16 16 16 16 16 14 14 10 10 12 11 12 14 19 21 21 16 10 9 6 2 2 3 5 4 4 4 4 6 2 5 5 6 8 28 31 34 38 38 37
18 18 16 15 15 15 15 14 15 14 8 5 6 7 14 7 3 4 8 6 7 18 13 7 1 2 2 4 4 5 2 2 8 7 4 5 2 6 24 32 24 31 34 32 29
18 17 17 15 14 13 13 13 11 6 5 5 10 6 11 4 2 2 3 5 3 12 8 7 4 2 2 4 5 4 3 3 5 6 8 13 13 7 20 22 27 30 32 25 15
17 16 16 15 13 11 9 7 4 3 11 12 7 6 3 3 5 7 7 11 11 10 6 7 4 8 13 7 4 4 3 3 4 10 7 11 13 9 18 20 23 27 23 13 4
16 14 14 13 11 9 10 7 4 3 10 18 26 27 22 3 4 12 11 10 8 5 7 4 5 10 4 5 5 6 2 6 6 7 6 10 10 9 6 9 17 22 23 11 15
15 13 11 10 9 12 15 9 3 4 6 10 17 21 23 20 14 21 17 10 4 6 6 6 4 5 7 4 6 5 5 4 7 5 5 8 5 5 5 22 24 29 30 25 18
14 12 10 8 8 11 16 12 7 4 4 6 5 6 11 11 6 23 29 10 3 9 6 5 6 4 3 5 6 3 6 6 5 1 3 3 6 4 3 12 14 20 24 25 23
13 11 10 10 6 10 0 11 8 3 3 3 5 5 9 11 1 2 17 14 8 6 6 6 3 4 6 11 5 7 4 4 4 3 2 2 2 3 6 10 12 18 20 22 23
14 12 11 12 15 11 6 13 9 5 7 3 5 6 6 4 2 6 5 5 8 4 1 7 1 6 7 2 6 5 4 3 3 3 4 8 8 4 4 3 9 13 17 17 19
18 18 16 13 17 10 11 14 3 4 2 5 5 5 3 5 4 5 5 7 7 5 7 1 8 4 3 3 3 3 5 3 3 1 5 1 2 2 3 4 8 10 10 12 12
20 18 18 18 13 18 18 3 7 4 5 4 4 5 6 6 4 5 7 5 6 2 3 6 3 7 5 16 7 6 8 5 5 3 3 2 5 2 6 8 6 7 7 8 11
19 19 21 20 18 20 15 8 7 5 3 2 3 3 4 4 4 4 8 8 9 12 8 5 4 2 4 3 9 4 6 2 1 1 1 4 1 3 8 7 6 7 5 6 5
19 17 22 14 21 26 10 13 9 4 2 4 6 5 6 5 6 7 8 6 6 11 4 5 1 5 4 6 4 6 7 3 1 3 5 4 4 5 14 12 11 10 8 3 3
17 6 6 17 25 21 12 12 14 6 5 2 3 2 2 1 7 4 5 3 6 6 10 5 5 2 6 6 9 3 3 2 3 3 4 2 5 4 17 16 14 12 10 7 2
20 4 8 27 12 10 13 17 14 7 12 7 2 5 4 3 1 1 4 4 2 6 8 6 5 9 13 3 5 3 5 6 4 4 4 3 5 4 10 12 15 12 10 7 2
14 13 13 28 8 7 10 20 24 14 7 4 8 6 3 3 3 6 6 3 8 6 7 6 1 1 5 3 2 6 7 10 4 2 15 5 4 7 13 13 16 16 12 8 4
11 4 10 13 13 11 12 9 11 13 16 5 3 5 5 8 4 4 2 2 3 3 1 7 5 6 8 4 3 3 7 10 12 5 4 11 7 12 13 14 16 18 17 10 5
16 5 7 5 10 11 11 6 14 11 11 14 5 7 6 5 5 8 5 1 1 4 3 4 8 5 5 5 5 5 6 7 16 17 9 6 10 15 16 16 18 22 17 10 5
11 6 5 5 18 12 14 10 9 10 6 6 12 6 12 12 10 3 7 5 6 3 4 2 3 4 4 7 10 9 11 9 12 10 7 7 6 3 18 19 19 18 16 11 7
11 15 8 9 4 9 12 15 14 7 7 15 10 7 9 13 13 16 10 8 8 6 7 5 5 4 6 4 2 8 17 13 6 4 5 13 7 12 13 16 18 18 14 11 8

GFSSW_850_spd_123.txt.gz
Wind_Speed
17 18 18 20 20 20 21 19 20 20 21 22 23 24 24 22 20 20 16 7 6 6 6 5 5 2 2 2 2 3 2 3 3 5 2 5 5 7 9 5 11 0 7 15 18
21 21 22 22 22 21 21 21 21 22 21 22 21 21 22 21 20 18 8 5 8 6 6 8 3 3 3 2 2 1 2 5 1 0 3 5 5 8 8 17 3 5 16 15 15
23 24 24 24 23 23 22 22 21 22 21 20 19 19 20 18 18 3 1 6 9 8 7 5 2 4 3 1 1 1 3 2 1 1 6 4 6 4 8 5 10 15 19 15 12
26 25 25 25 25 23 22 22 21 20 19 19 18 18 17 14 5 4 5 8 9 7 4 3 3 2 2 2 1 3 4 2 4 4 6 6 6 8 13 13 12 16 12 18 20
26 25 25 24 24 23 22 21 20 18 17 17 17 17 17 7 10 11 11 12 10 6 3 1 2 3 3 2 1 4 2 3 7 12 12 8 10 8 12 11 4 7 14 22 25
28 26 24 23 22 21 20 20 18 17 16 16 16 17 15 6 11 12 13 16 15 11 6 2 2 5 3 1 2 0 4 9 7 13 8 5 4 3 3 8 13 18 23 25 30
25 24 22 21 20 19 18 17 16 16 15 17 16 17 18 21 14 13 12 14 16 13 8 6 7 5 3 1 1 3 6 7 4 1 1 4 1 5 1 16 25 24 23 25 19
23 21 20 19 17 16 16 15 15 15 14 15 16 15 12 11 11 15 17 16 13 9 5 8 8 6 1 1 4 2 2 3 2 7 3 4 3 5 8 26 30 31 31 25 16
19 19 18 18 15 15 14 14 14 14 13 12 10 9 11 8 7 9 13 14 11 19 11 10 8 4 3 3 2 2 3 0 5 4 4 10 5 12 28 22 22 26 25 18 12
17 18 18 16 14 13 12 12 12 9 7 9 11 6 9 4 5 5 7 8 3 16 12 7 4 3 2 5 5 3 3 3 3 3 8 13 11 10 19 16 13 16 17 11 13
16 16 16 15 13 12 10 6 4 4 11 11 5 5 2 6 8 7 8 11 14 6 5 4 5 12 13 9 3 3 2 6 6 9 6 5 12 13 9 15 18 19 15 15 15
17 15 14 13 11 11 11 6 4 3 10 16 24 24 19 4 3 9 10 9 6 4 8 4 10 12 6 8 8 6 7 12 7 5 6 8 15 5 12 11 12 14 15 13 12
16 15 13 10 10 13 13 9 5 4 5 9 17 20 19 20 11 13 17 8 4 6 10 6 1 7 11 7 7 4 10 7 8 6 4 6 1 4 8 11 12 15 14 14 13
17 15 11 10 9 12 14 10 10 3 2 5 6 5 10 11 7 22 20 10 4 11 9 6 3 6 8 5 7 5 10 9 7 5 4 5 5 7 3 8 11 11 11 9 9
17 15 12 13 6 9 6 11 11 4 3 4 5 8 9 8 3 2 21 10 8 6 6 4 5 5 7 8 7 4 5 5 1 3 4 4 5 4 1 1 4 3 5 6 9
16 14 14 14 13 10 11 16 13 4 8 2 5 7 7 4 0 7 5 9 7 4 1 2 1 4 4 3 7 6 4 4 3 0 6 7 8 6 5 4 4 5 4 4 5
16 14 13 13 14 13 17 16 3 5 2 4 4 6 5 6 4 3 11 9 8 7 8 1 6 2 4 4 2 6 5 2 2 3 5 3 5 10 10 7 7 8 6 2 1
23 18 17 16 13 18 21 3 5 3 4 0 4 6 6 7 3 4 9 8 5 3 3 8 4 12 8 16 7 9 10 5 6 4 1 1 6 2 6 9 8 8 7 4 3
22 23 25 19 19 19 14 6 7 6 3 4 4 3 3 3 3 4 9 6 9 11 7 6 4 2 3 4 13 6 6 8 6 3 4 5 5 4 10 9 11 11 10 6 2
29 24 26 19 20 21 7 12 7 4 1 1 6 3 6 4 6 9 9 5 6 15 5 5 2 5 5 6 3 5 10 3 3 5 6 6 7 8 14 13 13 14 14 9 5
27 10 8 23 24 18 9 11 7 4 5 2 2 2 2 3 5 4 3 2 4 6 15 5 3 3 8 9 13 5 5 2 2 2 4 6 6 5 17 19 19 18 15 13 8
25 4 16 32 14 12 13 12 7 1 22 4 3 2 3 2 1 3 4 2 4 5 8 7 3 8 15 2 8 7 10 12 5 5 3 2 10 1 12 17 21 19 17 13 7
19 10 21 32 9 11 12 19 16 3 5 3 4 5 2 3 3 5 3 2 4 5 6 6 3 5 5 1 2 7 8 9 6 3 14 6 9 4 8 15 19 20 18 14 9
10 4 7 16 13 10 14 16 15 14 17 14 4 4 2 6 4 2 3 1 2 3 2 5 6 8 10 3 4 5 11 14 14 6 9 16 21 9 11 12 17 20 18 15 10
11 4 8 7 11 10 11 5 17 11 13 15 11 12 9 9 10 11 9 9 3 4 4 6 11 7 13 10 7 8 12 13 15 17 11 22 16 14 18 17 22 21 18 15 11
13 5 5 5 20 19 14 14 20 12 10 6 10 11 14 12 12 5 6 5 7 2 5 4 10 6 14 9 13 14 15 14 16 18 16 18 21 8 19 18 22 24 23 19 14
16 16 12 7 11 13 11 19 17 12 9 17 12 7 9 11 10 10 9 7 5 4 5 3 5 6 12 6 7 10 19 18 14 17 15 16 19 10 11 20 28 27 23 19 16

GFSSW_850_spd_126.txt.gz
Wind_Speed
16 16 16 17 18 19 19 19 19 19 21 22 22 23 23 23 20 20 13 8 6 7 8 4 2 3 1 1 1 2 5 5 1 3 5 3 2 1 6 5 9 2 5 12 16
18 19 20 20 20 21 21 21 21 20 21 22 22 22 21 22 21 17 10 8 7 6 3 5 4 3 4 3 1 5 5 3 4 3 4 1 4 9 7 9 6 5 9 13 12
22 22 23 22 22 22 22 22 22 21 21 21 20 20 18 18 17 2 1 4 6 7 8 7 3 2 4 2 3 2 6 3 4 3 3 5 9 7 10 6 9 9 13 10 12
25 24 24 24 24 24 24 23 22 20 20 20 19 18 17 13 6 3 3 6 8 8 6 4 3 4 4 6 3 6 4 5 1 1 4 8 9 12 14 13 10 9 7 12 14
26 24 26 24 24 24 23 23 22 19 19 18 18 17 15 7 9 12 9 9 8 5 4 3 4 4 7 3 5 8 3 4 5 8 10 12 13 11 11 3 1 5 10 13 15
28 26 27 26 24 23 23 22 19 17 17 16 16 16 11 13 13 12 12 13 12 5 4 3 4 3 4 4 7 1 3 8 9 11 9 8 3 4 6 1 4 9 13 15 10
27 26 25 24 22 21 21 21 18 16 15 15 16 15 15 18 16 12 12 13 14 8 5 4 5 6 5 4 3 3 7 7 4 3 3 6 8 7 5 3 10 12 15 13 11
22 23 23 22 20 20 19 18 16 15 14 14 15 12 11 14 14 13 16 12 11 7 7 7 5 5 6 2 3 7 5 6 6 4 2 4 4 5 4 11 14 13 11 6 10
19 18 19 19 18 17 17 16 14 14 13 12 10 6 10 10 9 12 14 10 13 12 7 7 6 5 5 9 6 7 7 6 5 2 2 2 6 7 12 13 15 12 9 7 9
18 19 18 17 16 15 14 14 13 12 9 9 11 6 11 2 3 5 9 12 5 15 10 8 7 8 7 9 8 4 7 6 8 7 7 12 14 7 11 9 6 6 6 9 10
16 18 18 15 15 14 12 7 5 6 10 11 5 4 1 4 6 5 11 11 14 14 9 15 8 13 11 12 8 6 8 11 10 6 8 8 11 11 6 3 3 6 8 8 9
24 21 18 15 14 14 13 7 7 4 8 15 21 19 16 4 4 9 14 11 11 9 9 7 14 13 1 5 8 9 11 13 8 2 7 10 14 3 2 3 4 5 6 5 6
22 22 17 14 14 16 16 10 9 5 6 9 13 15 14 19 11 15 20 10 9 11 15 13 3 4 12 9 11 9 11 10 10 9 13 9 18 9 8 6 5 4 3 4 5
21 19 19 16 13 13 14 15 11 2 5 7 8 7 12 10 9 18 20 11 8 14 10 9 7 8 12 13 10 11 4 7 7 6 5 3 6 11 12 7 6 2 1 3 4
23 20 18 20 10 14 11 14 13 3 6 8 6 5 8 18 6 9 20 13 14 9 7 5 10 13 12 10 10 4 3 4 5 8 8 12 6 2 11 14 10 5 2 0 2
27 25 21 20 16 11 11 19 11 3 10 6 6 9 9 12 6 8 14 11 11 8 6 5 2 6 4 4 10 7 6 4 5 5 7 12 12 5 10 14 10 7 6 5 3
31 27 25 23 17 18 22 19 5 9 4 7 7 9 13 10 9 9 16 16 10 9 13 13 13 6 10 9 7 11 7 3 5 5 6 2 8 14 9 8 8 10 10 8 4
32 29 27 24 19 24 27 7 8 12 16 2 4 10 9 15 8 10 15 13 13 7 8 10 7 19 15 18 7 15 12 6 6 7 7 3 8 1 4 9 8 9 12 10 6
36 32 29 27 24 28 19 10 15 16 4 7 9 9 8 10 6 10 13 9 12 15 6 7 5 8 4 6 12 7 9 13 15 12 9 12 14 7 9 8 12 15 15 13 9
39 36 28 26 24 24 7 17 13 4 3 7 12 6 11 13 10 12 12 8 6 17 12 4 5 9 7 9 11 10 10 4 5 7 14 11 14 11 12 14 15 17 18 15 12
35 16 22 31 27 10 10 21 20 10 3 2 6 5 4 6 8 8 5 5 5 6 16 7 7 8 9 12 15 9 11 8 5 9 10 14 10 5 11 15 18 21 19 17 13
22 5 27 39 11 9 15 29 21 14 15 3 2 1 6 6 7 8 9 2 3 8 8 12 6 13 17 12 13 18 17 18 11 12 7 9 16 2 3 9 15 19 19 17 14
16 8 33 43 10 13 26 26 24 15 8 9 7 6 4 5 5 7 5 3 2 4 7 8 7 11 16 7 10 14 20 18 19 15 16 9 7 3 4 8 13 17 18 18 13
14 4 11 27 24 20 27 23 26 20 10 5 3 7 7 10 7 4 8 3 3 2 3 0 8 11 13 5 2 4 10 14 17 10 15 19 19 15 9 10 15 19 22 21 17
9 5 8 11 16 21 22 17 22 24 22 14 9 12 10 7 9 12 13 11 11 10 7 6 14 15 19 18 17 17 18 18 21 21 18 21 21 23 16 12 20 23 23 21 20
8 6 2 23 28 21 20 23 22 24 15 21 18 14 18 16 15 11 14 15 15 7 10 5 11 13 21 19 19 21 24 25 24 25 24 23 29 20 23 11 19 26 26 24 21
14 20 18 18 18 17 18 24 25 16 16 22 16 15 13 18 20 21 14 13 10 10 10 7 7 10 18 16 17 16 25 25 27 23 22 23 26 20 12 13 25 29 27 26 23

GFSSW_850_spd_129.txt.gz
Wind_Speed
17 17 16 16 15 16 17 18 19 20 21 22 23 23 24 24 23 16 14 13 14 10 9 6 7 6 6 8 8 8 9 10 3 4 9 5 5 6 1 5 1 1 3 7 10
19 19 17 18 19 19 19 20 20 21 21 22 23 22 23 23 23 19 16 14 12 7 2 6 7 7 11 7 6 9 9 7 8 5 5 5 4 5 5 3 6 3 1 8 7
23 21 21 21 22 21 20 21 21 21 22 22 22 21 20 20 18 2 6 1 5 8 3 5 5 7 10 6 8 5 12 8 5 3 3 5 7 2 8 7 3 6 9 6 8
26 24 24 23 23 23 23 22 22 21 21 22 20 19 18 14 7 3 1 1 6 5 3 5 7 9 8 10 5 8 8 5 1 4 7 7 8 11 10 9 6 5 3 6 7
30 30 26 25 25 24 23 22 22 21 21 20 19 17 14 11 17 18 11 6 5 3 5 6 8 7 10 5 5 11 10 4 7 8 11 10 12 13 11 1 3 2 3 5 6
30 30 27 27 25 26 24 23 21 19 19 19 18 15 10 18 10 12 11 8 9 8 7 8 6 5 8 8 9 4 7 9 10 12 12 11 13 5 8 6 5 4 4 6 6
35 31 29 29 27 26 24 22 19 18 18 17 17 14 13 22 8 8 9 8 10 9 10 9 7 8 2 7 8 9 11 13 15 10 6 8 14 11 8 7 5 5 4 5 6
17 21 30 27 25 23 20 19 17 17 16 15 15 8 13 11 11 14 11 11 9 8 8 8 8 10 9 1 6 10 11 11 10 9 7 6 10 16 10 9 10 7 5 3 4
16 13 14 20 22 20 17 15 15 15 13 12 10 6 13 13 11 12 14 13 10 9 8 8 6 11 9 12 11 12 11 13 10 10 4 8 8 2 7 7 10 9 2 2 2
14 16 16 13 18 17 13 13 12 13 11 7 9 8 17 6 6 7 11 15 14 12 8 12 11 10 11 12 12 9 13 8 10 12 9 11 15 14 11 9 6 9 2 3 3
22 18 16 16 14 14 11 4 4 7 18 15 6 12 3 5 7 7 10 17 13 18 13 17 11 14 19 17 17 10 11 13 12 7 5 14 18 12 12 2 8 6 2 2 2
22 19 16 16 15 13 11 8 6 5 12 20 25 26 16 4 8 13 15 15 19 17 17 9 17 18 12 5 10 12 14 15 14 7 5 16 17 14 5 7 7 6 6 3 1
21 20 19 17 16 19 16 10 8 6 10 20 26 29 23 20 15 19 21 20 17 18 18 17 1 10 12 11 14 15 16 14 13 7 12 19 19 25 11 9 9 8 4 2 1
23 19 18 17 17 14 17 16 6 1 5 10 12 12 19 16 13 29 25 18 15 16 17 15 20 10 12 16 14 15 14 10 10 10 9 6 9 2 16 14 14 12 8 4 1
25 21 22 24 4 19 7 14 11 4 4 7 11 7 11 21 5 20 27 27 20 16 14 12 13 15 18 19 13 13 2 7 10 11 13 17 11 13 13 17 14 14 10 6 3
28 26 23 22 16 10 10 16 14 4 11 9 9 11 14 23 14 6 26 23 16 20 16 19 3 12 15 9 10 2 7 9 10 11 12 19 18 11 11 12 13 11 11 8 5
31 29 28 21 21 16 18 22 6 8 7 9 9 12 17 13 18 14 20 22 15 17 20 15 16 11 8 11 10 13 11 6 10 9 10 3 7 12 8 9 4 11 10 9 7
32 30 29 25 16 21 27 10 9 17 26 4 6 11 17 14 18 18 18 20 26 19 10 16 16 21 17 16 11 19 15 8 10 10 10 8 7 3 9 12 9 6 10 11 9
35 36 32 33 26 28 25 12 14 16 21 21 7 14 16 18 9 15 18 20 22 20 14 15 15 21 11 17 17 12 16 14 16 16 12 12 16 10 9 12 11 11 12 13 11
43 40 42 33 30 32 16 17 17 26 14 12 23 15 17 17 13 15 16 16 18 24 18 7 9 12 9 12 13 12 8 7 8 7 17 15 16 10 16 13 12 14 17 15 13
32 18 28 37 30 27 11 19 26 23 8 10 17 19 14 15 18 19 16 4 16 16 18 10 8 10 11 14 14 12 11 10 10 14 12 14 12 6 11 12 14 16 19 20 18
16 7 26 41 15 18 11 32 32 28 12 7 7 7 12 6 15 17 13 6 4 6 14 16 6 12 16 12 17 18 21 19 11 17 12 13 17 2 7 7 12 16 21 22 20
5 8 31 47 11 15 26 29 25 25 17 15 9 7 5 9 8 10 9 7 4 6 1 7 6 9 14 13 9 15 21 19 20 16 23 14 10 4 2 4 9 12 20 23 22
6 4 12 31 12 20 26 20 26 30 19 15 16 15 9 9 8 6 7 5 4 6 10 4 9 12 15 16 2 6 19 19 21 15 18 20 24 21 8 9 11 10 20 22 23
15 4 7 9 13 17 25 21 24 26 24 15 7 14 16 14 14 12 8 6 6 4 1 4 9 16 21 23 11 11 13 18 18 17 12 18 19 21 17 12 22 17 20 20 24
11 8 8 24 33 22 21 25 26 25 22 22 18 15 17 13 14 12 14 15 15 14 15 11 9 17 22 23 22 22 22 26 22 23 23 23 25 23 28 28 21 22 21 23 23
17 14 14 12 22 18 20 27 27 23 24 30 25 20 18 17 20 20 20 13 13 13 14 16 13 15 21 20 20 18 29 23 25 26 24 23 24 24 20 17 16 15 23 24 23

GFSSW_850_spd_132.txt.gz
Wind_Speed
18 17 17 17 16 15 15 16 17 18 19 21 22 24 24 26 26 23 18 17 19 20 15 8 9 11 11 12 10 9 6 12 14 8 11 6 4 8 3 3 4 2 12 9 7
20 19 18 18 18 17 17 18 18 19 20 21 23 24 24 26 27 26 19 19 21 19 7 5 8 9 12 11 8 10 10 6 11 11 9 8 1 7 2 6 3 6 11 6 6
23 21 20 20 20 21 20 20 20 21 21 22 23 23 22 22 22 1 7 6 6 7 6 7 9 9 15 16 12 10 13 6 6 10 8 4 3 3 4 5 4 3 6 4 4
25 24 24 24 23 23 23 22 22 21 21 22 21 21 20 16 7 6 9 8 4 2 4 6 8 12 13 13 15 8 13 6 4 3 2 4 7 7 7 8 6 3 2 1 7
29 28 31 27 26 25 24 24 23 23 22 21 21 19 18 10 18 19 16 14 9 5 7 8 10 11 14 13 14 10 14 5 6 4 5 7 10 10 12 3 2 3 1 6 8
33 31 31 29 29 27 25 25 25 23 20 20 19 17 13 17 6 10 11 8 10 8 9 10 10 9 13 15 9 7 10 11 8 11 10 10 13 14 11 8 7 7 3 12 11
35 33 33 31 29 27 26 26 25 21 20 19 17 14 14 29 11 10 9 8 9 10 12 12 11 10 3 12 17 9 11 13 17 15 10 3 13 19 13 10 10 8 8 14 10
22 21 27 29 29 27 24 25 23 20 17 15 14 11 13 12 12 17 17 13 10 10 10 10 9 14 18 13 6 10 13 13 14 19 9 6 11 8 17 14 12 6 5 13 10
22 15 14 14 17 19 18 21 21 17 14 12 10 5 14 13 17 16 17 15 13 11 9 9 9 16 11 12 11 14 12 18 10 16 12 12 7 16 18 14 12 8 4 11 9
24 21 19 19 15 13 13 13 14 15 12 8 11 9 19 12 6 9 11 16 15 11 10 11 10 10 13 13 14 15 19 16 16 16 9 11 12 13 12 16 13 5 5 9 7
21 20 15 15 18 12 11 6 7 7 16 14 11 10 2 7 6 9 10 15 16 15 15 16 11 16 21 20 20 18 12 12 10 10 15 14 13 15 20 21 12 9 11 8 6
18 19 18 16 13 11 11 9 3 7 11 21 31 30 24 8 9 14 15 17 21 18 19 16 19 20 20 21 21 21 17 15 15 14 14 9 13 16 18 17 13 11 12 8 8
17 16 15 13 12 17 19 14 13 14 10 24 32 33 28 27 22 14 22 26 20 20 20 21 13 21 21 21 13 15 15 15 17 15 6 8 17 20 20 16 13 7 8 10 7
18 18 15 16 15 17 15 12 9 3 5 9 15 21 34 26 17 35 26 24 15 20 22 24 23 12 12 19 14 18 17 17 17 12 12 13 12 12 10 14 13 16 14 12 10
22 21 21 21 9 11 9 17 10 6 4 4 14 6 12 26 6 21 35 30 21 20 15 18 18 19 20 20 17 16 9 7 7 11 14 16 12 14 18 16 18 20 18 14 11
21 23 25 21 14 11 9 17 13 4 10 6 9 11 12 30 25 10 34 29 23 21 22 21 19 16 18 19 18 13 5 6 8 10 12 15 14 11 12 15 21 23 22 17 13
19 29 30 24 25 16 20 20 6 6 5 10 10 15 19 19 21 19 18 25 17 17 24 21 23 14 11 14 14 12 8 5 8 8 10 13 14 13 3 13 17 20 24 21 16
19 31 32 29 21 22 27 10 11 16 21 6 17 18 21 18 21 24 18 21 24 22 10 18 19 23 17 20 15 18 18 7 9 9 13 8 7 5 8 17 21 26 25 23 19
29 26 33 34 27 26 23 13 10 11 14 17 16 17 20 21 14 23 25 22 24 26 19 14 24 15 23 19 19 18 20 14 14 12 7 8 9 8 10 11 13 18 24 23 19
15 25 32 36 35 26 14 16 14 24 20 13 21 16 20 21 21 23 17 18 24 25 24 14 15 22 24 18 24 18 15 12 6 6 10 12 14 9 16 12 12 12 20 22 19
13 5 7 39 36 24 9 11 22 32 24 12 20 21 17 16 19 18 16 18 23 22 23 19 12 8 16 15 19 12 15 9 9 9 3 7 4 3 10 13 13 14 20 23 22
8 3 8 34 17 7 13 24 36 24 28 9 9 15 17 17 13 18 20 12 11 14 25 21 7 10 22 15 16 16 18 15 7 10 7 9 14 13 13 13 16 16 21 22 19
5 9 16 29 11 7 23 29 26 22 21 4 8 12 11 10 13 15 2 2 15 6 9 15 7 9 14 16 18 18 16 15 16 10 15 13 15 8 3 10 16 16 22 27 23
4 4 6 13 26 11 22 25 24 36 23 18 12 17 14 11 15 3 8 6 7 6 12 5 5 11 10 11 3 6 14 13 11 13 18 18 18 17 9 3 10 11 4 22 23
8 6 10 4 9 13 22 18 26 24 28 13 7 18 12 10 15 13 10 4 3 1 4 4 5 9 13 14 11 6 9 12 15 15 14 19 17 18 15 11 16 21 24 26 23
9 6 7 14 10 19 22 24 25 25 22 19 12 10 14 10 3 9 13 13 11 7 2 3 3 8 14 14 14 11 11 22 21 20 16 21 19 14 19 17 23 26 23 26 25
23 28 16 8 10 15 18 25 26 23 27 31 27 18 13 14 7 7 11 13 16 10 9 6 6 7 16 16 15 15 26 23 25 22 16 19 16 15 16 17 20 23 17 27 26

GFSSW_850_spd_135.txt.gz
Wind_Speed
17 17 16 17 17 17 16 16 16 18 19 20 22 24 25 27 27 25 28 12 16 18 19 18 6 5 4 13 8 15 3 3 6 8 4 7 8 11 10 10 15 15 24 17 11
19 19 18 18 18 18 18 18 18 18 20 22 23 24 25 26 27 19 9 9 14 19 17 8 9 13 12 11 10 5 4 4 2 4 2 3 15 14 5 6 16 26 19 15 11
22 21 20 20 20 20 19 19 19 19 21 22 23 23 22 22 22 3 9 10 15 6 5 3 6 11 11 16 16 7 6 5 2 6 11 4 8 10 6 2 12 18 19 15 11
24 23 23 23 22 21 22 22 21 20 21 23 24 24 20 16 5 8 15 17 15 7 1 5 7 11 5 5 17 5 11 8 9 5 4 5 5 3 8 8 13 16 16 16 15
27 25 24 25 25 27 25 23 23 21 22 24 23 21 19 9 21 17 17 18 14 9 6 13 18 13 7 10 12 5 4 14 7 12 7 5 5 2 2 11 14 14 13 17 17
32 29 27 30 28 27 27 25 25 23 23 23 22 19 16 10 2 7 15 14 11 8 7 9 9 16 11 9 4 9 5 9 3 7 7 7 7 5 6 11 14 17 19 15 11
32 32 32 30 30 30 30 25 26 23 21 21 21 19 16 32 16 13 8 13 9 7 10 12 14 11 10 8 11 13 3 7 12 11 4 5 4 8 13 21 16 24 21 17 12
9 11 6 9 19 29 28 24 24 21 19 19 18 15 14 23 16 18 19 15 18 9 15 15 9 8 8 13 12 3 4 4 7 14 7 11 7 10 23 21 16 28 24 20 13
10 14 11 12 12 16 13 17 18 18 17 15 14 10 16 10 14 12 17 15 13 12 11 8 9 7 8 3 5 5 4 8 12 16 8 6 6 6 29 22 20 29 26 21 15
27 20 9 6 9 9 12 11 10 10 13 11 13 8 18 22 8 8 7 16 14 11 10 12 4 3 4 5 7 6 8 7 9 3 8 8 9 6 26 25 24 30 30 27 18
17 21 8 9 9 4 9 8 4 3 5 13 8 13 9 6 8 9 8 11 14 15 7 14 4 9 19 14 8 9 11 7 6 8 9 14 9 9 15 17 18 28 31 27 21
9 10 12 12 13 12 7 4 4 5 13 20 27 34 32 21 11 13 12 13 14 13 10 6 16 17 12 11 14 17 18 12 9 4 5 10 11 9 7 9 23 29 31 29 24
11 10 10 10 11 13 14 13 5 9 7 14 30 33 40 34 24 20 22 22 9 11 13 16 8 18 16 16 18 16 17 10 9 7 2 5 4 6 7 9 20 30 29 25 23
13 14 13 11 9 11 15 11 3 5 3 7 7 10 24 29 13 36 26 16 7 15 15 13 20 23 18 19 15 12 5 6 5 5 8 2 7 6 6 15 11 25 33 31 28
18 15 16 15 6 7 6 16 6 7 3 3 4 3 1 23 8 21 42 30 16 11 11 9 12 16 22 8 17 9 2 1 1 3 2 1 6 4 5 6 14 19 29 25 22
15 13 19 17 17 5 8 18 11 2 8 7 8 5 7 29 14 5 22 28 16 12 15 13 21 9 21 12 11 3 3 4 4 3 5 6 6 8 9 17 15 19 26 32 29
11 11 20 19 23 12 14 21 3 5 6 8 8 9 11 12 21 12 5 19 13 9 17 14 21 21 10 5 6 7 7 1 2 1 8 12 11 19 8 8 20 21 29 34 30
12 17 21 31 21 19 24 2 7 12 17 8 5 13 13 12 15 18 11 17 22 12 3 13 11 17 10 13 6 10 11 6 7 5 4 12 7 6 4 13 34 34 36 35 28
8 14 17 28 27 27 17 8 9 7 6 7 17 15 17 15 9 17 23 23 18 26 14 9 14 8 21 6 11 5 14 9 4 1 2 4 2 3 7 12 23 28 32 33 29
7 7 20 15 28 31 8 10 7 13 9 7 6 5 10 18 18 15 14 18 23 18 21 4 5 12 12 12 19 10 4 6 4 5 8 5 6 5 7 8 14 16 23 29 30
4 3 6 19 25 17 7 8 12 24 15 3 7 9 7 11 12 20 15 13 21 18 14 23 10 6 8 21 23 13 14 5 7 7 5 2 5 4 12 13 14 15 26 35 31
2 1 3 10 14 4 8 5 21 20 18 8 4 8 8 13 14 12 16 16 19 10 19 23 10 15 18 6 16 16 21 13 6 10 5 4 6 6 14 14 18 20 28 31 27
3 5 7 9 4 8 3 17 12 7 19 9 5 4 7 9 7 7 2 8 23 9 7 8 10 5 11 6 8 17 17 16 11 5 14 5 5 6 11 13 15 13 27 33 29
2 2 3 14 17 8 10 11 20 36 20 23 7 13 7 10 12 4 6 10 13 14 23 19 5 20 14 2 3 12 13 8 4 7 9 9 2 8 1 12 12 16 22 28 27
8 5 5 3 7 14 14 8 16 21 23 18 6 13 8 5 11 4 4 5 4 7 8 7 0 10 4 10 9 7 9 6 2 3 5 4 5 5 7 10 22 26 25 24 31
7 4 5 7 17 12 11 9 24 19 18 23 11 11 12 11 12 3 5 3 2 1 3 1 3 5 6 7 7 4 10 11 8 9 7 9 14 8 17 19 23 27 38 35 36
15 18 7 8 4 6 12 15 10 16 18 23 20 12 10 8 7 9 8 9 4 1 3 0 1 3 5 10 12 4 10 11 11 12 8 10 12 11 13 17 18 29 26 37 42